[[{"header":{"parameterUnit":"m.s-1","parameterCategory":1,"la1":30.6,"la2":29.2853,"lo1":-89.7004,"lo2":-87.6739,"dx":0.0162,"dy":0.0183,"nx":112,"ny":82,"refTime":"2023-02-10T18:00:00:Z","depth":0,"parameterNumber":2,"parameterNumberName":"U-component_of_WINDS"},"data":[0.0,0.0,0.0,0.0,0.0,0.0,0.0,0.0,0.0,0.0,0.0,0.0,0.0,0.0,0.0,0.0,0.0,0.0,0.0,0.0,0.0,0.0,0.0,0.0,0.0,0.0,0.0,0.0,0.0,0.0,0.0,0.0,0.0,0.0,0.0,0.0,0.0,0.0,0.0,0.0,0.0,0.0,0.0,0.0,0.0,0.0,0.0,0.0,0.0,0.0,0.0,0.0,0.0,0.0,0.0,0.0,0.0,0.0,0.0,0.0,0.0,0.0,0.0,0.0,0.0,0.0,0.0,0.0,0.0,0.0,0.0,0.0,0.0,0.0,0.0,0.0,0.0,0.0,0.0,0.0,0.0,0.0,0.0,0.0,0.0,0.0,0.0,0.0,0.0,0.0,4.1265,4.2874,4.6958,4.9622,4.9756,5.096,4.9984,4.5831,0.0,0.0,0.0,0.0,0.0,0.0,0.0,0.0,0.0,0.0,0.0,0.0,0.0,0.0,0.0,0.0,0.0,0.0,0.0,0.0,0.0,0.0,0.0,0.0,0.0,0.0,0.0,0.0,0.0,0.0,0.0,0.0,0.0,0.0,0.0,0.0,0.0,0.0,0.0,0.0,0.0,0.0,0.0,0.0,0.0,0.0,0.0,0.0,0.0,0.0,0.0,0.0,0.0,0.0,0.0,0.0,0.0,0.0,0.0,0.0,0.0,0.0,0.0,0.0,0.0,0.0,0.0,0.0,0.0,0.0,0.0,0.0,0.0,0.0,0.0,0.0,0.0,0.0,0.0,0.0,0.0,0.0,0.0,0.0,0.0,0.0,0.0,0.0,0.0,0.0,0.0,0.0,0.0,0.0,0.0,0.0,0.0,0.0,0.0,0.0,0.0,0.0,0.0,0.0,4.2346,4.5024,4.7764,4.9725,5.0459,5.0289,4.9312,4.7273,0.0,0.0,0.0,0.0,0.0,0.0,0.0,0.0,0.0,0.0,0.0,0.0,0.0,0.0,0.0,0.0,0.0,0.0,0.0,0.0,0.0,0.0,0.0,0.0,0.0,0.0,0.0,0.0,0.0,0.0,0.0,0.0,0.0,0.0,0.0,0.0,0.0,0.0,0.0,0.0,0.0,0.0,0.0,0.0,0.0,0.0,0.0,0.0,0.0,0.0,0.0,0.0,0.0,0.0,0.0,0.0,0.0,0.0,0.0,0.0,0.0,0.0,0.0,0.0,0.0,0.0,0.0,0.0,0.0,0.0,0.0,0.0,0.0,0.0,0.0,0.0,0.0,0.0,0.0,0.0,0.0,0.0,0.0,0.0,0.0,0.0,0.0,0.0,0.0,0.0,0.0,0.0,0.0,0.0,0.0,0.0,0.0,0.0,0.0,0.0,0.0,0.0,0.0,4.1963,4.3624,4.6146,4.8562,5.0293,5.1094,5.0961,4.972,4.6948,4.6658,0.0,0.0,0.0,0.0,0.0,0.0,0.0,0.0,0.0,0.0,0.0,0.0,0.0,0.0,0.0,0.0,0.0,0.0,0.0,0.0,0.0,0.0,0.0,0.0,0.0,0.0,0.0,0.0,0.0,0.0,0.0,0.0,0.0,0.0,0.0,0.0,0.0,0.0,0.0,0.0,0.0,0.0,0.0,0.0,0.0,0.0,0.0,0.0,0.0,0.0,0.0,0.0,0.0,0.0,0.0,0.0,0.0,0.0,0.0,0.0,0.0,0.0,0.0,0.0,0.0,0.0,0.0,0.0,0.0,0.0,0.0,0.0,0.0,0.0,0.0,0.0,0.0,0.0,0.0,0.0,0.0,0.0,0.0,0.0,0.0,0.0,0.0,0.0,0.0,0.0,0.0,0.0,0.0,0.0,0.0,0.0,0.0,0.0,0.0,0.0,0.0,0.0,4.2967,4.5119,4.6974,4.9393,5.1023,5.1491,5.1495,4.9992,4.6591,4.5696,0.0,0.0,0.0,0.0,0.0,0.0,0.0,0.0,0.0,0.0,0.0,0.0,0.0,0.0,0.0,0.0,0.0,0.0,0.0,0.0,0.0,0.0,0.0,0.0,0.0,0.0,0.0,0.0,0.0,0.0,0.0,0.0,0.0,0.0,0.0,0.0,0.0,0.0,0.0,0.0,0.0,0.0,0.0,0.0,0.0,0.0,0.0,0.0,0.0,0.0,0.0,0.0,0.0,0.0,0.0,0.0,0.0,0.0,0.0,0.0,0.0,0.0,0.0,0.0,0.0,0.0,0.0,0.0,0.0,0.0,0.0,0.0,0.0,0.0,0.0,0.0,0.0,0.0,0.0,0.0,0.0,0.0,0.0,0.0,0.0,0.0,0.0,0.0,0.0,0.0,0.0,0.0,0.0,0.0,0.0,0.0,0.0,0.0,0.0,0.0,0.0,0.0,4.4952,4.6974,4.7835,5.0485,5.2014,5.1558,5.0892,4.9493,4.7291,4.453,0.0,0.0,0.0,0.0,0.0,0.0,0.0,0.0,0.0,0.0,0.0,0.0,0.0,0.0,0.0,0.0,0.0,0.0,0.0,0.0,0.0,0.0,0.0,0.0,0.0,0.0,0.0,0.0,0.0,0.0,0.0,0.0,0.0,0.0,0.0,0.0,0.0,0.0,0.0,0.0,0.0,0.0,0.0,0.0,0.0,0.0,0.0,0.0,0.0,0.0,0.0,0.0,0.0,0.0,0.0,0.0,0.0,0.0,0.0,0.0,0.0,0.0,0.0,0.0,0.0,0.0,0.0,0.0,0.0,0.0,0.0,0.0,0.0,0.0,0.0,0.0,0.0,0.0,0.0,0.0,0.0,0.0,0.0,0.0,0.0,0.0,0.0,0.0,0.0,0.0,0.0,0.0,0.0,0.0,0.0,0.0,0.0,0.0,0.0,0.0,0.0,0.0,4.4982,4.6841,4.8498,5.0485,5.1848,5.2084,5.142,4.9659,4.6537,0.0,0.0,0.0,0.0,0.0,0.0,0.0,0.0,0.0,0.0,0.0,0.0,0.0,0.0,0.0,0.0,0.0,0.0,0.0,0.0,0.0,0.0,0.0,0.0,0.0,0.0,0.0,0.0,0.0,0.0,0.0,0.0,0.0,0.0,0.0,0.0,0.0,0.0,0.0,0.0,0.0,0.0,0.0,0.0,0.0,0.0,0.0,0.0,0.0,0.0,0.0,0.0,0.0,0.0,0.0,0.0,0.0,0.0,0.0,0.0,0.0,0.0,0.0,0.0,0.0,0.0,0.0,0.0,0.0,0.0,0.0,0.0,0.0,0.0,0.0,0.0,0.0,0.0,0.0,0.0,0.0,0.0,0.0,0.0,0.0,0.0,0.0,0.0,0.0,0.0,0.0,0.0,0.0,0.0,0.0,0.0,0.0,0.0,0.0,0.0,0.0,0.0,4.3816,4.5501,4.7272,4.926,5.0949,5.2075,5.2373,5.1479,4.9458,4.6013,0.0,0.0,0.0,0.0,0.0,0.0,0.0,0.0,0.0,0.0,0.0,0.0,0.0,0.0,0.0,0.0,0.0,0.0,0.0,0.0,0.0,0.0,0.0,0.0,0.0,0.0,0.0,0.0,0.0,0.0,0.0,0.0,0.0,0.0,0.0,0.0,0.0,0.0,0.0,0.0,0.0,0.0,0.0,0.0,0.0,0.0,0.0,0.0,0.0,0.0,0.0,0.0,0.0,0.0,0.0,0.0,0.0,0.0,0.0,0.0,0.0,0.0,0.0,0.0,0.0,0.0,0.0,0.0,0.0,0.0,0.0,0.0,0.0,0.0,0.0,0.0,0.0,0.0,0.0,0.0,0.0,0.0,0.0,0.0,0.0,0.0,0.0,0.0,0.0,0.0,0.0,0.0,0.0,0.0,0.0,0.0,0.0,0.0,0.0,0.0,0.0,0.0,4.4626,4.6684,4.8564,5.0055,5.2108,5.3135,5.244,5.1048,4.8961,0.0,0.0,0.0,0.0,0.0,0.0,0.0,0.0,0.0,0.0,0.0,0.0,0.0,0.0,0.0,0.0,0.0,0.0,0.0,0.0,0.0,0.0,0.0,0.0,0.0,0.0,0.0,0.0,0.0,0.0,0.0,0.0,0.0,0.0,0.0,0.0,0.0,0.0,0.0,0.0,0.0,0.0,0.0,0.0,0.0,0.0,0.0,0.0,0.0,0.0,0.0,0.0,0.0,0.0,0.0,0.0,0.0,0.0,0.0,0.0,0.0,0.0,0.0,0.0,0.0,0.0,0.0,0.0,0.0,0.0,0.0,0.0,0.0,0.0,0.0,0.0,0.0,0.0,0.0,0.0,0.0,0.0,0.0,0.0,0.0,0.0,0.0,0.0,0.0,0.0,0.0,0.0,0.0,0.0,0.0,0.0,0.0,0.0,0.0,0.0,0.0,0.0,0.0,4.3848,4.6356,4.8365,4.9326,5.138,5.2605,5.2407,5.1048,4.8961,4.598,0.0,0.0,0.0,0.0,0.0,0.0,0.0,0.0,0.0,0.0,0.0,0.0,0.0,0.0,0.0,0.0,0.0,0.0,0.0,0.0,0.0,0.0,0.0,0.0,0.0,0.0,0.0,0.0,0.0,0.0,0.0,0.0,0.0,0.0,0.0,0.0,0.0,0.0,0.0,0.0,0.0,0.0,0.0,0.0,0.0,0.0,0.0,0.0,0.0,0.0,0.0,0.0,0.0,0.0,0.0,0.0,0.0,0.0,0.0,0.0,0.0,0.0,0.0,0.0,0.0,0.0,0.0,0.0,0.0,0.0,0.0,0.0,0.0,0.0,0.0,0.0,0.0,0.0,0.0,0.0,0.0,0.0,0.0,0.0,0.0,0.0,0.0,0.0,0.0,0.0,0.0,0.0,0.0,0.0,0.0,0.0,0.0,0.0,0.0,0.0,0.0,0.0,4.3557,4.5996,4.81,4.9358,5.1247,5.2373,5.2373,5.1048,4.8961,4.598,0.0,0.0,0.0,0.0,0.0,0.0,0.0,0.0,0.0,0.0,0.0,0.0,0.0,0.0,0.0,0.0,0.0,0.0,0.0,0.0,0.0,0.0,0.0,0.0,0.0,0.0,0.0,0.0,0.0,0.0,0.0,0.0,0.0,0.0,0.0,0.0,0.0,0.0,0.0,0.0,0.0,0.0,0.0,0.0,0.0,0.0,0.0,0.0,0.0,0.0,0.0,0.0,0.0,0.0,0.0,0.0,0.0,0.0,0.0,0.0,0.0,0.0,0.0,0.0,0.0,0.0,0.0,0.0,0.0,0.0,0.0,0.0,0.0,0.0,0.0,0.0,0.0,0.0,0.0,0.0,0.0,0.0,0.0,0.0,0.0,0.0,0.0,0.0,0.0,0.0,0.0,0.0,0.0,0.0,0.0,0.0,0.0,0.0,0.0,0.0,0.0,0.0,4.346,4.5534,4.7724,4.9986,5.1512,5.2373,5.2373,5.1048,4.8995,4.6079,0.0,0.0,0.0,0.0,0.0,0.0,0.0,0.0,0.0,0.0,0.0,0.0,0.0,0.0,0.0,0.0,0.0,0.0,0.0,0.0,0.0,0.0,0.0,0.0,0.0,0.0,0.0,0.0,0.0,0.0,0.0,0.0,0.0,0.0,0.0,0.0,0.0,0.0,0.0,0.0,0.0,0.0,0.0,0.0,0.0,0.0,0.0,0.0,0.0,0.0,0.0,0.0,0.0,0.0,0.0,0.0,0.0,0.0,0.0,0.0,5.4399,5.4641,0.0,0.0,0.0,0.0,0.0,0.0,0.0,0.0,0.0,0.0,0.0,0.0,0.0,0.0,0.0,0.0,0.0,0.0,0.0,0.0,0.0,0.0,0.0,0.0,0.0,0.0,0.0,0.0,0.0,0.0,0.0,0.0,0.0,0.0,0.0,0.0,0.0,0.0,0.0,0.0,4.2741,4.5266,4.7724,4.9986,5.1512,5.2373,5.2373,5.1048,4.9193,4.6808,4.4887,0.0,0.0,0.0,0.0,0.0,0.0,0.0,0.0,0.0,0.0,0.0,0.0,0.0,0.0,0.0,0.0,0.0,0.0,0.0,0.0,0.0,0.0,0.0,0.0,0.0,0.0,0.0,0.0,0.0,0.0,0.0,0.0,0.0,0.0,0.0,0.0,0.0,0.0,0.0,0.0,0.0,0.0,0.0,0.0,0.0,0.0,0.0,0.0,0.0,0.0,0.0,0.0,0.0,0.0,0.0,0.0,0.0,0.0,0.0,5.5414,5.5124,0.0,0.0,0.0,0.0,0.0,0.0,0.0,0.0,0.0,0.0,0.0,0.0,0.0,0.0,0.0,0.0,0.0,0.0,0.0,0.0,0.0,0.0,0.0,0.0,0.0,0.0,0.0,0.0,0.0,0.0,0.0,0.0,0.0,0.0,0.0,0.0,0.0,0.0,0.0,0.0,4.2477,4.4925,4.7508,5.0449,5.1711,5.2373,5.2373,5.1347,4.979,4.757,4.5682,0.0,0.0,0.0,0.0,0.0,0.0,0.0,0.0,0.0,0.0,0.0,0.0,0.0,0.0,0.0,0.0,0.0,0.0,0.0,0.0,0.0,0.0,0.0,0.0,0.0,0.0,0.0,0.0,0.0,0.0,0.0,0.0,0.0,0.0,0.0,0.0,0.0,0.0,0.0,0.0,0.0,0.0,0.0,0.0,0.0,0.0,0.0,0.0,0.0,0.0,0.0,0.0,0.0,5.4701,5.5414,5.6609,5.6464,5.7224,5.8528,5.6717,5.5848,5.5654,5.4896,0.0,0.0,0.0,0.0,0.0,0.0,0.0,0.0,0.0,0.0,0.0,0.0,0.0,0.0,0.0,0.0,0.0,0.0,0.0,0.0,0.0,0.0,5.1396,5.1865,5.1292,5.0156,4.8331,0.0,0.0,0.0,0.0,0.0,0.0,0.0,0.0,0.0,0.0,0.0,4.259,4.4795,4.7405,5.0933,5.1938,5.2373,5.2373,5.1711,5.0452,4.8498,4.6874,4.4997,0.0,0.0,0.0,0.0,0.0,0.0,0.0,0.0,0.0,0.0,0.0,0.0,0.0,0.0,0.0,0.0,0.0,0.0,0.0,0.0,0.0,0.0,0.0,0.0,0.0,0.0,0.0,0.0,0.0,0.0,0.0,0.0,4.7283,4.7539,0.0,0.0,0.0,0.0,0.0,0.0,0.0,0.0,0.0,0.0,0.0,0.0,0.0,5.331,5.4875,5.6207,5.7195,5.7969,5.8544,5.8927,5.9108,5.8383,5.8601,5.947,5.9868,0.0,5.8875,5.7585,0.0,0.0,0.0,0.0,0.0,0.0,0.0,0.0,0.0,0.0,0.0,0.0,0.0,0.0,0.0,0.0,0.0,0.0,0.0,0.0,0.0,0.0,5.3405,5.2972,5.2564,5.2291,5.1991,4.9294,4.6643,4.5814,4.5119,4.4257,0.0,0.0,0.0,0.0,0.0,0.0,4.319,4.5447,4.7924,5.0821,5.1915,5.2373,5.2373,5.1711,5.0883,4.9988,4.7934,4.6229,4.5115,4.4107,0.0,0.0,0.0,0.0,0.0,0.0,0.0,0.0,0.0,0.0,0.0,0.0,0.0,0.0,0.0,0.0,0.0,0.0,0.0,0.0,0.0,0.0,0.0,0.0,0.0,0.0,0.0,0.0,0.0,4.7245,4.7761,4.6589,4.7364,4.7545,0.0,0.0,0.0,0.0,0.0,0.0,0.0,0.0,0.0,5.4444,5.4846,5.6017,5.8103,5.8215,5.927,6.1277,6.1045,6.1426,6.2295,6.1933,6.1969,6.2331,6.2657,6.2621,6.2095,5.9394,5.7352,5.5869,0.0,0.0,0.0,0.0,5.2367,5.1522,5.2706,5.3315,5.3551,5.3213,0.0,0.0,0.0,0.0,0.0,0.0,0.0,5.3382,5.3518,5.4121,5.4787,5.4959,5.4778,5.4634,5.4634,5.2697,5.0359,4.863,4.6739,4.5241,4.4456,4.2818,0.0,0.0,0.0,4.1648,4.3395,4.5562,4.7978,5.0801,5.1908,5.2373,5.2373,5.2075,5.1578,5.085,4.9127,4.76,4.6352,4.5738,4.4785,0.0,0.0,0.0,0.0,0.0,0.0,0.0,0.0,0.0,0.0,0.0,0.0,0.0,0.0,0.0,0.0,0.0,0.0,0.0,0.0,0.0,0.0,0.0,0.0,0.0,0.0,0.0,0.0,4.8045,4.902,4.6975,4.9089,4.9608,0.0,0.0,0.0,0.0,0.0,0.0,5.2559,5.3881,5.5461,5.7339,5.7825,5.8994,6.1003,6.0537,6.1454,6.362,6.2966,6.3237,6.4396,6.4396,6.4396,6.4396,6.4613,6.4577,6.4158,6.0838,5.8659,5.7211,5.5551,5.4059,5.301,5.416,5.3856,5.3078,5.4431,5.5006,5.5141,5.4938,5.4397,5.3687,5.3281,0.0,0.0,0.0,0.0,5.4499,5.5243,5.5711,5.6174,5.666,5.6545,5.6263,5.6188,5.5022,5.3318,5.1217,4.8895,4.6965,4.6242,4.4319,0.0,4.1403,4.2066,4.2973,4.3929,4.5966,4.8211,5.053,5.1729,5.2373,5.2373,5.2373,5.2142,5.1578,5.0353,4.8995,4.7537,4.7359,4.637,4.444,0.0,0.0,0.0,0.0,0.0,0.0,0.0,0.0,0.0,0.0,0.0,0.0,0.0,0.0,0.0,0.0,0.0,0.0,0.0,0.0,0.0,0.0,0.0,0.0,0.0,0.0,0.0,0.0,0.0,5.0779,5.3452,0.0,0.0,0.0,0.0,5.0651,5.0779,5.2021,5.4706,5.5669,5.7173,5.9568,6.1095,6.2331,6.3203,6.3966,6.4347,6.4323,6.4287,6.4323,6.4396,6.4396,6.4396,6.4432,6.5192,6.512,6.4266,6.2009,6.0592,5.9552,5.6748,5.5175,5.4465,5.4566,5.4532,5.46,5.5378,5.6122,5.6562,5.5886,5.5141,5.4668,5.5344,5.504,0.0,0.0,5.6055,5.6799,5.7543,5.7746,5.7729,5.7642,5.6966,5.627,5.6034,5.4841,5.355,5.2753,5.1292,4.9526,4.727,0.0,4.5897,4.3685,4.448,4.5348,4.5191,4.7291,4.8952,4.9821,5.1401,5.2373,5.2373,5.2373,5.2373,5.234,5.1612,5.0518,4.9061,4.9372,4.8208,4.5214,4.5552,0.0,0.0,0.0,0.0,0.0,0.0,0.0,0.0,0.0,0.0,0.0,0.0,0.0,0.0,0.0,0.0,0.0,0.0,0.0,0.0,0.0,0.0,0.0,0.0,0.0,0.0,0.0,0.0,5.3183,5.5863,0.0,5.3393,5.2569,5.2128,5.1843,5.3445,5.5179,5.6646,5.8801,6.0612,6.2076,6.3203,6.4421,6.5842,6.5039,6.5327,6.6794,6.5721,6.57,6.6714,6.617,6.6496,6.7474,6.7257,6.7293,6.7342,6.5065,6.3123,6.1274,5.9276,5.8084,5.7442,5.7442,5.7442,5.7476,5.7746,5.8017,5.8017,5.6799,5.6224,5.5987,5.5784,5.5852,5.6055,5.6325,5.6934,5.7679,5.8423,5.8254,5.8011,5.8421,5.7486,5.6614,5.7105,5.6293,5.549,5.5595,5.3194,5.0824,4.9924,4.9723,4.8784,4.6008,4.7076,4.7731,4.6184,4.8016,4.9552,4.9773,5.1327,5.2373,5.2373,5.2804,5.287,5.2407,5.2142,5.1545,5.0551,5.0521,4.978,4.8174,4.8091,4.7097,0.0,0.0,0.0,0.0,0.0,0.0,0.0,0.0,0.0,0.0,0.0,0.0,0.0,0.0,0.0,0.0,0.0,0.0,0.0,0.0,0.0,0.0,0.0,0.0,0.0,0.0,5.5959,5.473,5.7828,5.8806,5.5706,5.5377,5.5141,5.46,5.6297,5.788,5.9159,6.1366,6.3127,6.4472,6.5307,6.6417,6.784,6.6707,6.6961,6.8559,6.7389,6.7366,6.838,6.7836,6.8162,6.914,6.8633,6.8706,6.9043,6.6979,6.5233,6.3622,6.136,6.0216,5.9742,5.9471,5.937,5.937,5.937,5.9235,5.8863,5.7881,5.7374,5.707,5.6596,5.6799,5.7171,5.7171,5.7509,5.8118,5.9133,5.8829,5.8383,5.8791,5.7664,5.6566,5.6911,5.6034,5.5555,5.6569,5.4749,5.2853,5.2478,5.2373,5.1408,4.8517,4.9489,4.9696,4.7598,4.9192,5.0437,5.0184,5.1685,5.2638,5.2407,5.2804,5.281,5.236,5.2094,5.1562,5.0826,5.0575,4.9964,4.8959,4.8402,4.7311,4.567,0.0,0.0,0.0,0.0,0.0,0.0,0.0,0.0,0.0,0.0,0.0,0.0,0.0,0.0,0.0,0.0,0.0,0.0,0.0,0.0,0.0,0.0,0.0,4.9914,5.4624,5.7354,5.5809,5.9702,6.1289,5.8255,5.8689,5.9133,5.9133,5.9099,5.9997,6.2185,6.3091,6.4528,6.6727,6.7559,6.8416,6.9213,6.9176,6.9176,6.9213,6.9176,6.9176,6.9213,6.9176,6.9213,6.9249,6.9213,6.9213,6.909,6.7581,6.6918,6.6565,6.2836,6.1366,6.1264,6.0452,6.0148,6.0148,6.0148,5.9674,5.9099,5.9066,5.8558,5.7949,5.7949,5.7949,5.7949,5.7949,5.7949,5.8287,5.9742,5.9573,5.8976,5.8906,5.7642,5.6154,5.526,5.4179,5.3782,5.5377,5.5809,5.5572,5.4692,5.456,5.377,5.1247,5.1512,0.0,4.9643,5.0863,5.167,5.0943,5.24,5.3169,5.2473,5.2407,5.2324,5.2167,5.1425,5.0634,4.9894,4.9632,4.8802,4.7312,4.6365,4.5265,4.398,0.0,0.0,0.0,0.0,0.0,0.0,0.0,0.0,0.0,0.0,0.0,0.0,0.0,0.0,0.0,0.0,0.0,0.0,0.0,0.0,0.0,0.0,5.1428,5.2169,5.6426,5.9718,6.0393,6.3031,6.4498,6.3659,6.2816,6.2242,6.2341,6.1792,6.1865,6.3024,6.3834,6.5043,6.6746,6.7597,6.8678,7.0046,6.9466,6.9466,7.0046,6.9466,6.9502,7.0046,6.8858,6.8958,7.0064,6.9424,6.9562,6.9997,6.9055,6.8327,6.7405,6.4205,6.2922,6.2753,6.1467,6.096,6.096,6.096,6.0858,6.0588,6.0013,5.9674,5.9505,5.9505,5.9505,5.9505,5.9505,5.9505,5.9708,6.0723,6.0013,5.9261,6.0348,5.8441,5.6449,5.6854,5.5589,5.4609,5.5718,5.5264,5.4826,5.5193,5.5752,5.5512,5.3631,5.3382,5.2793,5.123,5.1888,5.2365,5.167,5.3148,5.393,5.3202,5.3135,5.2445,5.0859,5.0893,5.098,5.0827,5.054,5.0048,4.9321,4.8515,4.7568,0.0,0.0,0.0,0.0,0.0,0.0,0.0,0.0,0.0,0.0,0.0,0.0,0.0,0.0,0.0,0.0,0.0,0.0,0.0,0.0,0.0,0.0,5.1396,5.331,5.4828,5.7946,6.0809,6.2672,6.4023,6.5036,6.5715,6.4693,6.4007,6.3999,6.3824,6.3979,6.4318,6.5053,6.6178,6.7736,6.8302,6.9275,7.0842,7.0408,7.0408,7.0842,7.0372,7.0408,7.0842,6.9597,6.9515,7.0371,6.9907,6.9943,7.0336,6.9907,6.9281,6.8284,0.0,0.0,0.0,0.0,6.2212,6.2178,6.1873,6.1569,6.1231,6.0757,6.0385,6.0114,6.0114,6.0114,6.0114,6.0114,6.0114,6.0283,6.1095,6.0655,6.0182,6.1095,5.8999,5.6871,5.7069,5.5368,5.3903,5.4749,5.4232,0.0,5.4794,5.5567,5.5777,5.4842,5.4313,5.3507,5.214,5.2778,5.3092,5.2396,5.3636,5.4229,5.3467,5.3135,0.0,0.0,0.0,5.0362,5.0017,4.9951,0.0,0.0,0.0,4.8361,4.7526,4.7142,0.0,0.0,4.4532,4.4273,0.0,0.0,0.0,0.0,0.0,0.0,0.0,0.0,0.0,0.0,0.0,0.0,0.0,0.0,0.0,0.0,5.2731,5.4901,5.7581,5.9321,6.1163,6.3314,6.3674,6.4381,6.5868,6.5301,6.485,6.5013,6.5559,6.5911,6.5979,0.0,0.0,0.0,0.0,7.0028,7.1494,7.1494,7.1494,7.1494,7.1494,7.1494,7.1494,7.075,7.0305,7.0234,7.0343,7.0307,7.0303,7.0585,7.0133,6.9091,6.6692,6.5333,6.4512,6.3869,6.3599,6.3429,6.2753,0.0,0.0,6.1434,6.0926,6.0351,6.0351,6.0351,6.0351,6.0351,6.0351,6.052,6.1231,6.1366,6.1332,6.14,5.9463,5.7437,5.682,5.4561,5.2854,5.3295,5.3237,5.3357,5.4017,5.4768,5.5312,5.5312,5.4569,5.3719,5.2874,5.3371,5.367,5.3123,5.398,0.0,5.3599,5.2904,5.2091,5.1056,5.0379,4.9676,4.8802,4.9254,4.929,4.8907,4.8837,4.8416,4.7838,4.8058,4.7803,4.7146,4.698,4.6291,0.0,0.0,0.0,0.0,0.0,0.0,0.0,0.0,0.0,0.0,0.0,0.0,0.0,0.0,0.0,5.27,5.4711,5.6794,5.9876,6.1211,6.2358,6.3396,6.4581,6.5929,6.7463,6.6834,6.6588,6.7284,6.6936,6.6911,6.7532,6.7706,6.854,7.0122,7.0157,7.0566,7.1494,7.1494,7.1494,7.1494,0.0,0.0,7.1467,7.07,6.9983,6.949,6.9966,6.9945,6.9598,7.1446,7.1445,6.9898,6.6862,6.525,6.458,6.4444,6.4005,6.3497,6.3362,6.2821,6.2178,6.2178,6.2076,6.1941,6.1941,6.1941,0.0,6.1941,6.1941,6.1975,6.2144,6.1738,6.1467,6.2042,6.0191,5.8227,5.8215,5.651,5.4885,5.4317,5.4021,5.4022,5.4662,5.5089,5.5312,5.5312,5.4569,5.3891,5.3719,5.3196,5.3077,5.3701,5.4581,5.4881,5.4353,5.3632,5.2412,5.0524,5.0723,5.1062,5.1185,5.2453,5.2614,5.1329,5.0751,4.9831,4.8596,4.8653,4.8392,4.7928,4.8447,4.8388,0.0,0.0,0.0,0.0,0.0,0.0,0.0,0.0,0.0,0.0,0.0,4.6742,0.0,0.0,5.1217,5.4428,5.6429,5.8474,6.0918,6.1971,6.3033,6.4459,6.5289,6.6439,6.8349,6.7856,6.7706,6.8452,6.8613,6.8632,6.8566,6.9419,7.0203,7.0978,7.0978,7.1534,7.269,7.1893,7.1893,7.2726,7.2291,7.2327,7.2662,7.1409,7.071,7.0319,7.0233,7.0004,6.9784,7.1427,7.1682,7.0739,6.8383,6.6719,6.5662,6.529,6.4918,6.4546,6.4174,6.3802,6.3429,6.3057,6.3193,6.3429,6.3057,6.3193,6.3429,6.3057,6.2956,6.2854,6.2482,6.211,6.1941,6.2122,6.0669,5.8997,5.8313,5.6911,5.5318,5.4237,5.3922,5.3854,5.4083,5.4532,5.528,5.6214,5.5304,5.4514,5.4514,5.3414,5.2931,5.3891,5.4498,5.4854,5.5048,5.3732,5.2274,5.085,5.0994,5.139,5.1975,5.2881,5.3124,5.2558,5.171,5.0989,5.0528,5.0149,5.0032,5.0138,5.0925,5.0691,0.0,0.0,0.0,0.0,0.0,0.0,0.0,0.0,4.5476,4.8287,4.8774,4.9222,5.1094,5.232,5.3838,5.6312,5.7997,5.9657,6.1747,6.2615,6.365,6.5652,6.5685,6.6403,6.861,6.8441,6.8452,6.921,7.0303,7.0627,6.9915,7.1267,7.2006,7.2006,7.2006,7.253,7.3667,7.2545,7.2545,7.3667,7.3197,7.3204,7.3621,7.233,7.1581,7.1175,7.0499,7.0429,7.0915,7.1645,7.188,7.1581,7.0367,6.8726,6.6948,6.6339,6.5933,6.5628,6.5189,6.485,6.4512,6.3903,6.414,6.4478,6.3903,6.4038,6.4309,6.3869,6.3632,6.3362,6.2753,6.2618,6.2471,6.211,6.1046,5.9762,5.8507,5.7121,5.5625,5.4348,5.399,5.3856,5.3511,5.4314,5.5379,5.671,5.5764,5.4977,5.4977,5.3582,5.297,5.4112,5.4237,5.4533,5.5345,5.3665,5.2274,5.1545,5.143,5.162,5.2283,5.2745,5.3077,5.3369,5.252,5.2253,5.2459,5.1839,5.1873,5.2459,5.3253,5.2775,4.3646,4.2688,4.2963,4.4756,4.5399,4.6583,0.0,0.0,4.9936,5.1967,5.2836,5.3432,5.3937,5.4692,5.6183,5.9032,5.9325,6.0184,6.2982,6.4152,6.5058,6.5966,6.5444,6.5765,6.7588,6.8349,6.9082,6.977,7.1497,7.2477,7.2406,7.324,7.3645,7.3645,7.3645,7.3385,7.2834,7.3378,7.3378,7.2834,7.3486,7.3447,7.2833,7.2599,7.1647,7.0303,7.0256,7.1423,7.3405,7.3574,7.3216,7.2577,7.2353,7.0419,6.776,6.7692,6.6812,6.5764,6.6373,6.5696,6.458,6.4512,6.4546,6.458,6.4512,6.4072,6.3768,6.4343,6.4005,6.3497,6.3429,6.3235,6.2952,6.2165,6.1086,6.0181,6.0096,5.8505,5.6902,5.603,5.5603,5.506,5.4192,5.5378,5.6023,5.5101,5.4761,5.4638,5.4638,5.3216,5.2884,5.4718,5.4378,5.4209,5.4609,5.3798,5.3003,5.2307,5.2246,5.2566,5.3212,5.3896,5.4212,5.4275,5.4091,5.3777,5.3287,5.3184,5.3184,5.3287,5.4046,5.3914,4.6632,4.5399,4.5229,0.0,4.797,4.939,5.1251,5.1183,5.1321,5.3449,5.4619,5.5308,5.5462,5.7299,5.9065,0.0,6.0904,6.2182,6.3843,6.4428,6.498,6.5801,6.588,6.6468,6.7858,6.8727,6.9632,7.0521,7.1748,7.2797,7.342,7.4157,7.4609,7.4609,7.4609,7.4682,7.479,7.4211,7.4211,7.479,7.4208,7.3974,7.4046,7.3011,7.1877,7.0822,7.0822,7.1644,7.3044,7.3604,7.3308,7.2557,7.2696,7.0984,6.8538,6.8064,6.7252,6.6373,6.6711,6.6406,6.5831,6.5392,6.5527,6.5797,6.5358,6.5324,6.5425,6.5256,6.4937,6.4551,6.4113,6.3511,6.2963,6.2982,6.1983,6.1035,6.0576,5.9613,5.8387,5.6745,5.6291,5.5827,5.492,5.537,5.5538,5.4994,5.5119,5.5222,5.5222,5.3926,5.3528,5.5016,5.5425,5.5273,5.4551,5.4229,5.3765,5.3036,5.2605,5.3061,5.4565,5.4091,5.4083,5.4559,5.3998,5.3652,5.3567,5.3473,5.3632,5.4046,5.4356,5.4356,4.8031,0.0,0.0,4.8477,5.0642,5.257,5.2976,5.3213,5.3822,5.5609,5.6606,5.7105,5.7089,5.9131,6.0738,6.052,6.1712,6.3073,6.4233,6.4365,6.4818,6.5891,6.6476,6.704,6.7735,6.8977,7.0153,7.1145,7.2272,7.3298,7.41,7.4947,7.5442,7.5442,7.5442,7.5623,7.5985,7.4808,7.4673,7.5642,7.444,7.4035,7.4376,7.2866,7.183,7.1312,7.1312,7.1776,7.2533,7.316,7.3078,7.2548,7.2649,7.1291,6.9316,6.8741,6.7929,6.7117,6.7117,6.7117,6.6981,6.6237,6.6373,6.6711,6.617,6.6237,6.644,6.6019,6.5699,6.5262,6.464,6.3802,6.305,6.3215,6.2399,6.1351,6.0913,6.0326,5.929,5.7371,5.6831,5.628,5.5381,5.5179,5.5179,5.5179,5.5425,5.5577,5.5577,5.4823,5.4429,5.4915,5.5988,5.6084,5.4659,5.4527,5.4195,5.3467,5.2937,5.3418,5.5123,5.4359,5.3991,5.4092,5.3768,5.3352,5.3071,5.3312,5.3667,5.4218,5.4787,5.5119,0.0,0.0,4.7496,5.0405,5.3382,5.5953,5.7374,5.8254,5.8849,5.9275,5.9399,5.9438,5.9426,5.9774,6.0355,6.1483,6.1382,6.1914,6.41,6.4365,6.4895,6.632,6.7148,6.7314,0.0,6.885,7.0633,7.1348,7.3387,7.461,7.4684,7.5688,7.6239,7.6239,7.6239,7.5913,7.5152,7.5118,7.4726,7.394,7.3875,7.3367,7.2533,7.1688,7.1312,7.1312,7.1312,7.1776,7.2533,7.2533,7.2533,7.2533,7.2498,7.1576,7.0161,7.0128,6.9147,6.7861,6.7861,6.7861,6.776,6.7015,6.6779,6.6812,6.6779,6.6271,6.5865,6.6356,6.5968,6.5278,6.5076,6.4285,6.3415,6.2682,6.1816,6.1119,6.1035,6.0292,5.9323,5.8268,5.7276,5.628,5.5381,5.5179,5.5179,5.5179,5.5179,5.525,5.525,5.5626,5.5405,5.4134,5.5668,5.6084,5.4659,5.4527,5.4195,5.3467,5.34,5.3732,5.4494,5.4907,5.4347,5.2727,5.3615,5.3225,5.1571,5.2763,5.3425,5.346,5.5558,5.6526,0.0,0.0,5.1183,5.416,5.6055,5.7543,5.9032,5.8795,5.8552,5.9497,5.8806,5.804,5.7846,5.897,6.0142,6.0534,6.2141,6.3703,6.4895,6.5492,6.579,6.579,6.6883,0.0,0.0,0.0,0.0,7.0002,7.2126,7.3807,7.4681,7.5584,7.614,7.6311,7.6275,7.6112,7.5836,7.537,7.4894,7.454,7.3426,7.2533,7.1688,7.1367,7.1312,7.1312,7.1312,7.1457,7.1776,7.2313,7.2228,7.1776,7.2279,7.1525,7.0195,7.0195,6.9769,6.9052,6.858,6.8162,6.7861,6.7453,6.7048,6.6812,6.6812,6.6559,6.6255,6.644,6.6048,6.5674,6.5588,6.4794,6.4154,6.4353,6.3491,6.2676,6.3173,6.1754,6.0032,5.8997,5.7588,5.628,5.5381,5.5179,5.5179,5.5179,5.5179,5.523,5.5408,5.572,5.5771,5.5537,5.6203,5.6282,5.5322,5.4792,5.4394,5.4162,5.3699,5.3658,5.4237,5.4494,5.3724,5.1908,5.2557,5.2236,5.089,5.1775,5.2563,5.3425,5.5129,5.6129,0.0,5.2202,5.3754,5.6833,5.8355,5.937,6.0317,5.9979,5.9633,6.0001,5.8806,5.7606,5.7219,5.8243,5.9117,5.8675,6.0967,6.314,6.41,6.4664,6.5194,6.5757,6.6651,6.7049,0.0,0.0,0.0,6.9086,7.1353,7.3206,7.3963,7.5227,7.5971,7.6108,7.5865,7.6015,7.6553,7.5276,7.4387,7.3975,7.2932,7.2103,7.1312,7.1312,7.1312,7.1312,7.1312,7.1222,7.1222,7.1742,7.1566,7.1098,7.1532,7.1172,7.0299,7.0299,7.0209,6.9951,6.9065,6.856,6.8378,6.7967,6.7483,6.7048,6.6963,6.6709,6.6507,6.6335,6.6042,6.578,6.5692,6.4984,6.4498,6.4929,6.4133,6.3405,6.3868,6.2771,6.1256,5.982,5.8499,5.7105,5.5812,5.5359,5.5179,5.5179,5.5179,5.514,5.5135,5.5349,5.5511,5.5805,5.6092,5.6039,5.561,5.5189,5.4792,5.4527,5.4254,5.4245,5.4557,5.447,5.3629,5.1965,5.1816,5.1251,5.0225,5.0807,5.1981,5.3783,5.5449,5.6879,5.3653,5.4491,5.5265,5.8349,6.0216,6.1298,6.1332,6.1806,6.1852,6.0751,5.9332,5.8041,0.0,0.0,5.739,5.6464,5.8495,6.0655,6.208,6.2378,6.3471,0.0,0.0,0.0,0.0,0.0,0.0,6.8639,0.0,7.2797,7.2866,7.4709,7.5799,7.5906,7.526,7.569,7.7162,7.4938,7.3323,7.2462,7.2428,7.2022,7.1379,7.1345,7.1312,7.1312,7.1312,7.1131,7.0916,7.0882,7.0666,7.0448,7.0448,7.0448,7.0482,7.0515,7.0515,7.0314,6.9122,6.9054,6.9276,6.8573,6.7959,6.753,6.7255,6.6785,6.6369,6.5901,6.578,6.5692,6.5425,6.4929,6.4432,6.4432,6.3902,6.3372,6.3372,6.3252,6.2628,6.0613,5.9665,5.8462,5.6545,5.5658,5.5239,5.5209,5.5179,5.497,5.4341,5.4466,5.4668,5.5058,5.5153,5.5375,5.5643,5.562,5.5289,5.4626,5.5005,5.5183,5.5183,5.4829,5.3942,5.2476,5.1441,5.0416,4.9521,5.0067,5.1649,5.4323,5.6537,5.8754,5.5127,5.678,5.8504,5.9856,6.0572,6.1166,6.1706,6.0695,5.9487,5.8999,5.7233,5.5463,0.0,0.0,0.0,5.7357,6.0225,0.0,6.3703,6.5227,0.0,6.6485,0.0,6.791,6.738,6.8009,0.0,0.0,7.0633,7.232,7.3594,7.4721,7.6,7.7452,7.683,7.6618,7.6921,7.522,7.4024,7.3206,7.2665,7.2293,7.209,7.1548,7.1222,7.1007,7.1007,7.0825,7.0574,7.0038,6.9836,6.9745,6.9745,6.9745,6.9812,7.0314,7.0456,7.0203,6.9929,6.9654,6.9276,6.8393,6.8115,6.7925,6.6698,6.5979,6.5601,6.5736,6.5123,6.4577,6.5213,6.5293,6.516,6.516,6.4995,6.4862,6.4862,6.329,6.1662,6.1153,5.9253,5.7365,5.6359,5.6047,5.5748,5.5269,5.5179,5.5119,5.497,5.477,5.4854,5.5632,5.5441,5.5571,5.6338,5.5421,5.4957,5.5322,5.4344,5.37,5.3475,5.377,5.2888,5.0756,5.044,5.0068,4.9521,5.0287,5.1856,5.4358,5.7107,5.9439,5.6479,5.8097,5.961,6.0839,6.1153,6.1098,6.0684,5.9607,5.8278,5.6768,5.5381,0.0,5.2655,5.4491,0.0,0.0,0.0,0.0,6.3272,6.473,6.5922,0.0,6.7811,0.0,6.7678,6.8572,6.9301,0.0,7.0918,7.2227,7.3136,7.4752,7.6093,7.721,7.6517,7.6056,7.5736,7.5698,7.499,7.3477,7.3071,7.2438,7.1705,7.13,7.1007,7.0699,7.0699,7.0641,7.0296,6.9562,6.9461,6.9636,6.9303,6.9369,6.9703,7.001,7.0176,6.9988,6.9988,6.9816,6.9477,6.8985,6.8744,6.8426,6.7168,6.6113,6.5241,6.5049,6.4453,6.3988,6.4577,6.5033,6.5425,6.5425,6.5425,6.5425,6.5425,6.3817,6.2109,6.0819,5.8971,5.7244,5.6316,5.6166,5.5957,5.5299,5.5179,5.5179,5.5179,5.4473,5.4451,5.5763,5.5229,5.5231,5.6603,5.5951,5.5521,5.562,5.4853,5.4142,5.3367,5.3388,5.2669,5.1038,5.0422,5.0255,5.0492,5.0559,5.2164,5.5249,5.7255,5.9506,5.7897,5.8873,5.9818,6.1246,6.1561,6.1006,5.905,5.8488,5.7439,5.4267,0.0,5.3194,5.1442,5.3493,5.5156,5.4162,0.0,6.0589,6.2212,6.3073,6.4332,6.6419,6.7877,6.8539,6.8109,6.9202,7.0262,7.0991,7.1821,7.238,7.2472,7.4619,7.5916,7.6069,7.5481,7.4953,7.4506,7.6051,7.5835,7.3781,7.368,7.2785,7.1354,7.106,7.0867,7.0556,7.049,7.0363,7.0143,6.9377,6.9257,6.9599,6.8937,6.9069,6.9666,6.9765,6.9798,6.9798,6.9798,6.9798,6.9765,6.9566,6.9263,6.8851,6.7612,6.6237,6.4864,6.4088,6.3705,6.3516,6.3705,6.4453,6.5246,6.5346,6.5402,6.5336,6.5346,6.4333,6.2715,6.0136,5.8836,5.7872,5.6645,5.6436,5.6196,5.5448,5.5329,5.5299,5.5209,5.4012,5.3819,5.5524,5.4711,5.4653,5.6336,5.6503,5.6316,5.5786,5.5797,5.5345,5.4088,5.3571,5.2948,5.2203,5.0908,5.0779,5.1865,5.143,5.3129,5.6795,5.7872,5.9939,5.9405,6.024,6.087,6.1136,6.0869,6.0131,5.853,5.7306,0.0,0.0,5.2257,5.2203,5.0489,5.2663,5.5222,5.6779,0.0,0.0,0.0,0.0,6.5657,0.0,6.8175,6.9136,7.0229,7.056,0.0,0.0,7.2546,7.3235,7.4026,7.4466,7.5082,7.5937,7.5822,7.6017,7.6211,7.5858,7.554,7.5303,7.4506,7.3878,7.3575,7.2083,7.1359,7.117,7.0537,7.0082,6.9827,6.9097,6.8865,6.8871,6.8738,6.8771,6.8937,6.9566,6.9798,6.9798,6.9798,6.9798,6.9599,6.8407,6.8307,6.8434,6.6386,6.4825,6.3768,6.3899,6.2583,6.1489,6.2386,6.3388,6.4337,6.4923,6.5187,6.5288,6.5111,6.2964,6.0877,5.9455,5.9027,5.868,5.7932,5.7782,5.7363,5.6196,5.6017,5.5807,5.5269,5.4012,5.3627,5.473,5.4304,5.4401,5.5474,5.5731,5.6017,5.6481,5.5259,5.4569,5.4776,5.3987,5.3104,5.2203,5.1394,5.1565,5.2635,5.3686,5.5945,5.9316,6.164,6.3453,5.9212,5.996,6.0622,6.102,6.0638,5.9458,5.6944,0.0,0.0,0.0,5.0284,5.0518,4.967,5.1921,0.0,0.0,0.0,0.0,0.0,0.0,0.0,6.6883,6.8374,6.9401,0.0,7.0461,7.1223,7.1951,7.2349,7.2878,7.37,7.4613,7.5236,7.573,7.5892,7.5926,7.5642,7.5388,7.5219,7.4911,7.4573,7.4107,7.3385,7.2217,7.1465,7.1051,7.032,6.9893,6.9732,6.9003,6.8904,6.9235,6.8837,6.8904,6.9301,6.9666,6.9798,6.9798,6.9798,6.9798,6.9599,6.8539,6.8672,6.8937,6.7115,6.5698,6.4606,6.3836,6.2857,6.2112,6.2487,6.3009,6.3837,6.4674,6.4789,6.4556,6.4159,6.2362,6.039,5.9315,5.9099,5.889,5.8231,5.8112,5.7693,5.6376,5.6166,5.5927,5.5269,5.4012,5.3561,5.4481,5.4215,5.4317,5.5231,5.585,5.6316,5.668,5.5864,5.5237,5.5005,5.4444,5.3929,5.3369,5.2932,5.3338,5.4472,5.5518,5.7332,5.9924,6.2178,6.3762,5.8933,5.9661,6.039,6.0953,6.0423,5.8899,5.5705,5.4183,0.0,0.0,4.8861,4.9194,4.9094,0.0,5.2937,0.0,5.5951,5.8568,0.0,0.0,0.0,0.0,6.8374,0.0,6.9401,7.0461,0.0,7.2183,7.2382,7.2713,7.331,7.46,7.5258,7.5258,7.5546,7.5291,7.4606,7.4968,7.4926,7.4354,7.4579,7.4052,7.3064,7.2362,7.1675,7.109,7.0361,6.9931,6.9765,6.9334,6.95,6.9964,6.9401,6.9533,7.003,7.003,7.003,7.003,7.003,7.003,6.9898,6.9169,6.9103,6.9103,6.7976,6.6573,6.5156,6.388,6.3178,6.2789,6.2396,6.2755,6.3451,6.4414,6.4255,6.3802,6.3356,6.1919,6.0471,5.9555,5.9308,5.9099,5.8441,5.8321,5.7872,5.6555,5.6376,5.6077,5.5299,5.4132,5.3676,5.4443,5.4165,5.422,5.4985,5.5959,5.6678,5.6912,5.6789,5.6435,5.5693,5.5404,5.5002,5.4632,5.4513,5.499,5.6151,5.6948,5.8343,6.0331,6.2427,6.3854,5.9694,6.0456,6.102,6.1086,6.0059,5.8403,5.6051,0.0,5.1881,4.9491,4.9061,4.9094,4.9094,0.0,0.0,0.0,0.0,5.5819,0.0,0.0,0.0,6.791,0.0,0.0,7.1455,7.1819,0.0,7.2945,7.3608,7.4005,7.4072,7.4239,7.4372,7.4372,7.4339,7.4473,7.4606,7.4672,7.4738,7.4966,7.4671,7.4539,7.4339,7.3442,7.2548,7.1852,7.1123,7.0428,6.9831,7.0461,7.0726,7.0792,7.0726,7.0726,7.0792,7.0792,7.0792,7.0792,7.0792,7.0792,7.0693,6.9931,6.8837,6.7811,6.7678,6.5642,6.3653,6.4152,6.2884,6.1348,6.1297,6.2008,6.3065,6.4043,6.3996,6.364,6.2871,6.1886,6.0856,6.0116,5.9997,5.9787,5.9129,5.9009,5.856,5.7214,5.7004,5.6585,5.5359,5.4551,5.4102,5.4201,5.3894,5.3792,5.4125,5.5513,5.6727,5.7595,5.7674,5.7701,5.7888,5.7298,5.6434,5.5345,5.5234,5.5521,5.6151,5.796,5.9927,6.201,6.4545,6.5956,5.9562,6.0854,6.1848,6.2312,6.0655,5.8436,5.668,0.0,5.1214,4.9458,4.8763,4.8564,4.9028,4.9359,5.022,0.0,0.0,0.0,5.7707,0.0,0.0,0.0,0.0,0.0,0.0,0.0,0.0,0.0,7.3773,7.4171,7.4171,7.4171,7.4171,7.4171,7.4171,7.4272,7.4372,7.4473,7.4705,7.4771,7.4771,7.4805,7.4573,7.3741,7.2878,7.1985,7.1686,7.1156,7.0527,7.1256,7.1554,7.1554,7.1554,7.1554,7.1521,7.1057,7.1189,7.1488,7.1057,7.0891,7.0858,7.056,6.9467,6.8274,6.8274,6.6937,6.5468,6.5014,6.3854,6.2627,6.2408,6.2839,6.3456,6.3854,6.3547,6.3195,6.3349,6.2122,6.1044,6.0745,6.0715,6.0505,5.9817,5.9697,5.9249,5.7902,5.7363,5.6765,5.5897,5.485,5.4221,5.4221,5.4192,5.4481,5.5153,5.6242,5.7199,5.7727,5.7806,5.7549,5.6938,5.6676,5.6417,5.6057,5.6348,5.6796,5.7457,5.9294,6.0867,6.2224,6.4816,6.6217,5.9212,6.0887,6.2345,6.3107,6.1053,5.8502,0.0,0.0,5.085,4.9392,4.8531,4.8101,4.8396,4.8794,4.9424,5.0439,5.1404,5.297,5.5554,5.7276,0.0,0.0,0.0,0.0,0.0,0.0,0.0,0.0,7.3906,7.4171,7.4171,7.4171,7.4171,7.4171,7.4171,7.4171,7.4171,7.4372,7.4473,7.4473,7.4672,7.4672,7.4473,7.394,7.321,7.2316,7.2084,7.172,7.1256,7.1786,7.2117,7.2349,7.2349,7.2349,7.2283,7.1753,7.1885,7.225,7.172,7.1421,7.1189,7.0958,7.003,6.9003,6.8591,6.7623,6.6268,6.5429,6.4352,6.3437,6.3159,6.326,6.3537,6.3537,6.3171,6.3019,6.369,6.2807,6.1912,6.1732,6.1702,6.1433,6.0535,6.0386,5.9937,5.862,5.7992,5.7334,5.6316,5.5359,5.473,5.4521,5.4631,5.4913,5.5243,5.6344,5.7042,5.7409,5.7615,5.7404,5.6741,5.6432,5.658,5.7102,5.7387,5.8001,5.8968,6.0534,6.17,6.2581,6.4757,6.656,5.8628,6.049,6.2345,6.3107,6.1053,5.8502,0.0,0.0,5.085,4.9392,4.8531,4.777,4.6965,4.8095,4.9123,4.905,5.0331,5.2539,5.615,5.6713,0.0,0.0,0.0,0.0,0.0,0.0,0.0,0.0,7.4171,0.0,7.4171,7.4171,7.4171,7.4171,7.4171,7.4171,7.4171,7.4171,7.4171,7.4171,7.4171,7.4171,7.4171,7.4171,7.3773,7.3045,7.2316,7.2018,7.1985,7.2018,7.2448,7.3111,7.3111,7.3111,7.3111,7.3078,7.3078,7.3111,7.3078,7.2614,7.1885,7.1123,7.0394,6.9574,6.8502,6.6748,6.5198,6.4847,6.3872,6.3079,6.3079,6.3079,6.3079,6.3079,6.3049,6.3228,6.3857,6.3977,6.3797,6.3169,6.3049,6.263,6.1313,6.1104,6.0655,5.9308,5.9099,5.8381,5.6436,5.6166,5.5897,5.5239,5.5179,5.4737,5.3714,5.5027,5.6098,5.6413,5.7102,5.7705,5.815,5.7364,5.7413,5.8444,5.8386,5.9001,6.0347,6.1506,6.2521,6.3306,6.4694,6.7352,5.6761,5.8264,5.9363,6.0092,5.8071,5.5786,5.5322,0.0,0.0,4.9193,4.8531,4.777,4.6965,4.7668,4.8529,4.8952,5.0298,5.1843,5.35,0.0,0.0,0.0,0.0,0.0,0.0,0.0,0.0,0.0,0.0,7.4171,7.4171,7.4171,7.4171,7.4171,7.4171,7.4171,7.4171,7.4171,7.4171,7.4171,7.4171,7.4171,7.4171,7.4171,7.3508,7.2382,7.3144,7.2912,7.2084,7.3078,7.3608,7.384,7.384,7.384,7.3773,7.3276,7.2871,7.2483,7.1472,7.0982,7.0656,6.9938,6.9221,6.8403,6.726,6.6479,6.5721,6.4066,6.3394,6.3079,6.3079,6.3079,6.3079,6.3079,6.3079,6.3258,6.3857,6.4006,6.3947,6.3737,6.3707,6.3288,6.2002,6.1792,6.1493,6.0595,5.9697,5.889,5.8261,5.7363,5.6705,5.6526,5.6107,5.5792,5.5681,5.572,5.6081,5.7074,5.6756,5.6564,5.6774,5.6841,5.7151,5.7833,5.8153,5.9268,6.1116,6.2358,6.4399,6.7154,6.7691,6.9344,0.0,5.6746,5.7886,5.8714,5.6912,0.0,0.0,0.0,0.0,0.0,0.0,0.0,4.662,4.7261,4.7985,4.8083,4.9621,5.1421,5.2926,0.0,0.0,0.0,0.0,0.0,0.0,0.0,0.0,0.0,0.0,7.4171,7.4171,7.4171,7.4171,7.4171,7.4171,7.4171,7.4171,7.4171,7.4171,7.4171,7.4171,7.4171,7.4171,7.4171,7.3674,7.2846,7.3508,7.3409,0.0,7.3508,7.3939,7.4171,7.4171,7.4171,7.4105,7.3135,7.2685,7.2249,7.092,7.0032,6.9519,6.9588,6.8576,6.726,6.611,6.5467,6.4875,6.3508,6.3079,6.3079,6.3079,6.3079,6.3079,6.3079,6.3079,6.3258,6.3857,6.4216,6.4395,6.4395,6.4395,6.4066,6.2989,6.263,6.2241,6.1583,6.0565,5.9668,5.9189,5.8141,5.7393,5.7124,5.6735,5.6624,5.6777,5.6138,5.5907,5.6359,5.6125,5.6099,5.6302,5.6792,5.7526,5.8648,5.951,6.0938,6.3101,6.4749,6.6714,6.8898,7.0032,7.1287,0.0,0.0,0.0,0.0,0.0,0.0,0.0,0.0,0.0,0.0,0.0,0.0,0.0,4.6949,4.7694,4.6952,4.872,5.1112,5.3948,5.5883,0.0,0.0,0.0,0.0,0.0,0.0,0.0,0.0,0.0,7.4171,7.4171,7.4171,7.4171,7.4171,7.4171,7.4171,7.4171,7.4171,7.4171,7.4171,7.4171,7.4171,7.4171,7.4171,7.4138,7.4072,7.3442,7.3541,7.4038,7.3442,7.3575,7.4171,7.4171,7.4171,7.4037,7.2835,7.2379,7.2025,7.0806,6.9477,6.8482,6.9455,6.8211,6.611,6.4954,6.3902,6.3079,6.3079,6.3079,6.3079,6.3139,6.3109,6.3079,6.3139,6.3139,6.3318,6.3947,6.4605,6.5114,6.5114,6.5114,6.4874,6.4126,6.3528,6.2929,6.2271,6.1613,6.0715,5.9488,5.871,5.8022,5.7363,5.7214,5.7154,5.7154,5.6229,5.5279,5.4759,5.5348,5.6039,5.6742,5.7347,5.8615,6.0537,6.214,6.3915,6.5899,6.8067,6.9122,6.9192,7.1675,7.3106,0.0,0.0,0.0,0.0,0.0,0.0,0.0,0.0,0.0,0.0,0.0,0.0,0.0,0.0,4.8142,4.9106,5.0134,5.1522,5.3362,0.0,0.0,0.0,0.0,0.0,0.0,0.0,0.0,0.0,7.4171,7.4171,7.4171,7.4171,7.4171,7.4171,7.4171,7.4171,7.4171,7.4171,7.4171,7.4171,7.4171,7.4171,7.4171,7.4171,7.3873,7.3376,7.3773,7.3707,7.3376,7.3773,7.4005,7.4171,7.4171,7.4171,7.4037,7.2835,7.1842,7.0664,6.8477,6.7466,6.7001,6.6277,6.5608,6.4954,6.3789,6.3279,6.3079,6.3079,6.3079,6.3199,6.3647,6.3438,6.3199,6.3677,6.3767,6.3977,6.4635,6.5293,6.5772,6.5772,6.5772,6.5413,6.4186,6.3887,6.3558,6.2929,6.2301,6.1762,6.1433,6.0356,5.9548,5.9398,5.8471,5.7872,5.7872,5.6281,5.5546,5.5984,5.5871,5.5993,5.6774,5.846,5.9757,6.0617,6.3483,6.5526,6.6672,6.8548,7.0253,7.1708,7.2837,7.3725,0.0,0.0,0.0,0.0,0.0,0.0,0.0,0.0,0.0,0.0,0.0,0.0,0.0,0.0,0.0,4.839,4.9892,0.0,0.0,0.0,0.0,0.0,0.0,0.0,0.0,0.0,0.0,0.0,7.4171,7.4171,7.4171,7.4171,7.4171,7.4171,7.4171,7.4171,7.4171,7.4171,7.4171,7.4171,7.4171,7.4171,7.4171,7.4171,7.3972,7.3608,7.4005,7.3939,7.3641,7.4005,7.4171,7.4171,7.4171,7.4171,7.4037,7.2835,7.1593,7.028,6.8396,6.7258,6.6405,6.4523,6.432,6.4512,6.3394,6.3079,6.3079,6.3079,6.3079,6.3228,6.3827,6.3737,6.3647,6.4306,6.4485,6.4575,6.4934,6.5533,6.6011,6.6011,6.6011,6.5682,6.4665,6.4216,6.3797,6.3169,6.251,6.2091,6.2091,6.0924,6.0086,6.0086,5.9189,5.859,5.859,5.7334,5.6582,5.6698,5.6107,5.6249,5.7425,5.8787,6.0484,6.2411,6.5267,6.7153,6.7939,6.9958,7.1692,7.3067,7.3317,7.4086,0.0,0.0,0.0,0.0,0.0,0.0,0.0,0.0,0.0,0.0,0.0,0.0,0.0,0.0,0.0,0.0,0.0,0.0,0.0,0.0,0.0,0.0,0.0,0.0,0.0,0.0,0.0,0.0,7.4171,7.4171,7.4171,7.4171,7.4171,7.4171,7.4171,7.4171,7.4171,7.4171,7.4171,7.4171,7.4171,7.4171,7.4171,7.4171,7.4171,7.4171,7.4171,7.4171,7.4171,7.4171,7.4171,7.4171,7.4171,7.4171,7.4037,7.2835,7.1593,7.0343,6.8784,6.7481,6.6046,6.387,6.3706,6.432,6.3394,6.3079,6.3109,6.3199,6.3228,6.3378,6.4006,6.4156,6.4336,6.5024,6.5173,6.5173,6.5173,6.5682,6.6161,6.6161,6.6161,6.5951,6.5293,6.4605,6.3947,6.3318,6.266,6.2241,6.2241,6.1164,6.0356,6.0266,5.9638,5.9219,5.9129,5.859,5.8022,5.7318,5.6556,5.6813,5.8593,5.9166,6.1026,6.4611,6.6807,6.8326,6.9179,7.1331,7.2867,7.367,7.3623,7.444,5.0195,5.2381,0.0,0.0,0.0,0.0,0.0,0.0,0.0,0.0,0.0,0.0,0.0,0.0,0.0,0.0,0.0,0.0,0.0,0.0,0.0,0.0,0.0,0.0,0.0,0.0,0.0,0.0,7.4171,7.4171,7.4171,7.4171,7.4171,7.4171,7.4171,7.4171,7.4171,7.4171,7.4171,7.4171,7.4171,7.4171,7.4171,7.4171,7.4171,7.4171,7.4171,7.4171,7.4171,7.4171,7.4171,7.4171,7.4171,7.4171,7.4037,7.2835,7.1593,7.0105,6.6721,6.5329,6.4788,6.3568,6.3164,6.3279,6.3194,6.3079,6.3199,6.3707,6.3857,6.4006,6.4695,6.4874,6.5054,6.5712,6.5862,6.5862,6.5862,6.637,6.6849,6.6849,6.6849,6.664,6.5981,6.5293,6.4635,6.3947,6.3318,6.2929,6.2929,6.2271,6.1583,6.1014,6.0356,5.9697,5.9159,5.9009,5.8811,5.8505,5.7493,5.7932,6.0022,6.0821,6.2377,6.4568,6.6195,6.7697,6.909,7.1085,7.2667,7.3729,7.4546,7.5171,4.9873,5.1089,5.1726,0.0,0.0,0.0,0.0,0.0,0.0,0.0,0.0,0.0,0.0,0.0,0.0,0.0,0.0,0.0,0.0,0.0,0.0,0.0,0.0,0.0,0.0,0.0,0.0,7.4138,7.4171,7.4171,7.4171,7.4171,7.4171,7.4171,7.4171,7.4171,7.4171,7.4171,7.4171,7.4171,7.4171,7.4171,7.4171,7.3773,7.3807,7.4138,7.3773,7.3807,7.4171,7.4171,7.4171,7.4171,7.4171,7.4171,7.3902,7.1745,7.094,7.039,6.6046,6.4819,6.5003,6.3599,6.3079,6.3139,6.3468,6.3588,6.3707,6.4366,6.4276,6.4246,6.5293,6.5562,6.5712,6.637,6.655,6.655,6.655,6.6789,6.6999,6.6999,6.6999,6.6789,6.6131,6.5772,6.5203,6.4156,6.3767,6.3468,6.3109,6.251,6.1972,6.1672,6.1044,6.0535,6.0206,6.0176,5.9359,5.7498,5.7922,5.8592,5.936,6.1251,6.3212,6.5233,6.7114,6.8873,7.0397,7.2092,7.3627,7.4992,7.5051,7.5708,4.912,4.9671,5.0139,0.0,0.0,0.0,0.0,0.0,0.0,0.0,0.0,0.0,0.0,0.0,0.0,0.0,0.0,0.0,0.0,0.0,0.0,0.0,0.0,0.0,0.0,0.0,0.0,7.3873,7.4072,7.4171,7.4171,7.4171,7.4171,7.4171,7.4171,7.4171,7.4171,7.4171,7.4171,7.4171,7.4171,7.4171,7.4138,7.3608,7.3674,7.4138,7.3575,7.3674,7.4171,7.4171,7.4171,7.4171,7.4171,7.407,7.3394,7.0358,6.979,7.0012,6.5612,6.4668,6.5187,6.3544,6.3053,6.3262,6.374,6.4009,6.4248,6.5054,6.4874,6.4695,6.5742,6.6131,6.637,6.6879,6.6999,6.6999,6.6999,6.6999,6.6999,6.6999,6.6999,6.6819,6.6311,6.6101,6.5592,6.4425,6.4096,6.3767,6.3169,6.263,6.2271,6.2121,6.1642,6.1283,6.0992,6.088,5.9674,5.6868,5.8043,5.8902,5.8786,6.1583,6.3999,6.6037,6.8271,7.021,7.1769,7.3031,7.4515,7.6093,7.5469,7.6142,4.7725,4.905,5.0012,5.0192,0.0,0.0,5.1976,0.0,0.0,0.0,0.0,0.0,0.0,0.0,0.0,0.0,0.0,0.0,0.0,0.0,0.0,0.0,0.0,0.0,0.0,0.0,7.3144,7.3177,7.3807,7.4171,7.4171,7.4171,7.4171,7.4171,7.4171,7.4171,7.4171,7.4171,7.4171,7.4171,7.4171,7.4171,7.4171,7.4105,7.4105,7.4171,7.4105,7.4105,7.4171,7.4171,7.4171,7.4171,7.4171,7.3492,7.2175,6.9026,6.8258,6.8264,6.5116,6.4365,6.4574,6.3049,6.3001,6.3476,6.3565,6.3981,6.4695,6.5622,6.5892,6.5892,6.5981,6.646,6.6939,6.6969,6.6999,6.6999,6.6999,6.6999,6.6999,6.6999,6.6999,6.6969,6.6939,6.64,6.5772,6.5054,6.4425,6.3767,6.3169,6.3049,6.278,6.2151,6.2061,6.1649,6.0684,6.0398,5.9581,5.7833,5.8247,5.8798,5.9398,6.2297,6.4724,6.6702,6.9021,7.0969,7.2438,7.3303,7.4515,7.6093,7.6056,7.6644,4.6341,4.7664,0.0,4.9393,0.0,0.0,0.0,0.0,0.0,0.0,0.0,0.0,0.0,0.0,0.0,0.0,0.0,0.0,0.0,0.0,0.0,0.0,0.0,0.0,0.0,7.1123,7.2117,7.3045,7.3376,7.3707,7.4138,7.4171,7.4171,7.4171,7.4171,7.4171,7.4171,7.4171,7.4171,7.4171,7.4171,7.4171,7.4138,7.3707,7.374,7.4138,7.3707,7.3773,7.4171,7.4171,7.4171,7.4171,7.4171,7.3492,7.2036,6.9304,6.8406,6.8029,6.4661,6.4274,6.5126,6.385,6.3743,6.4219,6.4904,6.5082,6.5288,6.6308,6.661,6.661,6.661,6.6819,6.6999,6.6999,6.6999,6.6999,6.6999,6.6999,6.6999,6.6999,6.6999,6.6999,6.6999,6.6789,6.64,6.5742,6.5054,6.4545,6.4306,6.3588,6.3139,6.3258,6.2698,6.2255,6.1872,6.1025,6.0061,5.9039,5.9017,5.9265,5.9493,6.2732,6.5565,6.7552,7.031,7.2485,7.4001,7.4808,7.5763,7.6864,7.7414,7.7783,4.5516,4.6543,0.0,0.0,0.0,0.0,0.0,0.0,0.0,0.0,0.0,0.0,0.0,0.0,0.0,0.0,0.0,0.0,0.0,0.0,0.0,0.0,0.0,0.0,6.9368,7.0328,7.1421,7.268,7.2978,7.3409,7.4138,7.4171,7.4171,7.4171,7.4171,7.4171,7.4171,7.4171,7.4171,7.4171,7.4171,7.4171,7.4138,7.3674,7.3707,7.4138,7.3674,7.3707,7.4171,7.4171,7.4171,7.4171,7.3833,7.294,7.1541,6.9019,6.7745,6.7032,6.4287,6.4196,6.5018,6.4363,6.4398,6.4781,6.5499,6.5674,6.5665,6.6604,6.6876,6.6876,6.6999,6.6999,6.6999,6.6999,6.6999,6.6999,6.6999,6.6999,6.6999,6.6999,6.6999,6.6999,6.6999,6.6876,6.6637,6.598,6.5381,6.4994,6.4815,6.3949,6.3411,6.3947,6.3563,6.3119,6.2824,6.191,6.0853,5.9655,5.974,5.9756,5.9812,6.3396,6.6241,6.8082,7.1323,7.3617,7.4918,7.5983,7.679,7.7341,7.8442,7.8809,4.5384,4.5781,0.0,0.0,0.0,0.0,0.0,0.0,0.0,0.0,0.0,0.0,0.0,0.0,0.0,0.0,0.0,0.0,0.0,0.0,0.0,0.0,0.0,6.6742,6.8512,7.003,7.1189,7.1951,7.268,7.3409,7.4105,7.4171,7.4171,7.4171,7.4171,7.4171,7.4171,7.4171,7.4171,7.4171,7.4171,7.4171,7.4171,7.4171,7.4171,7.4171,7.4171,7.4171,7.4171,7.4171,7.4171,7.407,7.2835,7.1701,7.0329,6.7714,6.6022,6.4934,6.4246,6.4006,6.4126,6.4457,6.4748,6.5005,6.5005,6.5198,6.5601,6.6382,6.6506,6.6629,6.6876,6.6999,6.6999,6.6999,6.6999,6.6999,6.6999,6.6999,6.6999,6.6999,6.6999,6.6999,6.6999,6.6753,6.6298,6.5644,6.5251,6.4892,6.4575,6.3951,6.3654,6.4006,6.4368,6.4128,6.3148,6.2849,6.1669,5.9422,5.9945,6.0439,6.0546,6.4097,6.6708,6.8082,7.1794,7.4111,7.4918,7.6533,7.7341,7.7378,7.9029,7.9657,4.4291,0.0,0.0,0.0,0.0,0.0,0.0,0.0,0.0,0.0,0.0,0.0,0.0,0.0,0.0,0.0,0.0,0.0,0.0,0.0,0.0,0.0,6.4314,6.6225,6.6742,6.8822,7.0428,7.1156,7.1918,7.2647,7.3376,7.3906,7.4171,7.4171,7.4171,7.4171,7.4171,7.4171,7.4171,7.4171,7.4171,7.4171,7.4171,7.4171,7.4171,7.4171,7.4171,7.4171,7.4171,7.4171,7.4171,7.4171,7.3833,7.2379,7.0504,6.9256,6.7473,6.5622,6.4964,6.4905,6.5082,6.5411,6.5429,6.5433,6.5961,6.5831,6.5601,6.6007,6.6257,6.6506,6.6382,6.6506,6.6753,6.6999,6.6999,6.6999,6.6999,6.6999,6.6999,6.6999,6.6876,6.6629,6.6629,6.6382,6.6073,6.5867,6.53,6.4892,6.4575,6.4753,6.4874,6.4784,6.4426,6.4124,6.3796,6.2871,6.1604,6.0032,6.0186,6.0439,6.0546,6.4097,6.7024,6.8868,7.2631,7.4955,7.5763,7.7414,7.7892,7.7378,7.9617,8.0,4.4721,0.0,0.0,0.0,0.0,0.0,0.0,0.0,0.0,0.0,0.0,0.0,0.0,0.0,0.0,0.0,0.0,0.0,0.0,0.0,0.0,0.0,6.3272,6.5144,6.6257,6.8046,6.9451,7.0174,7.1094,7.1788,7.2375,7.3274,7.3873,7.4171,7.4171,7.4171,7.4171,7.4171,7.4171,7.4171,7.4171,7.4171,7.4171,7.4171,7.4171,7.4171,7.4171,7.4171,7.4171,7.4171,7.4171,7.4171,7.3698,7.2272,7.0392,6.9252,6.7665,6.5951,6.5562,6.5562,6.5799,6.6067,6.5932,6.5727,6.5978,6.5727,6.5348,6.5756,6.6007,6.6132,6.6007,6.6132,6.6382,6.6506,6.6753,6.6753,6.6629,6.6753,6.6753,6.6629,6.6506,6.6257,6.6257,6.5601,6.5065,6.5727,6.5404,6.5029,6.4626,6.5251,6.5551,6.4991,6.4803,6.4494,6.4229,6.3246,6.1948,6.0671,6.0456,6.0563,6.0835,6.4267,6.713,6.9292,7.3286,7.5763,7.6607,7.8589,7.914,7.8332,8.0498,8.0791,0.0,0.0,0.0,0.0,0.0,0.0,0.0,0.0,0.0,0.0,0.0,0.0,0.0,0.0,0.0,0.0,0.0,0.0,0.0,0.0,0.0,6.1339,6.2333,6.3902,6.6574,6.7583,6.8463,6.9246,7.0273,7.1029,7.1493,7.2474,7.3375,7.4138,7.4171,7.4171,7.4171,7.4171,7.4171,7.4171,7.4171,7.4171,7.4171,7.4171,7.4171,7.4171,7.4171,7.4171,7.4171,7.407,7.407,7.3935,7.2729,7.1484,7.0199,6.8551,6.7086,6.6101,6.6101,6.6101,6.607,6.6421,6.6257,6.5882,6.5601,6.5222,6.5094,6.5348,6.5475,6.5601,6.5882,6.5882,6.6007,6.5882,6.6132,6.6382,6.6007,6.6257,6.6382,6.6007,6.6007,6.5882,6.5756,6.4396,6.372,6.5065,6.5192,6.5115,6.4685,6.5375,6.5772,6.5153,6.5249,6.5086,6.4318,6.3428,6.2406,6.1131,6.0726,6.0741,6.1344,6.4491,6.7236,6.9399,7.3869,7.6607,7.7451,7.9837,8.0571,7.9837,8.1452,8.1782,0.0,0.0,0.0,0.0,0.0,0.0,0.0,0.0,0.0,0.0,0.0,0.0,0.0,0.0,0.0,0.0,0.0,0.0,5.9742,5.9972,6.035,6.0434,6.1798,6.3587,6.5599,6.7149,6.8567,6.958,7.0106,7.079,7.1787,7.2331,7.3018,7.4171,7.4171,7.4171,7.4171,7.4171,7.4171,7.4171,7.4171,7.4171,7.4171,7.4171,7.4171,7.4171,7.4171,7.4171,7.4171,7.3181,7.2835,7.2729,7.1484,7.0262,6.9085,6.8729,6.7786,6.6789,6.6789,6.6421,6.608,6.6322,6.5882,6.5251,6.5475,6.5222,6.4996,6.5124,6.5348,6.5475,6.5251,6.5348,6.5475,6.5251,6.563,6.6132,6.6007,6.6007,6.6132,6.6007,6.5756,6.5192,6.411,6.3328,6.3037,6.3328,6.3328,6.3793,6.5144,6.5513,6.5668,6.5801,6.4567,6.3593,6.2965,6.1955,6.0822,5.9578,6.0641,6.1278,6.1482,6.5024,6.8045,7.0221,7.4706,7.7488,7.8332,8.0131,8.0571,7.9837,8.1452,8.1782,0.0,0.0,0.0,0.0,0.0,0.0,0.0,0.0,0.0,0.0,0.0,0.0,0.0,0.0,0.0,0.0,0.0,6.2233,6.0657,6.0444,6.0319,5.9997,6.0846,6.222,6.3995,6.5321,6.6606,6.7871,6.8324,6.9093,7.0241,7.1278,7.2339,7.3285,7.3503,7.3674,7.3674,7.331,7.3144,7.3111,7.278,7.278,7.3144,7.384,7.4171,7.4171,7.4171,7.3972,7.3573,7.2809,7.2184,7.1681,7.0361,6.9348,6.8766,6.8118,6.7548,6.6999,6.6876,6.6506,6.6257,6.6132,6.5601,6.5222,6.5222,6.5094,6.4996,6.4996,6.5124,6.5222,6.4996,6.5094,6.5094,6.4167,6.481,6.5475,6.4653,6.5192,6.5348,6.372,6.385,6.372,6.2242,6.184,6.1571,6.0729,6.1273,6.2375,6.398,6.4268,6.4268,6.4396,6.359,6.2521,6.1247,6.1025,6.0554,5.9598,6.0827,6.168,6.1933,6.5694,6.8898,7.1091,7.5195,7.8163,7.9764,8.0975,8.1342,8.0975,8.1819,8.1966,0.0,0.0,0.0,0.0,0.0,0.0,0.0,0.0,0.0,0.0,0.0,0.0,0.0,0.0,0.0,0.0,0.0,6.2801,6.1532,6.0913,6.0319,5.9776,5.9895,6.0714,6.2607,6.3295,6.4328,6.6079,6.6385,6.712,6.8508,6.9862,7.1035,7.199,7.2441,7.278,7.2912,7.2316,7.2018,7.1985,7.1388,7.1421,7.2051,7.301,7.3638,7.3737,7.3605,7.3107,7.2309,7.1787,7.1295,7.0599,6.9069,6.8444,6.8325,6.7335,6.6999,6.6999,6.6629,6.6506,6.6382,6.5727,6.5475,6.5348,6.5094,6.4996,6.4996,6.4996,6.4996,6.4996,6.4996,6.4996,6.4583,6.3197,6.398,6.4525,6.2773,6.359,6.385,6.1165,6.1436,6.1678,6.0483,6.007,5.9515,5.856,5.9375,6.0756,6.2242,6.2375,6.2375,6.2375,6.2242,6.1268,5.9508,6.0055,6.0253,5.9654,6.0921,6.1915,6.2446,6.6287,6.9532,7.196,7.5691,7.8747,8.1012,8.1819,8.2186,8.2186,8.2186,8.2186,0.0,0.0,0.0,0.0,0.0,0.0,0.0,0.0,0.0,0.0,0.0,0.0,0.0,0.0,0.0,0.0,6.4244,6.4381,6.2424,6.1796,6.1093,5.9887,5.9481,6.0291,6.2546,6.287,6.4135,6.6918,6.5871,6.6164,6.8684,6.7949,6.8436,7.05,7.1029,7.1488,7.215,7.2051,7.2018,7.2018,7.1918,7.1918,7.2018,7.1218,7.12,7.1753,7.1135,7.0228,6.9136,6.862,6.8417,6.8157,6.7516,6.7213,6.7213,6.7121,6.6999,6.6999,6.6629,6.6257,6.6007,6.5601,6.5348,6.5124,6.4996,6.4996,6.4996,6.4996,6.4996,6.4996,6.4996,6.4996,6.4583,6.3197,6.3037,6.2773,6.1165,6.1029,6.1165,6.062,5.9793,5.8982,5.8701,5.759,5.7184,5.8276,5.856,5.9236,6.0756,6.0893,6.0893,6.0893,5.9793,5.8533,5.7315,5.8322,5.8603,5.7486,6.0583,6.2441,6.2548,6.6249,6.9765,7.2897,7.6589,7.9262,8.1012,8.1819,8.2186,8.2186,8.2186,8.2186,0.0,0.0,0.0,0.0,0.0,0.0,0.0,0.0,0.0,0.0,0.0,0.0,0.0,0.0,0.0,6.2643,6.3537,6.3547,6.1408,6.1011,6.0404,5.902,5.909,5.9768,6.1197,6.1727,6.2829,6.494,6.4105,6.4468,6.6464,6.6244,6.6808,6.8415,6.8658,6.9188,7.0129,7.0129,6.961,6.8699,6.8366,6.8032,6.7777,6.7625,6.8724,7.0695,6.9711,6.8798,6.7976,6.7889,6.7535,6.7174,6.6793,6.6753,6.6693,6.606,6.5941,6.5818,6.5447,6.5323,6.5132,6.5232,6.5124,6.4996,6.4996,6.4996,6.4996,6.4996,6.4996,6.4996,6.4996,6.4996,6.4425,6.2109,6.1571,6.0893,5.8701,5.9375,6.0345,5.9515,5.8134,5.7184,5.7184,5.6631,5.6485,5.704,5.7184,5.7733,5.9262,5.911,5.903,5.9349,5.8262,5.699,5.5688,5.6516,5.6877,5.6476,5.9539,6.1828,6.2654,6.6311,6.978,7.2951,7.6214,7.9173,8.1672,8.2039,8.2186,8.2186,8.2186,8.2186,0.0,0.0,0.0,0.0,0.0,0.0,0.0,0.0,0.0,0.0,0.0,0.0,0.0,0.0,6.2179,6.2179,6.2775,6.2684,6.0863,6.0323,5.9695,5.8524,5.8683,5.9248,5.9887,6.0555,6.1527,6.3099,6.2618,6.2913,6.4341,6.4197,6.4734,6.6054,6.6209,6.6807,6.8142,6.8088,6.7195,6.5642,6.5288,6.4848,6.4507,6.4758,6.6238,6.8604,6.7881,6.712,6.6449,6.6836,6.665,6.6199,6.6308,6.6263,6.6055,6.5305,6.4887,6.474,6.4399,6.4392,6.4472,6.4716,6.4851,6.4996,6.4996,6.4996,6.4996,6.4996,6.4996,6.4996,6.4996,6.4711,6.3749,6.1165,6.0345,5.9375,5.6776,5.7876,5.9122,5.7992,5.6895,5.6219,5.6219,5.6219,5.6219,5.6219,5.6219,5.6631,5.7733,5.7487,5.741,5.7824,5.7099,5.6136,5.493,5.5581,5.6079,5.634,5.8956,6.1213,6.2919,6.6401,6.9829,7.3088,7.5776,7.86,8.1579,8.1579,8.1579,8.1579,8.1579,8.1647,0.0,0.0,0.0,0.0,0.0,0.0,0.0,0.0,0.0,0.0,0.0,0.0,0.0,6.1682,6.2179,6.2179,6.2775,6.2892,6.1757,6.0582,5.9513,5.8802,5.8199,5.8311,5.9219,5.9887,6.1058,6.2754,6.188,6.1909,6.3364,6.1609,6.1584,6.3922,6.3834,6.4724,6.6618,6.6282,6.5576,6.4577,6.4507,6.4507,6.4507,6.4084,6.3919,6.4182,6.4659,6.43,6.3429,6.4249,6.4636,6.4755,6.563,6.5624,6.5035,6.5005,6.4622,6.4091,6.3725,6.4012,6.4385,6.4193,6.4502,6.4996,6.4996,6.4996,6.4996,6.4996,6.4996,6.4996,6.4996,6.4009,6.2508,6.1029,5.9515,5.8134,5.6485,5.634,5.634,5.6365,5.6219,5.6219,5.6219,5.6219,5.6219,5.6219,5.6219,5.6219,5.634,5.6314,5.6314,5.634,5.6289,5.6063,5.539,5.6173,5.666,5.6807,5.9215,6.1534,6.368,6.6696,7.0066,7.3851,7.5452,7.7453,7.9875,7.9875,7.9875,7.9875,7.9875,8.0179,4.3207,0.0,0.0,0.0,0.0,0.0,0.0,0.0,0.0,0.0,0.0,0.0,6.1119,6.1318,6.1483,6.1483,6.1715,6.1508,6.0453,6.0009,5.955,5.9051,5.8575,5.8808,6.0122,6.0208,6.0704,6.1673,6.1404,6.1433,6.1969,6.0698,6.0394,6.1539,6.1278,6.2041,6.393,6.3318,6.2727,6.2445,6.2304,6.1875,6.108,6.2232,6.2496,6.2163,6.3222,6.3508,6.3169,6.41,6.4516,6.4634,6.5352,6.522,6.4575,6.4071,6.3363,6.2866,6.3182,6.3349,6.3698,6.4386,6.4793,6.4996,6.4996,6.4996,6.4996,6.4996,6.4996,6.4839,6.3879,6.3197,6.2242,5.9793,5.8278,5.7283,5.6868,5.647,5.6219,5.6219,5.6895,5.759,5.759,5.759,5.759,5.759,5.675,5.6219,5.6219,5.5892,5.5817,5.6168,5.5566,5.5214,5.5365,5.4935,5.5242,5.6293,5.8127,6.0356,6.3013,6.6467,6.9782,7.3083,7.4602,7.6842,7.9721,7.9721,7.9721,7.9721,7.953,7.9572,4.2078,0.0,0.0,0.0,0.0,0.0,0.0,0.0,0.0,0.0,0.0,0.0,6.1053,6.1318,6.145,6.145,6.1251,6.1099,6.1241,6.0448,5.9871,5.9941,5.9627,5.956,5.9975,6.018,6.0412,6.0555,6.0758,6.0874,6.0874,5.9859,5.9286,5.9409,5.9771,6.0383,6.1227,6.088,6.0578,6.0288,6.0286,5.9857,5.905,6.0954,6.1523,6.1194,6.251,6.3079,6.3169,6.3981,6.4395,6.4393,6.5103,6.4823,6.391,6.3378,6.2529,6.189,6.2529,6.2906,6.3254,6.4328,6.4822,6.4996,6.4996,6.4711,6.4296,6.4839,6.4711,6.4009,6.3037,6.2248,6.1028,5.8563,5.7607,5.7323,5.7323,5.6872,5.6495,5.6495,5.7431,5.8418,5.8418,5.8841,5.8982,5.8418,5.759,5.6776,5.6219,5.5892,5.5817,5.6168,5.5541,5.5265,5.5641,5.4637,5.4697,5.6138,5.7817,6.009,6.3013,6.6926,7.0276,7.3028,7.4528,7.6485,7.8846,7.8846,7.8846,7.8846,7.8565,7.8529,0.0,0.0,0.0,0.0,0.0,0.0,0.0,0.0,0.0,0.0,0.0,6.0191,6.0953,6.1682,6.2179,6.2212,6.1616,6.1914,6.4067,6.1934,6.0578,6.1702,6.1156,6.0132,5.8834,5.9946,6.0326,5.9364,5.9887,6.0206,6.0206,5.8958,5.8003,5.748,5.9224,5.9664,5.8832,5.9439,5.9165,5.8166,5.8555,5.8694,5.8723,6.0394,6.1104,6.1194,6.251,6.3079,6.3199,6.3742,6.4032,6.4028,6.4726,6.4183,6.308,6.308,6.2267,6.128,6.189,6.2558,6.3196,6.3864,6.4473,6.4996,6.4996,6.3879,6.3066,6.4425,6.3879,6.2773,6.2669,6.0916,5.8704,5.7343,5.7499,5.7926,5.7926,5.7474,5.7072,5.7072,5.7883,5.847,5.8444,5.9681,6.0234,5.8701,5.856,5.7876,5.6485,5.6219,5.6219,5.6219,5.6219,5.6219,5.6219,5.5189,5.5288,5.6731,5.841,6.0743,6.3775,6.8074,7.1488,7.3651,7.5228,7.6376,7.7133,7.7223,7.7223,7.7223,7.6918,7.703,3.9307,0.0,0.0,0.0,0.0,0.0,0.0,0.0,0.0,0.0,0.0,5.8966,6.0788,6.1682,6.2345,6.2875,6.2808,6.3073,6.4233,6.2805,6.1937,6.272,6.1568,6.0422,6.0132,6.0441,6.0618,0.0,6.0673,6.07,6.0235,5.8523,5.712,5.6065,5.6474,5.6669,5.6378,5.7242,5.7488,5.7189,5.7989,5.8335,5.8364,6.003,6.0737,6.0827,6.2366,6.3318,6.3797,6.3919,6.4032,6.3999,6.4231,6.3806,6.3022,6.2558,6.1861,6.1367,6.2441,6.2935,6.3283,6.4357,6.4851,6.4839,6.3749,6.3197,6.2641,6.1975,6.1571,6.0975,6.0301,5.8863,5.7567,5.7699,5.8077,5.8504,5.8504,5.8378,5.8127,5.775,5.9632,6.1199,6.0602,6.1932,6.2637,6.1761,6.062,5.9515,5.8018,5.7733,5.7303,5.634,5.6219,5.6219,5.6219,5.5189,5.5288,5.6731,5.766,5.9684,6.296,6.6497,6.9583,7.2111,7.3198,7.445,7.6088,7.6828,7.7099,7.6918,7.6461,7.6611,0.0,0.0,0.0,0.0,0.0,0.0,4.5935,4.8091,5.0634,0.0,5.6428,5.7906,5.9827,6.102,6.1947,6.2709,6.3338,6.42,6.5558,6.3965,6.2978,6.4058,6.2622,6.1362,6.0684,6.076,6.0677,6.0297,6.0646,6.0496,5.9858,5.8232,5.6723,5.5445,5.5416,5.53,5.5039,5.6049,5.6624,5.6624,5.757,5.8003,5.8033,5.9693,6.0398,6.0457,6.2166,6.3205,6.3831,6.4008,6.418,6.4323,6.3852,6.3574,6.3399,6.2761,6.2296,6.2122,6.3138,6.3486,6.3661,6.4648,6.4996,6.4711,6.3197,6.2375,6.1706,6.0893,6.0396,5.9827,5.9319,5.8686,5.8152,5.8478,5.9182,5.9684,5.9433,5.9382,5.9156,5.8403,6.0033,6.1203,6.0615,6.2316,6.3236,6.2058,6.1706,6.1029,5.9515,5.8841,5.7992,5.7184,5.6631,5.6219,5.6219,5.5189,5.5288,5.6731,5.7688,5.968,6.3133,6.6647,6.9432,7.1585,7.2678,7.3741,7.4604,7.5703,7.6334,7.6461,7.6216,7.6275,0.0,0.0,0.0,0.0,0.0,0.0,4.6221,4.7053,4.8387,5.3198,5.5096,5.6426,5.7965,5.9564,6.0754,6.1499,6.2934,6.4906,6.7181,6.5094,6.383,6.5195,6.4003,6.2455,6.0975,6.1108,6.085,5.9973,6.0034,5.9829,5.9219,5.8,5.6694,5.5358,5.5387,5.5068,5.44,5.5649,5.6287,5.6316,5.7348,5.7781,5.781,5.9354,6.017,6.0259,6.1818,6.303,6.3624,6.377,6.4239,6.4858,6.3619,6.3516,6.3864,6.3312,6.308,6.3196,6.3806,6.4038,6.4154,6.4793,6.4996,6.4711,6.3197,6.184,6.0483,6.0208,5.9519,5.9019,5.9071,5.9306,5.9508,5.9558,6.0412,6.104,6.0537,6.0412,6.0111,5.9106,5.9583,6.0143,5.9568,6.1624,6.2751,6.0947,6.1734,6.1975,6.0483,5.9236,5.8276,5.8134,5.704,5.6219,5.6219,5.5189,5.5314,5.6812,5.8005,6.0254,6.3623,6.7577,7.0147,7.1382,7.2897,7.3464,7.2809,7.3939,7.4996,7.5709,7.5709,7.5648,0.0,0.0,0.0,0.0,0.0,0.0,4.2737,4.3945,4.5665,0.0,5.0013,5.1999,5.392,5.5808,5.7228,5.7558,6.0141,6.3153,6.6238,6.519,6.4334,6.5155,6.4034,6.275,6.1858,6.1905,6.1644,6.088,6.0034,5.919,5.8523,5.7739,5.649,5.4749,5.5155,5.4865,5.3733,5.4981,5.562,5.562,5.6752,5.7416,5.7474,5.9097,5.9827,5.9885,6.1556,6.2913,6.3947,6.2614,6.2937,6.4298,6.3939,6.3603,6.3254,6.3138,6.308,6.3196,6.3806,6.4038,6.4154,6.4793,6.4996,6.4711,6.3197,6.184,6.007,5.7733,5.7302,5.7567,5.8048,5.8756,5.9608,6.006,6.0688,6.114,6.104,6.1014,6.0814,6.0136,6.0737,6.1319,6.0597,6.1693,6.2283,6.1379,6.1193,6.0483,5.8982,5.856,5.8018,5.6776,5.634,5.6219,5.6219,5.5189,5.5494,5.7405,5.7976,5.968,6.2949,6.6344,6.8508,6.9256,7.1023,7.1701,7.1123,7.2494,7.3225,7.3328,7.3154,7.324,0.0,0.0,0.0,4.291,0.0,0.0,0.0,4.3576,4.4588,4.7034,4.8355,4.9705,5.1773,5.2954,5.4031,5.5172,5.7043,5.9338,6.2042,6.3195,6.3909,6.4452,6.3426,6.26,6.26,6.229,6.1733,6.0706,5.9743,5.9016,5.8348,5.739,5.6432,5.5474,5.5126,5.4807,5.4458,5.5097,5.5591,5.591,5.6868,5.7477,5.7826,5.8928,5.9655,6.0005,6.1322,6.2408,6.3289,6.2494,6.2611,6.3378,6.3058,6.3283,6.3574,6.3574,6.3777,6.4067,6.4386,6.4502,6.4561,6.488,6.4996,6.4711,6.3197,6.1273,5.8982,5.675,5.6821,5.7524,5.7826,5.9106,6.0412,6.0688,6.1391,6.1918,6.1642,6.1592,6.1341,6.0487,6.0683,6.0813,5.9993,6.0656,6.106,6.0447,6.0446,6.0345,5.9654,5.8841,5.8134,5.7328,5.6631,5.6219,5.6219,5.5189,5.5267,5.6664,5.7539,5.9261,6.2233,6.562,6.7874,6.8903,6.9448,6.9751,7.005,7.066,7.1695,7.3046,7.2832,7.3145,0.0,0.0,0.0,0.0,0.0,4.3983,0.0,0.0,0.0,4.6661,4.7184,0.0,0.0,0.0,0.0,0.0,0.0,0.0,0.0,5.9694,0.0,6.2531,6.191,6.1583,6.2127,6.1466,6.0677,5.9821,5.8927,5.8379,5.8319,5.7216,5.652,5.6403,5.53,5.4923,5.5416,5.5416,5.5736,5.6432,5.7013,5.7652,5.8319,5.8987,5.9626,6.0235,6.1112,6.1874,6.2458,6.2341,6.237,6.2516,6.2506,6.3022,6.3893,6.4125,6.4561,6.4996,6.4996,6.4996,6.4996,6.4996,6.4996,6.4711,6.2934,6.0729,5.8444,5.6757,5.7123,5.7926,5.8027,5.9608,6.1006,6.119,6.2019,6.2534,6.227,6.2169,6.1843,6.0713,6.0487,6.0136,5.9056,5.9306,5.9549,5.8963,5.9431,5.9793,5.9793,5.8701,5.8018,5.8018,5.6895,5.6219,5.6219,5.5189,5.4949,5.595,5.7384,5.9294,6.1986,6.5211,6.7623,6.9171,6.8249,6.8279,6.907,6.892,7.0277,7.281,7.281,7.3227,0.0,0.0,0.0,0.0,4.6022,0.0,4.3329,0.0,4.3998,4.3217,0.0,0.0,0.0,0.0,0.0,0.0,0.0,0.0,5.2733,5.4515,5.6432,5.8184,5.8516,5.8722,5.919,5.7681,5.716,5.8297,5.6439,5.608,5.8232,5.7594,5.6955,5.6432,5.5707,5.5329,5.5416,5.5416,5.5736,5.6432,5.7013,5.7652,5.8319,5.8987,5.9626,6.0235,6.0903,6.1542,6.2186,6.1513,6.16,6.2209,6.337,6.3574,6.3341,6.4473,6.4909,6.4996,6.4996,6.4996,6.4996,6.4996,6.4996,6.4454,6.1706,6.062,5.99,5.7506,5.7399,5.8001,5.8504,5.9573,6.0662,6.1165,6.1696,6.2331,6.2584,6.2747,6.2395,6.1291,6.109,6.0738,5.9608,5.8706,5.8151,5.8101,5.7314,5.6776,5.6776,5.6485,5.6485,5.6485,5.634,5.6219,5.6219,5.5189,5.542,5.7207,5.8214,5.9979,6.2642,6.5607,6.7816,6.9201,6.8249,6.7894,6.7993,6.7403,6.8475,7.1127,7.1127,7.1619,0.0,0.0,0.0,0.0,0.0,0.0,4.4466,0.0,4.324,0.0,0.0,0.0,0.0,0.0,0.0,0.0,4.6761,0.0,0.0,0.0,5.1727,5.553,0.0,0.0,5.5051,5.4712,5.4926,5.5973,5.519,5.5424,5.7075,5.7274,5.7187,5.6926,5.559,5.5082,5.5452,5.4259,5.4055,5.4697,5.6131,5.7135,5.7733,5.9158,6.0177,6.0787,6.1077,6.1338,6.1542,6.1309,6.1542,6.218,6.3109,6.3312,6.3254,6.4532,6.4996,6.4996,6.4996,6.4996,6.4996,6.4996,6.4996,6.4454,6.1436,6.062,6.0065,5.7728,5.7449,5.8102,5.8673,5.969,6.0601,6.0763,6.162,6.2167,6.2331,6.2659,6.2596,6.1818,6.1667,6.1416,6.0613,5.9307,5.8278,5.7951,5.7198,5.657,5.6244,5.6219,5.6219,5.6219,5.6219,5.6219,5.6219,5.5491,5.5425,5.6198,5.8578,6.1623,6.5612,6.6614,6.7447,6.8298,6.7526,6.7219,6.7538,6.7625,6.8177,6.9106,6.9759,7.0985,4.8745,0.0,0.0,0.0,0.0,0.0,0.0,0.0,0.0,4.443,4.3931,0.0,0.0,0.0,0.0,0.0,0.0,4.5595,0.0,4.6545,0.0,0.0,0.0,0.0,0.0,5.1571,5.2075,5.3226,5.2851,5.3585,5.5612,5.6263,5.6669,5.6822,5.5281,5.465,5.4915,5.3362,5.2886,5.351,5.5077,5.6289,5.7387,5.888,6.0168,6.1193,6.1193,6.1193,6.1193,6.1193,6.1299,6.1508,6.2294,6.2389,6.2393,6.4306,6.4996,6.4996,6.4996,6.4996,6.4996,6.4996,6.4711,6.3879,6.1436,6.0345,5.9675,5.7785,5.7575,5.8001,5.8793,5.9549,6.0305,6.04,6.1179,6.1837,6.2167,6.2495,6.2509,6.2119,6.1994,6.1843,6.1291,5.9935,5.8755,5.8202,5.7499,5.6846,5.6294,5.6219,5.6219,5.6219,5.6219,5.6269,5.642,5.5792,5.5584,5.6142,5.9289,6.2975,6.7084,6.7072,6.725,6.7679,6.7014,6.6703,6.6871,6.733,6.7497,6.7477,6.8683,7.0235,0.0,0.0,0.0,4.8267,0.0,0.0,0.0,0.0,4.6202,4.6262,4.6397,4.6343,0.0,0.0,0.0,0.0,0.0,0.0,0.0,0.0,4.5595,4.705,0.0,0.0,0.0,4.7784,4.767,4.9928,4.8503,4.9336,5.3669,5.4351,5.4869,5.5472,5.4793,5.4185,5.3604,5.2886,5.2886,5.351,5.4107,5.5414,5.7387,5.7856,5.9265,6.1193,6.1193,6.1193,6.1193,6.1193,6.066,6.0076,6.0694,6.0504,6.0155,6.365,6.4996,6.4996,6.4996,6.4996,6.4996,6.4996,6.4009,6.2641,6.1029,5.9654,5.8395,5.7972,5.7876,5.8001,5.8744,5.939,5.9884,5.9933,6.0416,6.1174,6.2002,6.2167,6.2181,6.1958,6.1994,6.1843,6.1291,6.0236,5.9307,5.878,5.775,5.6846,5.6294,5.6219,5.6219,5.6219,5.6219,5.642,5.6972,5.6018,5.6167,5.8224,6.0837,6.3304,6.5499,6.6867,6.765,6.7679,6.7014,6.6286,6.5806,6.5834,6.6043,6.6487,6.8151,6.9129,0.0,0.0,4.9589,4.8395,0.0,0.0,0.0,0.0,4.6515,4.5984,4.6491,4.6783,4.6049,0.0,0.0,0.0,0.0,0.0,0.0,0.0,4.3566,4.4342,0.0,0.0,0.0,4.4403,4.4986,4.6891,4.65,4.7566,5.0629,5.2015,5.2848,5.2966,5.236,5.2044,5.2112,5.0721,5.0374,5.0942,5.2765,5.3927,5.4646,5.6532,5.8272,5.9768,5.9768,6.0287,6.1102,6.0594,6.0483,6.0566,6.0242,6.0182,6.0457,6.1623,6.2136,6.2136,6.2136,6.2802,6.3328,6.2403,6.1706,6.1029,5.9654,5.9105,5.8719,5.8098,5.8152,5.8602,5.9267,5.9589,5.9894,5.9971,6.0407,6.0841,6.1174,6.1837,6.2117,6.2107,6.2383,6.2496,6.2295,6.1642,6.0713,5.9433,5.8604,5.7826,5.6872,5.6746,5.6746,5.6746,5.6746,5.6972,5.7549,5.6922,5.7404,5.9516,6.0486,6.18,6.3652,6.5331,6.6089,6.5806,6.6286,6.6286,6.5668,6.6089,6.6028,6.5284,6.5887,6.7028,5.1276,5.0672,0.0,4.8787,4.8207,0.0,4.6832,0.0,4.8059,4.7318,4.7695,4.7946,4.7182,0.0,0.0,0.0,0.0,0.0,0.0,4.2655,0.0,4.3188,0.0,0.0,4.3022,4.2629,4.3017,4.4531,4.4535,4.542,4.7566,4.9247,5.0384,5.09,5.0564,5.0513,5.0764,4.952,4.9138,4.9891,5.1688,5.2984,5.3583,5.5442,5.7038,5.834,5.834,5.8843,5.9673,5.9261,5.9201,5.9413,5.894,5.8982,5.9096,6.0208,6.062,6.062,6.062,6.1165,6.184,6.0893,6.0208,5.9654,5.8701,5.8407,5.8353,5.8479,5.8579,5.8927,5.9761,5.9884,5.9732,5.9781,6.0216,6.0674,6.0841,6.134,6.2002,6.2167,6.2495,6.2822,6.2822,6.237,6.1567,6.0286,5.9458,5.8654,5.775,5.7474,5.7349,5.7349,5.7349,5.7499,5.7876,5.7725,5.8124,5.9289,5.9886,6.0708,6.1781,6.3415,6.4682,6.5409,6.5601,6.592,6.6314,6.6511,6.5836,6.4431,6.4881,6.5496]},{"header":{"parameterUnit":"m.s-1","parameterCategory":1,"la1":30.6,"la2":29.2853,"lo1":-89.7004,"lo2":-87.6739,"dx":0.0162,"dy":0.0183,"nx":112,"ny":82,"refTime":"2023-02-10T18:00:00:Z","depth":0,"parameterNumber":3,"parameterNumberName":"V-component_of_WINDS"},"data":[0.0,0.0,0.0,0.0,0.0,0.0,0.0,0.0,0.0,0.0,0.0,0.0,0.0,0.0,0.0,0.0,0.0,0.0,0.0,0.0,0.0,0.0,0.0,0.0,0.0,0.0,0.0,0.0,0.0,0.0,0.0,0.0,0.0,0.0,0.0,0.0,0.0,0.0,0.0,0.0,0.0,0.0,0.0,0.0,0.0,0.0,0.0,0.0,0.0,0.0,0.0,0.0,0.0,0.0,0.0,0.0,0.0,0.0,0.0,0.0,0.0,0.0,0.0,0.0,0.0,0.0,0.0,0.0,0.0,0.0,0.0,0.0,0.0,0.0,0.0,0.0,0.0,0.0,0.0,0.0,0.0,0.0,0.0,0.0,0.0,0.0,0.0,0.0,0.0,0.0,-2.7183,-2.6921,-2.8635,-2.9816,-2.9896,-3.0318,-2.959,-2.7402,0.0,0.0,0.0,0.0,0.0,0.0,0.0,0.0,0.0,0.0,0.0,0.0,0.0,0.0,0.0,0.0,0.0,0.0,0.0,0.0,0.0,0.0,0.0,0.0,0.0,0.0,0.0,0.0,0.0,0.0,0.0,0.0,0.0,0.0,0.0,0.0,0.0,0.0,0.0,0.0,0.0,0.0,0.0,0.0,0.0,0.0,0.0,0.0,0.0,0.0,0.0,0.0,0.0,0.0,0.0,0.0,0.0,0.0,0.0,0.0,0.0,0.0,0.0,0.0,0.0,0.0,0.0,0.0,0.0,0.0,0.0,0.0,0.0,0.0,0.0,0.0,0.0,0.0,0.0,0.0,0.0,0.0,0.0,0.0,0.0,0.0,0.0,0.0,0.0,0.0,0.0,0.0,0.0,0.0,0.0,0.0,0.0,0.0,0.0,0.0,0.0,0.0,0.0,0.0,-2.8028,-2.8271,-2.9413,-3.0174,-3.0319,-2.9919,-2.9192,-2.8264,0.0,0.0,0.0,0.0,0.0,0.0,0.0,0.0,0.0,0.0,0.0,0.0,0.0,0.0,0.0,0.0,0.0,0.0,0.0,0.0,0.0,0.0,0.0,0.0,0.0,0.0,0.0,0.0,0.0,0.0,0.0,0.0,0.0,0.0,0.0,0.0,0.0,0.0,0.0,0.0,0.0,0.0,0.0,0.0,0.0,0.0,0.0,0.0,0.0,0.0,0.0,0.0,0.0,0.0,0.0,0.0,0.0,0.0,0.0,0.0,0.0,0.0,0.0,0.0,0.0,0.0,0.0,0.0,0.0,0.0,0.0,0.0,0.0,0.0,0.0,0.0,0.0,0.0,0.0,0.0,0.0,0.0,0.0,0.0,0.0,0.0,0.0,0.0,0.0,0.0,0.0,0.0,0.0,0.0,0.0,0.0,0.0,0.0,0.0,0.0,0.0,0.0,0.0,-2.8039,-2.7926,-2.8835,-2.9905,-3.0669,-3.1005,-3.0621,-2.9728,-2.8349,-2.8452,0.0,0.0,0.0,0.0,0.0,0.0,0.0,0.0,0.0,0.0,0.0,0.0,0.0,0.0,0.0,0.0,0.0,0.0,0.0,0.0,0.0,0.0,0.0,0.0,0.0,0.0,0.0,0.0,0.0,0.0,0.0,0.0,0.0,0.0,0.0,0.0,0.0,0.0,0.0,0.0,0.0,0.0,0.0,0.0,0.0,0.0,0.0,0.0,0.0,0.0,0.0,0.0,0.0,0.0,0.0,0.0,0.0,0.0,0.0,0.0,0.0,0.0,0.0,0.0,0.0,0.0,0.0,0.0,0.0,0.0,0.0,0.0,0.0,0.0,0.0,0.0,0.0,0.0,0.0,0.0,0.0,0.0,0.0,0.0,0.0,0.0,0.0,0.0,0.0,0.0,0.0,0.0,0.0,0.0,0.0,0.0,0.0,0.0,0.0,0.0,0.0,0.0,-2.8575,-2.8193,-2.9352,-3.0566,-3.142,-3.1554,-3.1248,-3.0336,-2.8411,-2.8003,0.0,0.0,0.0,0.0,0.0,0.0,0.0,0.0,0.0,0.0,0.0,0.0,0.0,0.0,0.0,0.0,0.0,0.0,0.0,0.0,0.0,0.0,0.0,0.0,0.0,0.0,0.0,0.0,0.0,0.0,0.0,0.0,0.0,0.0,0.0,0.0,0.0,0.0,0.0,0.0,0.0,0.0,0.0,0.0,0.0,0.0,0.0,0.0,0.0,0.0,0.0,0.0,0.0,0.0,0.0,0.0,0.0,0.0,0.0,0.0,0.0,0.0,0.0,0.0,0.0,0.0,0.0,0.0,0.0,0.0,0.0,0.0,0.0,0.0,0.0,0.0,0.0,0.0,0.0,0.0,0.0,0.0,0.0,0.0,0.0,0.0,0.0,0.0,0.0,0.0,0.0,0.0,0.0,0.0,0.0,0.0,0.0,0.0,0.0,0.0,0.0,0.0,-2.9753,-2.9352,-2.9891,-3.1547,-3.2344,-3.1595,-3.1187,-3.0329,-2.8838,-2.7288,0.0,0.0,0.0,0.0,0.0,0.0,0.0,0.0,0.0,0.0,0.0,0.0,0.0,0.0,0.0,0.0,0.0,0.0,0.0,0.0,0.0,0.0,0.0,0.0,0.0,0.0,0.0,0.0,0.0,0.0,0.0,0.0,0.0,0.0,0.0,0.0,0.0,0.0,0.0,0.0,0.0,0.0,0.0,0.0,0.0,0.0,0.0,0.0,0.0,0.0,0.0,0.0,0.0,0.0,0.0,0.0,0.0,0.0,0.0,0.0,0.0,0.0,0.0,0.0,0.0,0.0,0.0,0.0,0.0,0.0,0.0,0.0,0.0,0.0,0.0,0.0,0.0,0.0,0.0,0.0,0.0,0.0,0.0,0.0,0.0,0.0,0.0,0.0,0.0,0.0,0.0,0.0,0.0,0.0,0.0,0.0,0.0,0.0,0.0,0.0,0.0,0.0,-2.9351,-2.927,-3.0305,-3.1547,-3.2241,-3.2231,-3.1819,-3.073,-2.8798,0.0,0.0,0.0,0.0,0.0,0.0,0.0,0.0,0.0,0.0,0.0,0.0,0.0,0.0,0.0,0.0,0.0,0.0,0.0,0.0,0.0,0.0,0.0,0.0,0.0,0.0,0.0,0.0,0.0,0.0,0.0,0.0,0.0,0.0,0.0,0.0,0.0,0.0,0.0,0.0,0.0,0.0,0.0,0.0,0.0,0.0,0.0,0.0,0.0,0.0,0.0,0.0,0.0,0.0,0.0,0.0,0.0,0.0,0.0,0.0,0.0,0.0,0.0,0.0,0.0,0.0,0.0,0.0,0.0,0.0,0.0,0.0,0.0,0.0,0.0,0.0,0.0,0.0,0.0,0.0,0.0,0.0,0.0,0.0,0.0,0.0,0.0,0.0,0.0,0.0,0.0,0.0,0.0,0.0,0.0,0.0,0.0,0.0,0.0,0.0,0.0,0.0,-2.9554,-2.9267,-2.9539,-3.0781,-3.1836,-3.254,-3.2727,-3.2168,-3.0905,-2.8752,0.0,0.0,0.0,0.0,0.0,0.0,0.0,0.0,0.0,0.0,0.0,0.0,0.0,0.0,0.0,0.0,0.0,0.0,0.0,0.0,0.0,0.0,0.0,0.0,0.0,0.0,0.0,0.0,0.0,0.0,0.0,0.0,0.0,0.0,0.0,0.0,0.0,0.0,0.0,0.0,0.0,0.0,0.0,0.0,0.0,0.0,0.0,0.0,0.0,0.0,0.0,0.0,0.0,0.0,0.0,0.0,0.0,0.0,0.0,0.0,0.0,0.0,0.0,0.0,0.0,0.0,0.0,0.0,0.0,0.0,0.0,0.0,0.0,0.0,0.0,0.0,0.0,0.0,0.0,0.0,0.0,0.0,0.0,0.0,0.0,0.0,0.0,0.0,0.0,0.0,0.0,0.0,0.0,0.0,0.0,0.0,0.0,0.0,0.0,0.0,0.0,0.0,-2.9959,-3.0028,-3.0346,-3.1278,-3.2561,-3.3203,-3.2768,-3.1899,-3.0594,0.0,0.0,0.0,0.0,0.0,0.0,0.0,0.0,0.0,0.0,0.0,0.0,0.0,0.0,0.0,0.0,0.0,0.0,0.0,0.0,0.0,0.0,0.0,0.0,0.0,0.0,0.0,0.0,0.0,0.0,0.0,0.0,0.0,0.0,0.0,0.0,0.0,0.0,0.0,0.0,0.0,0.0,0.0,0.0,0.0,0.0,0.0,0.0,0.0,0.0,0.0,0.0,0.0,0.0,0.0,0.0,0.0,0.0,0.0,0.0,0.0,0.0,0.0,0.0,0.0,0.0,0.0,0.0,0.0,0.0,0.0,0.0,0.0,0.0,0.0,0.0,0.0,0.0,0.0,0.0,0.0,0.0,0.0,0.0,0.0,0.0,0.0,0.0,0.0,0.0,0.0,0.0,0.0,0.0,0.0,0.0,0.0,0.0,0.0,0.0,0.0,0.0,0.0,-2.9576,-2.9817,-3.0222,-3.0822,-3.2106,-3.2871,-3.2747,-3.1899,-3.0594,-2.8731,0.0,0.0,0.0,0.0,0.0,0.0,0.0,0.0,0.0,0.0,0.0,0.0,0.0,0.0,0.0,0.0,0.0,0.0,0.0,0.0,0.0,0.0,0.0,0.0,0.0,0.0,0.0,0.0,0.0,0.0,0.0,0.0,0.0,0.0,0.0,0.0,0.0,0.0,0.0,0.0,0.0,0.0,0.0,0.0,0.0,0.0,0.0,0.0,0.0,0.0,0.0,0.0,0.0,0.0,0.0,0.0,0.0,0.0,0.0,0.0,0.0,0.0,0.0,0.0,0.0,0.0,0.0,0.0,0.0,0.0,0.0,0.0,0.0,0.0,0.0,0.0,0.0,0.0,0.0,0.0,0.0,0.0,0.0,0.0,0.0,0.0,0.0,0.0,0.0,0.0,0.0,0.0,0.0,0.0,0.0,0.0,0.0,0.0,0.0,0.0,0.0,0.0,-2.9379,-3.0013,-3.0643,-3.0992,-3.2023,-3.2727,-3.2727,-3.1899,-3.0594,-2.8731,0.0,0.0,0.0,0.0,0.0,0.0,0.0,0.0,0.0,0.0,0.0,0.0,0.0,0.0,0.0,0.0,0.0,0.0,0.0,0.0,0.0,0.0,0.0,0.0,0.0,0.0,0.0,0.0,0.0,0.0,0.0,0.0,0.0,0.0,0.0,0.0,0.0,0.0,0.0,0.0,0.0,0.0,0.0,0.0,0.0,0.0,0.0,0.0,0.0,0.0,0.0,0.0,0.0,0.0,0.0,0.0,0.0,0.0,0.0,0.0,0.0,0.0,0.0,0.0,0.0,0.0,0.0,0.0,0.0,0.0,0.0,0.0,0.0,0.0,0.0,0.0,0.0,0.0,0.0,0.0,0.0,0.0,0.0,0.0,0.0,0.0,0.0,0.0,0.0,0.0,0.0,0.0,0.0,0.0,0.0,0.0,0.0,0.0,0.0,0.0,0.0,0.0,-2.9452,-3.0569,-3.1438,-3.1387,-3.2188,-3.2727,-3.2727,-3.1899,-3.0615,-2.8794,0.0,0.0,0.0,0.0,0.0,0.0,0.0,0.0,0.0,0.0,0.0,0.0,0.0,0.0,0.0,0.0,0.0,0.0,0.0,0.0,0.0,0.0,0.0,0.0,0.0,0.0,0.0,0.0,0.0,0.0,0.0,0.0,0.0,0.0,0.0,0.0,0.0,0.0,0.0,0.0,0.0,0.0,0.0,0.0,0.0,0.0,0.0,0.0,0.0,0.0,0.0,0.0,0.0,0.0,0.0,0.0,0.0,0.0,0.0,0.0,-2.1979,-2.2215,0.0,0.0,0.0,0.0,0.0,0.0,0.0,0.0,0.0,0.0,0.0,0.0,0.0,0.0,0.0,0.0,0.0,0.0,0.0,0.0,0.0,0.0,0.0,0.0,0.0,0.0,0.0,0.0,0.0,0.0,0.0,0.0,0.0,0.0,0.0,0.0,0.0,0.0,0.0,0.0,-3.0487,-3.0965,-3.1438,-3.1387,-3.2188,-3.2727,-3.2727,-3.1899,-3.0739,-2.9249,-2.8048,0.0,0.0,0.0,0.0,0.0,0.0,0.0,0.0,0.0,0.0,0.0,0.0,0.0,0.0,0.0,0.0,0.0,0.0,0.0,0.0,0.0,0.0,0.0,0.0,0.0,0.0,0.0,0.0,0.0,0.0,0.0,0.0,0.0,0.0,0.0,0.0,0.0,0.0,0.0,0.0,0.0,0.0,0.0,0.0,0.0,0.0,0.0,0.0,0.0,0.0,0.0,0.0,0.0,0.0,0.0,0.0,0.0,0.0,0.0,-2.2389,-2.2271,0.0,0.0,0.0,0.0,0.0,0.0,0.0,0.0,0.0,0.0,0.0,0.0,0.0,0.0,0.0,0.0,0.0,0.0,0.0,0.0,0.0,0.0,0.0,0.0,0.0,0.0,0.0,0.0,0.0,0.0,0.0,0.0,0.0,0.0,0.0,0.0,0.0,0.0,0.0,0.0,-3.072,-3.1457,-3.2044,-3.1678,-3.2313,-3.2727,-3.2727,-3.2085,-3.1112,-2.9725,-2.8545,0.0,0.0,0.0,0.0,0.0,0.0,0.0,0.0,0.0,0.0,0.0,0.0,0.0,0.0,0.0,0.0,0.0,0.0,0.0,0.0,0.0,0.0,0.0,0.0,0.0,0.0,0.0,0.0,0.0,0.0,0.0,0.0,0.0,0.0,0.0,0.0,0.0,0.0,0.0,0.0,0.0,0.0,0.0,0.0,0.0,0.0,0.0,0.0,0.0,0.0,0.0,0.0,0.0,-2.1962,-2.2389,-2.2871,-2.2813,-2.312,-2.3647,-2.2915,-2.2564,-2.2627,-2.3727,0.0,0.0,0.0,0.0,0.0,0.0,0.0,0.0,0.0,0.0,0.0,0.0,0.0,0.0,0.0,0.0,0.0,0.0,0.0,0.0,0.0,0.0,-3.0882,-3.1164,-3.1431,-3.1189,-3.0054,0.0,0.0,0.0,0.0,0.0,0.0,0.0,0.0,0.0,0.0,0.0,-3.1228,-3.2248,-3.2886,-3.2448,-3.2612,-3.2727,-3.2727,-3.2313,-3.1526,-3.0305,-2.929,-2.7574,0.0,0.0,0.0,0.0,0.0,0.0,0.0,0.0,0.0,0.0,0.0,0.0,0.0,0.0,0.0,0.0,0.0,0.0,0.0,0.0,0.0,0.0,0.0,0.0,0.0,0.0,0.0,0.0,0.0,0.0,0.0,0.0,-2.5806,-2.7033,0.0,0.0,0.0,0.0,0.0,0.0,0.0,0.0,0.0,0.0,0.0,0.0,0.0,-1.9932,-2.0653,-2.1435,-2.2242,-2.2835,-2.3505,-2.3808,-2.3881,-2.3588,-2.3676,-2.4027,-2.4188,0.0,-2.3936,-2.489,0.0,0.0,0.0,0.0,0.0,0.0,0.0,0.0,0.0,0.0,0.0,0.0,0.0,0.0,0.0,0.0,0.0,0.0,0.0,0.0,0.0,0.0,-3.2089,-3.1672,-3.1896,-3.2044,-3.186,-3.0504,-2.9145,-2.8628,-2.8193,-2.7655,0.0,0.0,0.0,0.0,0.0,0.0,-3.3291,-3.3476,-3.3713,-3.4118,-3.3233,-3.2727,-3.2727,-3.2313,-3.1795,-3.1236,-2.9953,-2.8329,-2.631,-2.4449,0.0,0.0,0.0,0.0,0.0,0.0,0.0,0.0,0.0,0.0,0.0,0.0,0.0,0.0,0.0,0.0,0.0,0.0,0.0,0.0,0.0,0.0,0.0,0.0,0.0,0.0,0.0,0.0,0.0,-2.4463,-2.5663,-2.5692,-2.5985,-2.5815,0.0,0.0,0.0,0.0,0.0,0.0,0.0,0.0,0.0,-2.0356,-2.0506,-2.0944,-2.1724,-2.2201,-2.3049,-2.4137,-2.4509,-2.4818,-2.5169,-2.5022,-2.5037,-2.5183,-2.5315,-2.5301,-2.5246,-2.6599,-2.7202,-2.74,0.0,0.0,0.0,0.0,-3.0234,-2.9746,-3.043,-3.0781,-3.0918,-3.0723,0.0,0.0,0.0,0.0,0.0,0.0,0.0,-3.1132,-3.1054,-3.188,-3.2595,-3.2535,-3.2914,-3.3153,-3.3153,-3.1977,-3.086,-3.024,-2.9064,-2.7996,-2.7779,-2.7806,0.0,0.0,0.0,-3.2539,-3.36,-3.3714,-3.3907,-3.4427,-3.3388,-3.2727,-3.2727,-3.254,-3.223,-3.1774,-3.0698,-2.9456,-2.8127,-2.5614,-2.3688,0.0,0.0,0.0,0.0,0.0,0.0,0.0,0.0,0.0,0.0,0.0,0.0,0.0,0.0,0.0,0.0,0.0,0.0,0.0,0.0,0.0,0.0,0.0,0.0,0.0,0.0,0.0,0.0,-2.5546,-2.5791,-2.4977,-2.5827,-2.61,0.0,0.0,0.0,0.0,0.0,0.0,-2.3126,-2.2318,-2.1847,-2.1867,-2.1908,-2.2351,-2.3112,-2.3238,-2.3898,-2.5221,-2.528,-2.5549,-2.6018,-2.6018,-2.6018,-2.6018,-2.6105,-2.6091,-2.6084,-2.8047,-2.8452,-2.8213,-3.0634,-3.1211,-3.0605,-3.1269,-3.1094,-3.0644,-3.1426,-3.1758,-3.1836,-3.1719,-3.1406,-3.0996,-3.0762,0.0,0.0,0.0,0.0,-3.1465,-3.1894,-3.2489,-3.3089,-3.3877,-3.4144,-3.4309,-3.4432,-3.3717,-3.2834,-3.1849,-3.011,-2.8922,-2.8755,-2.8507,0.0,-2.9806,-3.1412,-3.3124,-3.463,-3.4481,-3.4388,-3.4891,-3.3593,-3.2727,-3.2727,-3.2727,-3.2582,-3.223,-3.1464,-3.0615,-2.9704,-2.6795,-2.4785,-2.3754,0.0,0.0,0.0,0.0,0.0,0.0,0.0,0.0,0.0,0.0,0.0,0.0,0.0,0.0,0.0,0.0,0.0,0.0,0.0,0.0,0.0,0.0,0.0,0.0,0.0,0.0,0.0,0.0,0.0,-2.7142,-2.8272,0.0,0.0,0.0,0.0,-2.7216,-2.7142,-2.6363,-2.4643,-2.4785,-2.4563,-2.3465,-2.4066,-2.4553,-2.4896,-2.5197,-2.5509,-2.5988,-2.5974,-2.5988,-2.6018,-2.6018,-2.6018,-2.6032,-2.6339,-2.631,-2.6129,-2.8587,-2.9389,-2.9206,-3.1294,-3.1855,-3.1445,-3.1504,-3.1484,-3.1523,-3.1973,-3.2402,-3.2656,-3.2266,-3.1836,-3.1562,-3.1953,-3.1777,0.0,0.0,-3.2363,-3.2793,-3.3223,-3.334,-3.3836,-3.5496,-3.577,-3.5848,-3.6215,-3.5614,-3.4445,-3.2486,-3.1431,-3.0499,-2.9394,0.0,-2.9806,-3.1449,-3.2614,-3.4327,-3.7418,-3.6288,-3.5566,-3.6031,-3.4022,-3.2727,-3.2727,-3.2727,-3.2727,-3.2706,-3.225,-3.1567,-3.0657,-2.8076,-2.5903,-2.4295,-2.1727,0.0,0.0,0.0,0.0,0.0,0.0,0.0,0.0,0.0,0.0,0.0,0.0,0.0,0.0,0.0,0.0,0.0,0.0,0.0,0.0,0.0,0.0,0.0,0.0,0.0,0.0,0.0,0.0,-2.6661,-2.7852,0.0,-2.6766,-2.884,-2.9945,-2.9182,-2.8119,-2.7211,-2.6867,-2.572,-2.4951,-2.4452,-2.4896,-2.5214,-2.5439,-2.5456,-2.5898,-2.6648,-2.6386,-2.6544,-2.6954,-2.6735,-2.6866,-2.7261,-2.7174,-2.7188,-2.7379,-3.0168,-3.0617,-3.0217,-3.2857,-3.3535,-3.3164,-3.3164,-3.3164,-3.3184,-3.334,-3.3496,-3.3496,-3.2793,-3.2461,-3.2324,-3.2207,-3.2246,-3.2363,-3.2519,-3.2871,-3.3301,-3.373,-3.3633,-3.3662,-3.4585,-3.5228,-3.5376,-3.4652,-3.5005,-3.5181,-3.3902,-3.2438,-3.1298,-3.1045,-3.1071,-3.1529,-3.2969,-3.436,-3.5968,-3.8241,-3.7011,-3.6002,-3.6162,-3.4134,-3.2727,-3.2727,-3.2996,-3.3037,-3.2747,-3.2582,-3.2209,-3.1588,-2.8584,-2.6608,-2.5885,-2.2938,-2.1464,0.0,0.0,0.0,0.0,0.0,0.0,0.0,0.0,0.0,0.0,0.0,0.0,0.0,0.0,0.0,0.0,0.0,0.0,0.0,0.0,0.0,0.0,0.0,0.0,0.0,0.0,-2.7748,-2.7586,-2.899,-2.948,-2.8078,-3.0381,-3.1836,-3.1523,-3.0408,-2.9492,-2.8854,-2.7643,-2.6633,-2.5722,-2.6055,-2.633,-2.6552,-2.6445,-2.6546,-2.7179,-2.7056,-2.7217,-2.7627,-2.7408,-2.7539,-2.7934,-2.773,-2.7759,-2.8071,-3.1055,-3.1816,-3.1375,-3.4012,-3.4766,-3.4492,-3.4336,-3.4277,-3.4277,-3.4277,-3.4199,-3.3984,-3.3418,-3.3125,-3.2949,-3.2676,-3.2793,-3.3008,-3.3008,-3.3203,-3.3555,-3.4141,-3.3965,-3.3877,-3.4803,-3.5684,-3.6037,-3.5046,-3.6215,-3.6946,-3.552,-3.3714,-3.2547,-3.2633,-3.2727,-3.3226,-3.4767,-3.5956,-3.7449,-3.9411,-3.7917,-3.6645,-3.6461,-3.4372,-3.2892,-3.2747,-3.2996,-3.2839,-3.193,-3.1767,-3.1288,-3.0238,-2.7603,-2.6009,-2.5486,-2.2828,-2.1561,-2.1661,0.0,0.0,0.0,0.0,0.0,0.0,0.0,0.0,0.0,0.0,0.0,0.0,0.0,0.0,0.0,0.0,0.0,0.0,0.0,0.0,0.0,0.0,0.0,-2.9401,-2.9968,-3.0336,-2.9831,-3.1744,-3.2588,-3.1138,-3.2867,-3.4141,-3.4141,-3.4121,-3.3086,-3.0666,-3.0772,-2.9748,-2.7129,-2.7467,-2.7642,-2.7964,-2.7949,-2.7949,-2.7964,-2.7949,-2.7949,-2.7964,-2.7949,-2.7964,-2.7978,-2.7964,-2.7964,-2.8265,-3.1334,-3.2638,-3.2826,-3.4652,-3.543,-3.5371,-3.4902,-3.4726,-3.4726,-3.4726,-3.4453,-3.4121,-3.4101,-3.3809,-3.3457,-3.3457,-3.3457,-3.3457,-3.3457,-3.3457,-3.3652,-3.4492,-3.4394,-3.4566,-3.6275,-3.7254,-3.7876,-3.7802,-3.9003,-3.9615,-3.7352,-3.5554,-3.4389,-3.4176,-3.4093,-3.4752,-3.6723,-3.7425,0.0,-4.0923,-3.9205,-3.754,-3.7012,-3.4848,-3.3223,-3.2789,-3.2747,-3.2064,-3.0423,-2.999,-2.8939,-2.6809,-2.5289,-2.4067,-2.3203,-2.1374,-2.0868,-2.1569,0.0,0.0,0.0,0.0,0.0,0.0,0.0,0.0,0.0,0.0,0.0,0.0,0.0,0.0,0.0,0.0,0.0,0.0,0.0,0.0,0.0,0.0,-3.0294,-3.073,-3.0002,-3.01,-3.1943,-3.2289,-3.2158,-3.1739,-3.4284,-3.5394,-3.3848,-3.355,-3.3415,-3.2983,-3.2001,-3.0676,-2.9195,-2.9392,-2.9152,-2.83,-2.8066,-2.8066,-2.83,-2.8066,-2.8081,-2.83,-2.9228,-2.9984,-3.0283,-3.0186,-3.0066,-3.0436,-3.0926,-3.1861,-3.3241,-3.5406,-3.6328,-3.623,-3.5488,-3.5195,-3.5195,-3.5195,-3.5137,-3.498,-3.4648,-3.4453,-3.4355,-3.4355,-3.4355,-3.4355,-3.4355,-3.4355,-3.4473,-3.5059,-3.4648,-3.4387,-3.5547,-3.6874,-3.7718,-3.6745,-3.8564,-3.9675,-3.7054,-3.7101,-3.6981,-3.4993,-3.4838,-3.5365,-3.6516,-3.7901,-3.9243,-4.0386,-3.9278,-3.8045,-3.754,-3.5345,-3.3699,-3.3244,-3.3203,-3.2612,-3.1166,-3.0278,-2.9434,-2.8757,-2.617,-2.4275,-2.3261,-2.2494,-2.2308,0.0,0.0,0.0,0.0,0.0,0.0,0.0,0.0,0.0,0.0,0.0,0.0,0.0,0.0,0.0,0.0,0.0,0.0,0.0,0.0,0.0,0.0,-3.0578,-3.1716,-3.2296,-3.179,-3.1824,-3.3148,-3.3684,-3.3855,-3.3303,-3.5492,-3.6398,-3.5293,-3.4473,-3.4018,-3.4379,-3.2967,-3.1565,-3.0335,-3.041,-2.9942,-2.8622,-2.8447,-2.8447,-2.8622,-2.8432,-2.8447,-2.8622,-3.0081,-3.095,-3.1331,-3.1125,-3.1141,-3.1315,-3.1125,-3.1939,-3.3489,0.0,0.0,0.0,0.0,-3.5918,-3.5898,-3.5723,-3.5547,-3.5351,-3.5078,-3.4863,-3.4707,-3.4707,-3.4707,-3.4707,-3.4707,-3.4707,-3.4805,-3.5273,-3.5019,-3.4746,-3.5273,-3.6867,-3.8,-3.7061,-3.8949,-4.0434,-3.8335,-3.8862,0.0,-3.6959,-3.6431,-3.6396,-3.6818,-3.8208,-3.9593,-4.0554,-3.9591,-3.8573,-3.8068,-3.567,-3.3886,-3.341,-3.3203,0.0,0.0,0.0,-2.8784,-2.7157,-2.5177,0.0,0.0,0.0,-2.3457,-2.4085,-2.3633,0.0,0.0,-2.6758,-2.807,0.0,0.0,0.0,0.0,0.0,0.0,0.0,0.0,0.0,0.0,0.0,0.0,0.0,0.0,0.0,0.0,-3.1998,-3.3315,-3.4087,-3.4595,-3.4604,-3.402,-3.5477,-3.6055,-3.5207,-3.657,-3.7441,-3.7158,-3.5781,-3.5045,-3.5082,0.0,0.0,0.0,0.0,-3.0267,-2.8886,-2.8886,-2.8886,-2.8886,-2.8886,-2.8886,-2.8886,-3.0763,-3.167,-3.1638,-3.1872,-3.1856,-3.1485,-3.1427,-3.2332,-3.3885,-3.4903,-3.6029,-3.7246,-3.6875,-3.6719,-3.6621,-3.623,0.0,0.0,-3.5469,-3.5176,-3.4844,-3.4844,-3.4844,-3.4844,-3.4844,-3.4844,-3.4941,-3.5351,-3.543,-3.541,-3.5449,-3.7156,-3.8559,-3.8146,-4.0006,-4.148,-4.0526,-4.0666,-4.0574,-3.9426,-3.8171,-3.7309,-3.7309,-3.8387,-3.9569,-4.0755,-4.0036,-3.9173,-3.8596,-3.6069,0.0,-3.3492,-3.3058,-3.1921,-2.9925,-2.938,-2.7536,-2.4067,-2.3493,-2.351,-2.3853,-2.3819,-2.4404,-2.5436,-2.5017,-2.5417,-2.6538,-2.6987,-2.8228,0.0,0.0,0.0,0.0,0.0,0.0,0.0,0.0,0.0,0.0,0.0,0.0,0.0,0.0,0.0,-3.1822,-3.2874,-3.3957,-3.527,-3.5697,-3.5821,-3.6051,-3.5614,-3.5425,-3.587,-3.7429,-3.7866,-3.6532,-3.5778,-3.5577,-3.5907,-3.4127,-3.2509,-3.122,-3.1236,-3.05,-2.8886,-2.8886,-2.8886,-2.8886,0.0,0.0,-2.9056,-3.222,-3.3568,-3.3331,-3.5457,-3.5064,-3.3196,-3.256,-3.2937,-3.428,-3.6492,-3.7294,-3.7285,-3.7207,-3.6953,-3.666,-3.6582,-3.6269,-3.5898,-3.5898,-3.584,-3.5762,-3.5762,-3.5762,0.0,-3.5762,-3.5762,-3.5781,-3.5879,-3.5644,-3.5488,-3.582,-3.7612,-3.9274,-3.9082,-4.1245,-4.2688,-4.1117,-4.2016,-4.2396,-4.0264,-3.8395,-3.7309,-3.7309,-3.8387,-3.9334,-3.9569,-4.0268,-4.0361,-3.9196,-3.7688,-3.5982,-3.4129,-3.3513,-3.2592,-3.1113,-3.0028,-2.8014,-2.5241,-2.5583,-2.552,-2.5035,-2.4616,-2.4981,-2.5839,-2.5733,-2.6138,-2.6979,-2.741,-2.8219,0.0,0.0,0.0,0.0,0.0,0.0,0.0,0.0,0.0,0.0,0.0,-2.8086,0.0,0.0,-3.1849,-3.3191,-3.4411,-3.5483,-3.6423,-3.6869,-3.676,-3.5914,-3.619,-3.645,-3.6533,-3.7035,-3.7145,-3.6588,-3.4584,-3.3845,-3.4936,-3.3297,-3.2178,-3.1601,-3.1601,-3.0918,-2.9369,-2.9047,-2.9047,-2.9383,-2.9208,-2.9222,-2.9542,-3.3109,-3.4487,-3.4487,-3.6561,-3.6831,-3.5557,-3.426,-3.3999,-3.4693,-3.6552,-3.7556,-3.791,-3.7695,-3.748,-3.7266,-3.7051,-3.6836,-3.6621,-3.6406,-3.6484,-3.6621,-3.6406,-3.6484,-3.6621,-3.6406,-3.6348,-3.6289,-3.6074,-3.5859,-3.5762,-3.6228,-3.736,-3.868,-3.9704,-4.1159,-4.2447,-4.2565,-4.3277,-4.361,-4.2445,-4.1093,-3.9613,-3.8275,-3.8904,-3.9607,-3.9607,-4.0433,-4.0616,-3.9334,-3.7807,-3.6307,-3.4565,-3.3575,-3.2664,-3.1774,-3.0338,-2.8633,-2.6626,-2.6654,-2.6342,-2.5634,-2.5501,-2.598,-2.6866,-2.6664,-2.6883,-2.7506,-2.7939,-2.868,0.0,0.0,0.0,0.0,0.0,0.0,0.0,0.0,-2.6388,-2.816,-2.8874,-2.9722,-3.1005,-3.2219,-3.3479,-3.4677,-3.5889,-3.6917,-3.7469,-3.7996,-3.7868,-3.6018,-3.7163,-3.7953,-3.7446,-3.6775,-3.6588,-3.6994,-3.3533,-3.2001,-3.3348,-3.2103,-3.1496,-3.1496,-3.1496,-3.0974,-2.9764,-2.931,-2.931,-2.9764,-2.9573,-2.9762,-3.0495,-3.3536,-3.5106,-3.5487,-3.6895,-3.7448,-3.7113,-3.5331,-3.4671,-3.5106,-3.6047,-3.7315,-3.8652,-3.8301,-3.8066,-3.7891,-3.7637,-3.7441,-3.7246,-3.6894,-3.7031,-3.7226,-3.6894,-3.6973,-3.7129,-3.6875,-3.6738,-3.6582,-3.623,-3.6152,-3.625,-3.6403,-3.7044,-3.8073,-3.9836,-4.0933,-4.2107,-4.3619,-4.4308,-4.4593,-4.4703,-4.3786,-4.2302,-3.9893,-4.0144,-4.0495,-4.0495,-4.1115,-4.1014,-3.9495,-3.7977,-3.6438,-3.4752,-3.3534,-3.2664,-3.2209,-3.0902,-2.9653,-2.8387,-2.7604,-2.7044,-2.6464,-2.6329,-2.6768,-2.7893,-2.7563,-2.7581,-2.7893,-2.8315,-2.8953,-2.3085,-2.3784,-2.4805,-2.584,-2.6211,-2.6894,0.0,0.0,-2.8976,-3.0917,-3.1747,-3.2423,-3.354,-3.4176,-3.5107,-3.6887,-3.6712,-3.6881,-3.8595,-3.8928,-3.909,-3.9246,-3.9129,-3.9126,-3.9416,-3.8082,-3.7314,-3.7685,-3.4294,-3.2269,-3.2427,-3.09,-3.0129,-3.0129,-3.0129,-2.9836,-2.9427,-2.9647,-2.9647,-2.9427,-2.969,-3.061,-3.2237,-3.4434,-3.6113,-3.7184,-3.7356,-3.6982,-3.6,-3.3918,-3.3947,-3.5202,-3.5484,-3.7049,-3.9121,-3.9082,-3.8574,-3.7969,-3.832,-3.793,-3.7285,-3.7246,-3.7266,-3.7285,-3.7246,-3.6992,-3.6816,-3.7148,-3.6953,-3.666,-3.6621,-3.6878,-3.6897,-3.6618,-3.7801,-3.9082,-3.9213,-4.1347,-4.3074,-4.2994,-4.4427,-4.559,-4.5472,-4.4645,-4.377,-4.2472,-4.2401,-4.2496,-4.2496,-4.3094,-4.2634,-4.0121,-3.9327,-3.7606,-3.4456,-3.3617,-3.312,-3.2685,-3.2488,-3.1741,-3.0568,-2.9263,-2.8674,-2.8555,-2.7116,-2.6959,-2.8333,-2.8278,-2.8278,-2.8333,-2.8737,-2.8818,-2.5451,-2.5817,-2.6113,0.0,-2.7695,-2.8516,-2.959,-2.9551,-2.978,-3.1327,-3.2495,-3.3397,-3.3821,-3.5458,-3.6908,0.0,-3.7872,-3.8479,-3.9507,-3.9675,-3.982,-4.0126,-4.0371,-4.0532,-4.0572,-3.9082,-3.7611,-3.6515,-3.4222,-3.2221,-3.0976,-3.0528,-3.0144,-3.0144,-3.0144,-3.0173,-3.0217,-2.9983,-2.9983,-3.0217,-3.1118,-3.2165,-3.3161,-3.6005,-3.8218,-3.9662,-3.9662,-3.89,-3.7419,-3.5502,-3.5755,-3.7169,-3.5849,-3.7149,-3.957,-3.9297,-3.8828,-3.832,-3.8516,-3.834,-3.8008,-3.7754,-3.7832,-3.7988,-3.7734,-3.7715,-3.7773,-3.7676,-3.7681,-3.7645,-3.7389,-3.7411,-3.7646,-3.7843,-3.7983,-3.8325,-3.9905,-4.078,-4.1647,-4.3346,-4.4376,-4.5208,-4.588,-4.5643,-4.5377,-4.4932,-4.3843,-4.3144,-4.3144,-4.2895,-4.1633,-3.8702,-3.7561,-3.6239,-3.4253,-3.3886,-3.3596,-3.3141,-3.2871,-3.2357,-3.1662,-3.0603,-2.9979,-3.0087,-2.841,-2.8228,-2.954,-2.8732,-2.8517,-2.8737,-2.8902,-2.8902,-2.7036,0.0,0.0,-2.7988,-2.9238,-3.0351,-3.0586,-3.0723,-3.1231,-3.243,-3.351,-3.4652,-3.55,-3.6949,-3.8138,-3.8555,-3.8937,-3.9413,-4.0137,-4.022,-4.0306,-4.0576,-4.1338,-4.1688,-4.1305,-3.9824,-3.8288,-3.6839,-3.4666,-3.2634,-3.1073,-3.0662,-3.0481,-3.0481,-3.0481,-3.0554,-3.07,-3.0795,-3.1121,-3.1332,-3.2949,-3.4131,-3.488,-3.7932,-4.0021,-4.1172,-4.1172,-4.0197,-3.8566,-3.7277,-3.7436,-3.8371,-3.6817,-3.7906,-4.0019,-3.9687,-3.9219,-3.875,-3.875,-3.875,-3.8672,-3.8242,-3.832,-3.8516,-3.8203,-3.8242,-3.8359,-3.8308,-3.8314,-3.8442,-3.8266,-3.8147,-3.8259,-3.8738,-3.8051,-3.7965,-3.9747,-3.9929,-4.0559,-4.3232,-4.4003,-4.4767,-4.6059,-4.6301,-4.6301,-4.6301,-4.5083,-4.4208,-4.4208,-4.264,-4.0644,-3.8096,-3.6359,-3.5045,-3.4155,-3.4072,-3.3865,-3.341,-3.3078,-3.2895,-3.2795,-3.186,-3.1329,-3.1388,-2.9498,-2.9119,-3.0026,-2.8946,-2.8535,-2.8828,-2.8672,-2.8541,0.0,0.0,-2.7422,-2.9101,-3.082,-3.2305,-3.3125,-3.3633,-3.432,-3.544,-3.569,-3.6603,-3.952,-3.8633,-3.845,-4.1082,-3.9672,-3.8688,-4.0054,-4.022,-4.0551,-4.1441,-4.1959,-4.2062,0.0,-4.0354,-3.9759,-4.0162,-3.639,-3.4002,-3.3839,-3.1933,-3.0803,-3.0803,-3.0803,-3.0671,-3.0364,-3.2273,-3.3075,-3.292,-3.4842,-3.678,-3.8566,-4.0353,-4.1172,-4.1172,-4.1172,-4.0197,-3.8566,-3.8566,-3.8566,-3.8566,-3.8548,-3.9268,-4.0508,-4.0488,-3.9922,-3.918,-3.918,-3.918,-3.9121,-3.8691,-3.8555,-3.8574,-3.8555,-3.8262,-3.8027,-3.8892,-3.8858,-3.8644,-3.8908,-3.9009,-3.8861,-3.8412,-3.8253,-3.8191,-3.8325,-3.9341,-4.0581,-4.1947,-4.3357,-4.4767,-4.6059,-4.6301,-4.6301,-4.6301,-4.6301,-4.6155,-4.6155,-4.307,-4.0439,-3.9331,-3.6846,-3.5045,-3.4155,-3.4072,-3.3865,-3.341,-3.3368,-3.3575,-3.4051,-3.3155,-3.2494,-3.2153,-3.0334,-2.9351,-2.9029,-2.8648,-2.8407,-2.8425,-2.7852,-2.7569,0.0,0.0,-2.9551,-3.1269,-3.2363,-3.3223,-3.4082,-3.3945,-3.3975,-3.5221,-3.516,-3.522,-3.6498,-3.7207,-3.7764,-3.875,-3.9208,-3.9806,-4.0551,-4.0924,-4.111,-4.111,-4.1793,0.0,0.0,0.0,0.0,-3.9605,-3.7747,-3.5799,-3.4034,-3.2278,-3.115,-3.0832,-3.0817,-3.1526,-3.2778,-3.3164,-3.4131,-3.5355,-3.701,-3.8566,-4.0353,-4.0997,-4.1172,-4.1172,-4.1172,-4.0841,-4.0197,-3.9059,-3.9216,-4.0197,-3.904,-3.9443,-4.0527,-4.0527,-4.0484,-4.0472,-4.0196,-3.9751,-3.918,-3.9338,-3.9101,-3.8574,-3.8574,-3.8622,-3.8833,-3.9136,-3.949,-3.9656,-3.98,-3.99,-3.9894,-4.0018,-3.9481,-3.9164,-3.9475,-4.0103,-4.1066,-4.2472,-4.3593,-4.4767,-4.6059,-4.6301,-4.6301,-4.6301,-4.6301,-4.5935,-4.4669,-4.237,-4.0334,-3.8707,-3.6673,-3.5169,-3.4569,-3.4238,-3.3989,-3.3844,-3.3555,-3.3692,-3.4386,-3.4051,-3.3734,-3.3388,-3.2207,-3.1077,-2.9976,-2.9144,-2.8688,-2.8407,-2.7486,-2.7224,0.0,-3.0596,-3.1191,-3.2812,-3.3691,-3.4277,-3.4824,-3.4629,-3.4603,-3.552,-3.516,-3.4956,-3.6102,-3.6748,-3.712,-3.7741,-3.8653,-3.9454,-4.0054,-4.0406,-4.0737,-4.1089,-4.1648,-4.1897,0.0,0.0,0.0,-4.0492,-3.8943,-3.7099,-3.5477,-3.3101,-3.1662,-3.1331,-3.1813,-3.2462,-3.3286,-3.4703,-3.6482,-3.8509,-3.9393,-4.0173,-4.1172,-4.1172,-4.1172,-4.1172,-4.1172,-4.1327,-4.1327,-4.0178,-4.049,-4.1463,-4.0471,-4.0472,-4.1203,-4.1203,-4.1356,-4.141,-4.0682,-4.0385,-4.0077,-4.0236,-3.975,-3.9101,-3.9248,-3.9294,-3.9176,-3.9465,-3.9878,-4.031,-4.0453,-4.0409,-4.0303,-4.0572,-4.0075,-3.962,-3.9909,-4.0183,-4.093,-4.2867,-4.3485,-4.4415,-4.6213,-4.6451,-4.6301,-4.6301,-4.6301,-4.586,-4.4448,-4.2663,-4.0889,-3.9075,-3.7126,-3.5701,-3.4918,-3.4486,-3.4238,-3.4072,-3.4066,-3.4226,-3.4756,-3.5036,-3.4827,-3.4232,-3.317,-3.187,-3.0178,-2.9186,-2.837,-2.7552,-2.6745,-2.6372,-3.0976,-3.2098,-3.2554,-3.3858,-3.4766,-3.5391,-3.541,-3.5684,-3.6071,-3.6323,-3.565,-3.5742,0.0,0.0,-3.6561,-3.7906,-3.7806,-3.7902,-3.8792,-3.8978,-3.9661,0.0,0.0,0.0,0.0,0.0,0.0,-4.289,0.0,-3.7896,-3.7932,-3.4441,-3.237,-3.222,-3.3508,-3.3502,-3.2357,-3.6955,-4.0226,-4.1836,-4.1816,-4.1582,-4.1211,-4.1191,-4.1172,-4.1172,-4.1172,-4.1483,-4.1773,-4.1753,-4.2042,-4.233,-4.233,-4.233,-4.235,-4.237,-4.237,-4.2249,-4.1123,-4.1083,-4.1625,-4.1203,-4.0632,-3.9977,-4.0211,-3.9931,-3.9485,-4.0187,-4.031,-4.0453,-4.0882,-4.0572,-4.0261,-4.0261,-3.993,-3.9599,-3.9599,-3.9716,-4.0477,-4.3235,-4.3349,-4.4055,-4.6613,-4.6702,-4.6351,-4.6326,-4.6301,-4.6125,-4.5598,-4.3909,-4.2138,-4.0186,-3.8439,-3.6652,-3.4939,-3.4755,-3.4548,-3.4134,-3.4706,-3.5155,-3.5155,-3.5776,-3.5703,-3.4733,-3.3247,-3.1657,-2.9755,-2.8906,-2.7752,-2.6202,-2.5617,-2.494,-3.2634,-3.4285,-3.4979,-3.5611,-3.5858,-3.585,-3.6166,-3.5574,-3.5391,-3.6867,-3.5417,-3.4489,0.0,0.0,0.0,-3.654,-3.7999,0.0,-3.9806,-4.0758,0.0,-4.1545,0.0,-4.2435,-4.2104,-4.2497,0.0,0.0,-3.9759,-3.8049,-3.8311,-3.6242,-3.4435,-3.3076,-3.4207,-3.5524,-3.6896,-4.0417,-4.2094,-4.2266,-4.1953,-4.1738,-4.1621,-4.1308,-4.1327,-4.1618,-4.1618,-4.1927,-4.2196,-4.1875,-4.1755,-4.1907,-4.1907,-4.1907,-4.1947,-4.2249,-4.2544,-4.281,-4.2434,-4.2059,-4.1625,-4.1502,-4.113,-4.0612,-4.0076,-4.1028,-4.1994,-4.0679,-4.1289,-4.2138,-4.1147,-4.08,-4.0717,-4.0717,-4.0613,-4.053,-4.053,-4.1891,-4.3377,-4.4024,-4.5467,-4.666,-4.7082,-4.7029,-4.6778,-4.6376,-4.6301,-4.625,-4.6125,-4.4154,-4.2281,-4.0791,-3.864,-3.6781,-3.5375,-3.4631,-3.4341,-3.4569,-3.4289,-3.4211,-3.4562,-3.5253,-3.5172,-3.4074,-3.3703,-3.2205,-2.9755,-2.9769,-2.8597,-2.6219,-2.5875,-2.462,-3.4104,-3.5428,-3.6172,-3.6556,-3.6563,-3.635,-3.5746,-3.5111,-3.4672,-3.5129,-3.4104,0.0,-3.4031,-3.4715,0.0,0.0,0.0,0.0,-3.9537,-4.0448,-4.1193,0.0,-4.2373,0.0,-4.229,-4.2849,-4.3304,0.0,-4.1151,-3.9625,-3.9917,-3.7678,-3.6091,-3.4983,-3.6292,-3.8128,-4.0694,-4.1744,-4.2212,-4.2422,-4.2187,-4.2033,-4.1817,-4.1581,-4.1618,-4.2062,-4.2062,-4.2236,-4.2657,-4.2211,-4.215,-4.2464,-4.2261,-4.2302,-4.2505,-4.2902,-4.3004,-4.331,-4.331,-4.2993,-4.2575,-4.2481,-4.2126,-4.1522,-4.0959,-4.1916,-4.2978,-4.1841,-4.2257,-4.2958,-4.2138,-4.1431,-4.0882,-4.0882,-4.0882,-4.0882,-4.0882,-4.244,-4.4098,-4.5209,-4.6907,-4.8033,-4.7255,-4.7129,-4.6954,-4.6401,-4.6301,-4.6301,-4.6301,-4.4705,-4.2925,-4.1074,-3.9213,-3.7429,-3.5541,-3.4962,-3.4693,-3.4755,-3.4945,-3.4825,-3.4657,-3.5337,-3.5359,-3.4425,-3.401,-3.2636,-3.0339,-3.0379,-2.8766,-2.5616,-2.5641,-2.4042,-3.5306,-3.6254,-3.6656,-3.7165,-3.7173,-3.6656,-3.5131,-3.4624,-3.4173,-3.293,0.0,-3.2438,-3.2301,-3.3589,-3.4465,-3.3844,0.0,-3.786,-3.8874,-3.9413,-4.0199,-4.1503,-4.2414,-4.2828,-4.2559,-4.3242,-4.3905,-4.436,-4.3154,-4.2211,-4.2053,-3.9467,-3.8058,-3.7927,-3.9084,-4.0908,-4.345,-4.2156,-4.182,-4.2598,-4.2539,-4.2447,-4.203,-4.2067,-4.2162,-4.2604,-4.2564,-4.2697,-4.2984,-4.2514,-4.2858,-4.3491,-4.3077,-4.3159,-4.3532,-4.3594,-4.3615,-4.3615,-4.3615,-4.3615,-4.3594,-4.347,-4.307,-4.2399,-4.2249,-4.281,-4.3545,-4.3228,-4.3375,-4.3653,-4.3375,-4.2257,-4.1167,-4.123,-4.1067,-4.1025,-4.123,-4.2581,-4.4323,-4.6562,-4.8071,-4.856,-4.7531,-4.7355,-4.7154,-4.6527,-4.6426,-4.6401,-4.6326,-4.5321,-4.3777,-4.1462,-3.9933,-3.8268,-3.589,-3.5479,-3.519,-3.4859,-3.5718,-3.577,-3.5125,-3.5626,-3.5714,-3.5212,-3.4338,-3.2976,-3.1164,-3.0598,-2.8547,-2.5138,-2.5014,-2.3159,-3.6582,-3.746,-3.7852,-3.8017,-3.7483,-3.6668,-3.5692,-3.4774,0.0,0.0,-3.3131,-3.2778,-3.3418,-3.3874,-3.4507,-3.548,0.0,0.0,0.0,0.0,-4.1027,0.0,-4.26,-4.3201,-4.3884,-4.4091,0.0,0.0,-4.4893,-4.444,-4.2954,-4.2345,-4.2048,-4.1876,-4.2245,-4.2137,-4.2027,-4.3137,-4.3613,-4.3476,-4.345,-4.3517,-4.3339,-4.3098,-4.3089,-4.34,-4.3013,-4.3157,-4.3421,-4.2967,-4.2823,-4.3035,-4.2952,-4.2973,-4.3077,-4.347,-4.3615,-4.3615,-4.3615,-4.3615,-4.3491,-4.2745,-4.2683,-4.2555,-4.1483,-4.3111,-4.5067,-4.3507,-4.4846,-4.6335,-4.5119,-4.3769,-4.2786,-4.3175,-4.2131,-4.1393,-4.2892,-4.5119,-4.7136,-4.8794,-4.9311,-4.9238,-4.8611,-4.8485,-4.8134,-4.7154,-4.7004,-4.6828,-4.6376,-4.5321,-4.4011,-4.2568,-4.055,-3.8625,-3.7067,-3.5676,-3.5004,-3.5293,-3.5035,-3.51,-3.5572,-3.5564,-3.5483,-3.5212,-3.4666,-3.3487,-3.1626,-3.0684,-2.8814,-2.61,-2.4281,-2.1849,-3.682,-3.7467,-3.7881,-3.8129,-3.7707,-3.6794,-3.5066,0.0,0.0,0.0,-3.1574,-3.1567,-3.2102,-3.3077,0.0,0.0,0.0,0.0,0.0,0.0,0.0,-4.1793,-4.2725,-4.3366,0.0,-4.4029,-4.4505,-4.496,-4.5209,-4.5098,-4.4502,-4.3731,-4.3437,-4.3283,-4.3156,-4.3176,-4.3672,-4.4186,-4.4087,-4.3687,-4.349,-4.3435,-4.366,-4.3178,-4.3366,-4.3968,-4.3515,-4.3462,-4.3573,-4.3118,-4.3056,-4.3263,-4.3014,-4.3056,-4.3304,-4.3532,-4.3615,-4.3615,-4.3615,-4.3615,-4.3491,-4.2828,-4.2911,-4.3077,-4.1938,-4.3279,-4.5028,-4.4699,-4.5668,-4.6805,-4.7087,-4.5989,-4.4492,-4.4035,-4.2883,-4.2526,-4.4509,-4.6145,-4.7821,-4.9332,-4.959,-4.9414,-4.8862,-4.8761,-4.841,-4.7305,-4.7129,-4.6928,-4.6376,-4.5321,-4.4153,-4.295,-4.0669,-3.8744,-3.7429,-3.5924,-3.519,-3.5418,-3.5248,-3.536,-3.5721,-3.5865,-3.5864,-3.5998,-3.5035,-3.398,-3.2892,-3.0774,-2.8584,-2.6367,-2.3868,-2.118,-3.6825,-3.7281,-3.7736,-3.8088,-3.7757,-3.6804,-3.4471,-3.3366,0.0,0.0,-3.0089,-3.0442,-3.0677,0.0,-3.3078,0.0,-3.4962,-3.6597,0.0,0.0,0.0,0.0,-4.2725,0.0,-4.3366,-4.4029,0.0,-4.5105,-4.5229,-4.5436,-4.5809,-4.4824,-4.433,-4.433,-4.3837,-4.435,-4.5719,-4.5046,-4.4355,-4.4017,-4.3712,-4.3838,-4.4119,-4.3695,-4.3922,-4.4422,-4.3967,-4.3698,-4.3594,-4.3325,-4.3428,-4.3718,-4.3366,-4.3449,-4.376,-4.376,-4.376,-4.376,-4.376,-4.376,-4.3677,-4.3221,-4.318,-4.318,-4.2476,-4.344,-4.499,-4.5987,-4.6749,-4.753,-4.9189,-4.8154,-4.6312,-4.4894,-4.4575,-4.4883,-4.6243,-4.7512,-4.8533,-4.9531,-4.9766,-4.959,-4.9038,-4.8937,-4.856,-4.7456,-4.7305,-4.7054,-4.6401,-4.5422,-4.4444,-4.35,-4.1188,-3.9213,-3.779,-3.6688,-3.5934,-3.5562,-3.5831,-3.5953,-3.6167,-3.6324,-3.6578,-3.685,-3.5401,-3.4362,-3.3739,-3.0599,-2.8298,-2.6703,-2.3652,-2.0901,-3.7301,-3.7777,-3.8129,-3.8171,-3.7529,-3.6494,-3.5024,0.0,-3.2262,-3.0926,-3.0657,-3.0677,-3.0677,0.0,0.0,0.0,0.0,-3.4879,0.0,0.0,0.0,-4.2435,0.0,0.0,-4.465,-4.4877,0.0,-4.5581,-4.5995,-4.6244,-4.6285,-4.6165,-4.6023,-4.6023,-4.6003,-4.5861,-4.5719,-4.5535,-4.5352,-4.4822,-4.5311,-4.5454,-4.5555,-4.5448,-4.5333,-4.4898,-4.4443,-4.4008,-4.3635,-4.4029,-4.4194,-4.4236,-4.4194,-4.4194,-4.4236,-4.4236,-4.4236,-4.4236,-4.4236,-4.4236,-4.4174,-4.3698,-4.3014,-4.2373,-4.229,-4.4068,-4.6034,-4.6609,-4.869,-5.0796,-5.098,-4.9989,-4.8392,-4.6958,-4.8006,-4.9054,-4.8899,-4.9891,-5.0838,-5.0444,-5.0343,-5.0167,-4.9615,-4.9515,-4.9138,-4.8008,-4.7832,-4.7481,-4.6451,-4.5773,-4.5397,-4.5279,-4.3061,-4.0905,-3.9144,-3.8331,-3.7369,-3.6164,-3.6039,-3.6583,-3.7593,-3.721,-3.7176,-3.733,-3.587,-3.4693,-3.3739,-2.9851,-2.7785,-2.7447,-2.3333,-2.048,-3.7218,-3.8026,-3.8647,-3.8937,-3.7902,-3.6515,-3.5418,0.0,-3.2002,-3.0905,-3.047,-3.0346,-3.0636,-3.0843,-3.1381,0.0,0.0,0.0,-3.6059,0.0,0.0,0.0,0.0,0.0,0.0,0.0,0.0,0.0,-4.6099,-4.6347,-4.6347,-4.6347,-4.6347,-4.6347,-4.6347,-4.6185,-4.6023,-4.5861,-4.5556,-4.5372,-4.5372,-4.5393,-4.5698,-4.541,-4.5098,-4.4981,-4.4795,-4.4463,-4.407,-4.4526,-4.4712,-4.4712,-4.4712,-4.4712,-4.4691,-4.4401,-4.4484,-4.467,-4.4401,-4.4298,-4.4277,-4.4091,-4.3408,-4.2663,-4.2663,-4.4095,-4.5841,-4.7019,-4.8776,-5.0714,-5.1904,-5.0886,-4.9355,-4.8776,-4.8982,-4.9373,-4.9493,-5.053,-5.1222,-5.0971,-5.0946,-5.077,-5.0193,-5.0092,-4.9715,-4.8586,-4.8134,-4.7631,-4.6903,-4.6024,-4.5497,-4.5497,-4.3688,-4.1805,-4.0255,-3.9199,-3.7859,-3.6247,-3.6121,-3.6311,-3.6976,-3.6806,-3.6988,-3.7811,-3.5725,-3.4634,-3.4524,-2.9725,-2.7419,-2.7541,-2.3271,-2.0561,-3.682,-3.8046,-3.8957,-3.9433,-3.815,-3.6556,0.0,0.0,-3.1774,-3.0864,-3.0325,-3.0203,-3.0832,-3.0787,-3.1034,-3.2133,-3.2434,-3.3099,-3.4714,-3.579,0.0,0.0,0.0,0.0,0.0,0.0,0.0,0.0,-4.6182,-4.6347,-4.6347,-4.6347,-4.6347,-4.6347,-4.6347,-4.6347,-4.6347,-4.6023,-4.5861,-4.5861,-4.5535,-4.5535,-4.5861,-4.5533,-4.5304,-4.5188,-4.5043,-4.4815,-4.4526,-4.4857,-4.5064,-4.5209,-4.5209,-4.5209,-4.5167,-4.4836,-4.4919,-4.5147,-4.4815,-4.4629,-4.4484,-4.4339,-4.376,-4.3118,-4.3697,-4.4759,-4.6401,-4.7975,-4.9602,-5.1141,-5.2529,-5.1916,-5.0767,-5.0767,-5.0474,-5.0352,-5.0888,-5.1544,-5.195,-5.18,-5.1774,-5.1548,-5.0795,-5.067,-5.0293,-4.9188,-4.8661,-4.8109,-4.7255,-4.6451,-4.5924,-4.5748,-4.4635,-4.3096,-4.1252,-4.0005,-3.8656,-3.675,-3.6352,-3.6394,-3.6848,-3.6822,-3.7095,-3.7795,-3.5686,-3.4679,-3.4735,-2.9688,-2.7471,-2.77,-2.389,-2.0508,-3.628,-3.7798,-3.8957,-3.9433,-3.815,-3.6556,0.0,0.0,-3.1774,-3.0864,-3.0325,-3.0287,-3.1381,-3.1084,-3.1144,-3.262,-3.2374,-3.283,-3.5086,-3.5438,0.0,0.0,0.0,0.0,0.0,0.0,0.0,0.0,-4.6347,0.0,-4.6347,-4.6347,-4.6347,-4.6347,-4.6347,-4.6347,-4.6347,-4.6347,-4.6347,-4.6347,-4.6347,-4.6347,-4.6347,-4.6347,-4.6099,-4.5643,-4.5188,-4.5002,-4.4981,-4.5002,-4.5271,-4.5685,-4.5685,-4.5685,-4.5685,-4.5664,-4.5664,-4.5685,-4.5664,-4.5374,-4.4919,-4.4443,-4.3987,-4.3898,-4.5341,-4.6737,-4.8024,-4.9984,-5.1722,-5.2929,-5.2929,-5.2929,-5.2929,-5.2929,-5.2904,-5.3055,-5.3582,-5.3683,-5.3532,-5.3005,-5.2904,-5.2553,-5.1448,-5.1272,-5.0896,-4.9766,-4.959,-4.8987,-4.7355,-4.7129,-4.6903,-4.6351,-4.6301,-4.5122,-4.2155,-4.1278,-4.0014,-3.8051,-3.7082,-3.6939,-3.7763,-3.7609,-3.7463,-3.7233,-3.5779,-3.4754,-3.4143,-2.9833,-2.7836,-2.8186,-2.5158,-2.0592,-3.3937,-3.5529,-3.7094,-3.755,-3.6287,-3.4859,-3.4569,0.0,0.0,-3.0739,-3.0325,-3.0287,-3.1381,-3.0809,-3.0768,-3.2555,-3.2353,-3.2395,-3.343,0.0,0.0,0.0,0.0,0.0,0.0,0.0,0.0,0.0,0.0,-4.6347,-4.6347,-4.6347,-4.6347,-4.6347,-4.6347,-4.6347,-4.6347,-4.6347,-4.6347,-4.6347,-4.6347,-4.6347,-4.6347,-4.6347,-4.5933,-4.5229,-4.5705,-4.5561,-4.5043,-4.5664,-4.5995,-4.614,-4.614,-4.614,-4.6099,-4.5788,-4.6648,-4.7748,-4.7082,-4.676,-4.6545,-4.6072,-4.5599,-4.549,-4.7096,-4.7858,-4.8631,-5.1419,-5.2491,-5.2929,-5.2929,-5.2929,-5.2929,-5.2929,-5.2929,-5.308,-5.3582,-5.3708,-5.3658,-5.3482,-5.3457,-5.3105,-5.2026,-5.185,-5.1599,-5.0845,-5.0092,-4.9414,-4.8887,-4.8134,-4.7581,-4.7431,-4.7079,-4.5991,-4.3699,-4.2949,-4.1498,-3.8678,-3.8102,-3.7616,-3.6869,-3.7267,-3.7292,-3.6666,-3.5636,-3.4219,-3.2496,-2.941,-2.7336,-2.5946,-2.2485,-1.8905,0.0,-3.4265,-3.5473,-3.6511,-3.5562,0.0,0.0,0.0,0.0,0.0,0.0,0.0,-3.1891,-3.143,-3.161,-3.3825,-3.3312,-3.2917,-3.4043,0.0,0.0,0.0,0.0,0.0,0.0,0.0,0.0,0.0,0.0,-4.6347,-4.6347,-4.6347,-4.6347,-4.6347,-4.6347,-4.6347,-4.6347,-4.6347,-4.6347,-4.6347,-4.6347,-4.6347,-4.6347,-4.6347,-4.6037,-4.5519,-4.5933,-4.5871,0.0,-4.5933,-4.6202,-4.6347,-4.6347,-4.6347,-4.6306,-4.6816,-4.7654,-4.8733,-4.8742,-4.8583,-4.8227,-4.7159,-4.6911,-4.7096,-4.8696,-4.9557,-5.0458,-5.2352,-5.2929,-5.2929,-5.2929,-5.2929,-5.2929,-5.2929,-5.2929,-5.308,-5.3582,-5.3884,-5.4034,-5.4034,-5.4034,-5.3758,-5.2854,-5.2553,-5.2226,-5.1674,-5.082,-5.0067,-4.9665,-4.8786,-4.8159,-4.7933,-4.7606,-4.6885,-4.5772,-4.4255,-4.2512,-4.0387,-3.9299,-3.8376,-3.7797,-3.7412,-3.7002,-3.647,-3.5581,-3.4127,-3.1806,-2.9167,-2.6954,-2.5077,-2.1578,-1.8436,0.0,0.0,0.0,0.0,0.0,0.0,0.0,0.0,0.0,0.0,0.0,0.0,0.0,-3.2721,-3.3086,-3.5703,-3.4751,-3.4314,-3.6047,-3.5945,0.0,0.0,0.0,0.0,0.0,0.0,0.0,0.0,0.0,-4.6347,-4.6347,-4.6347,-4.6347,-4.6347,-4.6347,-4.6347,-4.6347,-4.6347,-4.6347,-4.6347,-4.6347,-4.6347,-4.6347,-4.6347,-4.6326,-4.6285,-4.5892,-4.5954,-4.6264,-4.5892,-4.5975,-4.6347,-4.6347,-4.6347,-4.6488,-4.8208,-4.882,-4.9271,-5.0739,-5.071,-4.9755,-4.8182,-4.7984,-4.8696,-5.0293,-5.1747,-5.2929,-5.2929,-5.2929,-5.2929,-5.298,-5.2955,-5.2929,-5.298,-5.298,-5.313,-5.3658,-5.421,-5.4637,-5.4637,-5.4637,-5.4436,-5.3808,-5.3306,-5.2804,-5.2251,-5.1699,-5.0946,-4.9916,-4.9264,-4.8686,-4.8134,-4.8008,-4.7958,-4.7958,-4.5331,-4.3578,-4.2975,-4.0583,-3.9421,-3.9916,-3.7777,-3.6449,-3.6374,-3.5336,-3.3806,-3.1786,-2.8893,-2.6706,-2.5184,-2.2084,-1.8736,0.0,0.0,0.0,0.0,0.0,0.0,0.0,0.0,0.0,0.0,0.0,0.0,0.0,0.0,-3.2779,-3.4066,-3.4295,-3.4264,-3.4159,0.0,0.0,0.0,0.0,0.0,0.0,0.0,0.0,0.0,-4.6347,-4.6347,-4.6347,-4.6347,-4.6347,-4.6347,-4.6347,-4.6347,-4.6347,-4.6347,-4.6347,-4.6347,-4.6347,-4.6347,-4.6347,-4.6347,-4.6161,-4.585,-4.6099,-4.6057,-4.585,-4.6099,-4.6244,-4.6347,-4.6347,-4.6347,-4.6488,-4.8208,-4.9607,-5.0871,-5.1601,-5.1768,-5.1412,-5.017,-4.9889,-5.0293,-5.1886,-5.2629,-5.2929,-5.2929,-5.2929,-5.303,-5.3406,-5.3231,-5.303,-5.3432,-5.3507,-5.3683,-5.4235,-5.4787,-5.5189,-5.5189,-5.5189,-5.4888,-5.3858,-5.3607,-5.3331,-5.2804,-5.2277,-5.1825,-5.1548,-5.0645,-4.9967,-4.9841,-4.9063,-4.856,-4.856,-4.6809,-4.5182,-4.4135,-4.1911,-4.0495,-3.9938,-3.8146,-3.6979,-3.6242,-3.2521,-3.0381,-3.0034,-2.58,-2.4534,-2.5923,-2.1058,-1.77,0.0,0.0,0.0,0.0,0.0,0.0,0.0,0.0,0.0,0.0,0.0,0.0,0.0,0.0,0.0,-3.4676,-3.526,0.0,0.0,0.0,0.0,0.0,0.0,0.0,0.0,0.0,0.0,0.0,-4.6347,-4.6347,-4.6347,-4.6347,-4.6347,-4.6347,-4.6347,-4.6347,-4.6347,-4.6347,-4.6347,-4.6347,-4.6347,-4.6347,-4.6347,-4.6347,-4.6223,-4.5995,-4.6244,-4.6202,-4.6016,-4.6244,-4.6347,-4.6347,-4.6347,-4.6347,-4.6488,-4.8208,-4.9897,-5.1532,-5.2482,-5.2548,-5.2115,-5.1785,-5.1163,-5.0857,-5.2491,-5.2929,-5.2929,-5.2929,-5.2929,-5.3055,-5.3557,-5.3482,-5.3406,-5.3959,-5.411,-5.4185,-5.4486,-5.4988,-5.539,-5.539,-5.539,-5.5114,-5.426,-5.3884,-5.3532,-5.3005,-5.2452,-5.2101,-5.2101,-5.1122,-5.0419,-5.0419,-4.9665,-4.9163,-4.9163,-4.8109,-4.7059,-4.6118,-4.4231,-4.2772,-4.1913,-3.928,-3.7065,-3.5491,-3.1657,-2.9723,-3.0071,-2.6156,-2.5036,-2.6414,-2.259,-1.916,0.0,0.0,0.0,0.0,0.0,0.0,0.0,0.0,0.0,0.0,0.0,0.0,0.0,0.0,0.0,0.0,0.0,0.0,0.0,0.0,0.0,0.0,0.0,0.0,0.0,0.0,0.0,0.0,-4.6347,-4.6347,-4.6347,-4.6347,-4.6347,-4.6347,-4.6347,-4.6347,-4.6347,-4.6347,-4.6347,-4.6347,-4.6347,-4.6347,-4.6347,-4.6347,-4.6347,-4.6347,-4.6347,-4.6347,-4.6347,-4.6347,-4.6347,-4.6347,-4.6347,-4.6347,-4.6488,-4.8208,-4.9897,-5.1578,-5.3258,-5.2959,-5.2067,-5.265,-5.205,-5.1163,-5.2491,-5.2929,-5.2955,-5.303,-5.3055,-5.3181,-5.3708,-5.3833,-5.3984,-5.4561,-5.4687,-5.4687,-5.4687,-5.5114,-5.5516,-5.5516,-5.5516,-5.534,-5.4787,-5.421,-5.3658,-5.313,-5.2578,-5.2226,-5.2226,-5.1322,-5.0645,-5.0569,-5.0042,-4.969,-4.9615,-4.9163,-4.8686,-4.8309,-4.6415,-4.4787,-4.3357,-3.9908,-3.685,-3.3993,-3.133,-3.0064,-3.026,-2.7381,-2.6162,-2.6814,-2.4455,-2.0994,-2.6409,-2.669,0.0,0.0,0.0,0.0,0.0,0.0,0.0,0.0,0.0,0.0,0.0,0.0,0.0,0.0,0.0,0.0,0.0,0.0,0.0,0.0,0.0,0.0,0.0,0.0,0.0,0.0,-4.6347,-4.6347,-4.6347,-4.6347,-4.6347,-4.6347,-4.6347,-4.6347,-4.6347,-4.6347,-4.6347,-4.6347,-4.6347,-4.6347,-4.6347,-4.6347,-4.6347,-4.6347,-4.6347,-4.6347,-4.6347,-4.6347,-4.6347,-4.6347,-4.6347,-4.6347,-4.6488,-4.8208,-4.9897,-5.1638,-5.3789,-5.2902,-5.1075,-5.2402,-5.2767,-5.2629,-5.2792,-5.2929,-5.303,-5.3457,-5.3582,-5.3708,-5.4285,-5.4436,-5.4587,-5.5139,-5.5265,-5.5265,-5.5265,-5.5691,-5.6093,-5.6093,-5.6093,-5.5917,-5.5365,-5.4787,-5.4235,-5.3658,-5.313,-5.2804,-5.2804,-5.2251,-5.1674,-5.1197,-5.0645,-5.0092,-4.964,-4.9515,-4.9568,-4.9748,-4.7183,-4.3655,-3.954,-3.8005,-3.5471,-3.2017,-3.0516,-2.926,-2.8265,-2.5347,-2.4844,-2.6653,-2.3504,-2.0847,-2.6518,-2.7308,-2.7939,0.0,0.0,0.0,0.0,0.0,0.0,0.0,0.0,0.0,0.0,0.0,0.0,0.0,0.0,0.0,0.0,0.0,0.0,0.0,0.0,0.0,0.0,0.0,0.0,-4.6326,-4.6347,-4.6347,-4.6347,-4.6347,-4.6347,-4.6347,-4.6347,-4.6347,-4.6347,-4.6347,-4.6347,-4.6347,-4.6347,-4.6347,-4.6347,-4.6099,-4.6119,-4.6326,-4.6099,-4.6119,-4.6347,-4.6347,-4.6347,-4.6347,-4.6347,-4.6347,-4.6629,-4.885,-4.9672,-4.9977,-5.3008,-5.2724,-5.1244,-5.2427,-5.2929,-5.298,-5.3256,-5.3356,-5.3457,-5.4009,-5.3934,-5.3909,-5.4787,-5.5013,-5.5139,-5.5691,-5.5842,-5.5842,-5.5842,-5.6043,-5.6219,-5.6219,-5.6219,-5.6043,-5.5491,-5.5189,-5.4712,-5.3833,-5.3507,-5.3256,-5.2955,-5.2452,-5.2,-5.1749,-5.1222,-5.0795,-5.0519,-5.0494,-5.0251,-4.9543,-4.6904,-4.3752,-4.0039,-3.8274,-3.5582,-3.1816,-3.0762,-2.959,-2.8264,-2.6239,-2.5892,-2.7295,-2.5477,-2.2785,-2.7088,-2.8103,-2.9094,0.0,0.0,0.0,0.0,0.0,0.0,0.0,0.0,0.0,0.0,0.0,0.0,0.0,0.0,0.0,0.0,0.0,0.0,0.0,0.0,0.0,0.0,0.0,0.0,-4.6161,-4.6285,-4.6347,-4.6347,-4.6347,-4.6347,-4.6347,-4.6347,-4.6347,-4.6347,-4.6347,-4.6347,-4.6347,-4.6347,-4.6347,-4.6326,-4.5995,-4.6037,-4.6326,-4.5975,-4.6037,-4.6347,-4.6347,-4.6347,-4.6347,-4.6347,-4.6509,-4.7208,-4.9955,-5.0011,-4.9023,-5.2425,-5.2601,-5.139,-5.2615,-5.3142,-5.3319,-5.3721,-5.3948,-5.4149,-5.4587,-5.4436,-5.4285,-5.5164,-5.5491,-5.5691,-5.6118,-5.6219,-5.6219,-5.6219,-5.6219,-5.6219,-5.6219,-5.6219,-5.6068,-5.5641,-5.5465,-5.5039,-5.4059,-5.3783,-5.3507,-5.3005,-5.2553,-5.2251,-5.2126,-5.1724,-5.1423,-5.1405,-5.1538,-5.0966,-4.9435,-4.7002,-4.4185,-4.1354,-3.8481,-3.5293,-3.1498,-3.0575,-2.9441,-2.809,-2.7305,-2.7121,-2.7696,-2.7468,-2.4924,-2.9103,-2.9327,-2.9312,-3.0908,0.0,0.0,-3.2478,0.0,0.0,0.0,0.0,0.0,0.0,0.0,0.0,0.0,0.0,0.0,0.0,0.0,0.0,0.0,0.0,0.0,0.0,0.0,-4.5705,-4.5726,-4.6119,-4.6347,-4.6347,-4.6347,-4.6347,-4.6347,-4.6347,-4.6347,-4.6347,-4.6347,-4.6347,-4.6347,-4.6347,-4.6347,-4.6347,-4.6306,-4.6306,-4.6347,-4.6306,-4.6306,-4.6347,-4.6347,-4.6347,-4.6347,-4.6347,-4.7272,-4.8912,-5.1779,-5.1436,-5.0053,-5.273,-5.2354,-5.0906,-5.2904,-5.3808,-5.4214,-5.429,-5.4645,-5.5011,-5.5307,-5.529,-5.529,-5.5365,-5.5767,-5.6168,-5.6194,-5.6219,-5.6219,-5.6219,-5.6219,-5.6219,-5.6219,-5.6219,-5.6194,-5.6168,-5.5717,-5.5189,-5.4587,-5.4059,-5.3507,-5.3005,-5.2904,-5.2678,-5.2151,-5.2076,-5.1959,-5.1829,-5.2042,-5.1793,-5.0942,-4.7802,-4.4711,-4.1978,-3.7617,-3.3693,-2.9872,-2.8943,-2.7777,-2.6544,-2.668,-2.7121,-2.7696,-2.7682,-2.5645,-2.8817,-2.9352,0.0,-3.0714,0.0,0.0,0.0,0.0,0.0,0.0,0.0,0.0,0.0,0.0,0.0,0.0,0.0,0.0,0.0,0.0,0.0,0.0,0.0,0.0,0.0,-4.4443,-4.5064,-4.5643,-4.585,-4.6057,-4.6326,-4.6347,-4.6347,-4.6347,-4.6347,-4.6347,-4.6347,-4.6347,-4.6347,-4.6347,-4.6347,-4.6347,-4.6326,-4.6057,-4.6078,-4.6326,-4.6057,-4.6099,-4.6347,-4.6347,-4.6347,-4.6347,-4.6347,-4.7272,-4.9047,-5.0352,-5.0387,-5.0109,-5.2361,-5.228,-5.1341,-5.3103,-5.4201,-5.4848,-5.4946,-5.534,-5.5761,-5.5886,-5.5892,-5.5892,-5.5892,-5.6068,-5.6219,-5.6219,-5.6219,-5.6219,-5.6219,-5.6219,-5.6219,-5.6219,-5.6219,-5.6219,-5.6219,-5.6043,-5.5717,-5.5164,-5.4587,-5.416,-5.3959,-5.3356,-5.298,-5.308,-5.3078,-5.2936,-5.2844,-5.3048,-5.2904,-5.2233,-4.865,-4.5066,-4.2046,-3.7879,-3.3768,-3.0076,-2.9303,-2.8188,-2.6934,-2.7228,-2.7575,-2.7976,-2.8177,-2.6783,-2.8442,-2.9083,0.0,0.0,0.0,0.0,0.0,0.0,0.0,0.0,0.0,0.0,0.0,0.0,0.0,0.0,0.0,0.0,0.0,0.0,0.0,0.0,0.0,0.0,-4.3346,-4.3946,-4.4629,-4.5416,-4.5602,-4.5871,-4.6326,-4.6347,-4.6347,-4.6347,-4.6347,-4.6347,-4.6347,-4.6347,-4.6347,-4.6347,-4.6347,-4.6347,-4.6326,-4.6037,-4.6057,-4.6326,-4.6037,-4.6057,-4.6347,-4.6347,-4.6347,-4.6347,-4.6811,-4.8049,-4.963,-5.0145,-5.0818,-5.1435,-5.2759,-5.2684,-5.2416,-5.3768,-5.4758,-5.5573,-5.5694,-5.6091,-5.6581,-5.6384,-5.6365,-5.6365,-5.6219,-5.6219,-5.6219,-5.6219,-5.6219,-5.6219,-5.6219,-5.6219,-5.6219,-5.6219,-5.6219,-5.6219,-5.6219,-5.6365,-5.6163,-5.5609,-5.5349,-5.5021,-5.487,-5.3898,-5.3445,-5.3658,-5.381,-5.3909,-5.3894,-5.4055,-5.3838,-5.301,-4.9246,-4.5646,-4.2271,-3.753,-3.3388,-3.0134,-2.8997,-2.8075,-2.7268,-2.7655,-2.7949,-2.815,-2.8551,-2.7521,-2.8359,-2.8607,0.0,0.0,0.0,0.0,0.0,0.0,0.0,0.0,0.0,0.0,0.0,0.0,0.0,0.0,0.0,0.0,0.0,0.0,0.0,0.0,0.0,-4.3966,-4.3019,-4.376,-4.4484,-4.496,-4.5416,-4.5871,-4.6306,-4.6347,-4.6347,-4.6347,-4.6347,-4.6347,-4.6347,-4.6347,-4.6347,-4.6347,-4.6347,-4.6347,-4.6347,-4.6347,-4.6347,-4.6347,-4.6347,-4.6347,-4.6347,-4.6347,-4.6347,-4.6509,-4.8208,-4.9741,-5.1332,-5.1959,-5.3225,-5.4486,-5.3909,-5.3708,-5.3808,-5.4809,-5.579,-5.6508,-5.6508,-5.7178,-5.7784,-5.6946,-5.6801,-5.6656,-5.6365,-5.6219,-5.6219,-5.6219,-5.6219,-5.6219,-5.6219,-5.6219,-5.6219,-5.6219,-5.6219,-5.6219,-5.6219,-5.651,-5.6624,-5.6065,-5.6224,-5.6162,-5.5152,-5.4619,-5.4126,-5.3708,-5.4491,-5.5013,-5.4894,-5.5117,-5.4801,-5.3504,-4.9856,-4.6167,-4.279,-3.6635,-3.2356,-3.0134,-2.7919,-2.6974,-2.7268,-2.7856,-2.815,-2.8163,-2.8764,-2.7818,-2.7676,0.0,0.0,0.0,0.0,0.0,0.0,0.0,0.0,0.0,0.0,0.0,0.0,0.0,0.0,0.0,0.0,0.0,0.0,0.0,0.0,0.0,-4.5242,-4.425,-4.3966,-4.3844,-4.4008,-4.4463,-4.494,-4.5395,-4.585,-4.6182,-4.6347,-4.6347,-4.6347,-4.6347,-4.6347,-4.6347,-4.6347,-4.6347,-4.6347,-4.6347,-4.6347,-4.6347,-4.6347,-4.6347,-4.6347,-4.6347,-4.6347,-4.6347,-4.6347,-4.6347,-4.6811,-4.882,-5.1224,-5.1013,-5.2716,-5.5064,-5.4511,-5.4703,-5.534,-5.5375,-5.6377,-5.7384,-5.6836,-5.7226,-5.7784,-5.7379,-5.7091,-5.6801,-5.6946,-5.6801,-5.651,-5.6219,-5.6219,-5.6219,-5.6219,-5.6219,-5.6219,-5.6219,-5.6365,-5.6656,-5.6656,-5.6946,-5.7184,-5.7005,-5.6764,-5.6162,-5.5152,-5.5304,-5.5163,-5.4361,-5.5025,-5.5497,-5.5457,-5.5624,-5.5226,-5.4053,-5.0056,-4.6167,-4.279,-3.6635,-3.2329,-3.0482,-2.8245,-2.7281,-2.7575,-2.8177,-2.835,-2.8163,-2.8978,-2.8723,-2.7945,0.0,0.0,0.0,0.0,0.0,0.0,0.0,0.0,0.0,0.0,0.0,0.0,0.0,0.0,0.0,0.0,0.0,0.0,0.0,0.0,0.0,-4.6819,-4.5827,-4.4902,-4.4613,-4.4673,-4.5137,-4.4857,-4.5295,-4.6553,-4.6233,-4.6161,-4.6347,-4.6347,-4.6347,-4.6347,-4.6347,-4.6347,-4.6347,-4.6347,-4.6347,-4.6347,-4.6347,-4.6347,-4.6347,-4.6347,-4.6347,-4.6347,-4.6347,-4.6347,-4.6347,-4.6951,-4.8978,-5.1378,-5.1478,-5.3104,-5.534,-5.5013,-5.5257,-5.5703,-5.593,-5.681,-5.7641,-5.7354,-5.7641,-5.807,-5.7667,-5.7379,-5.7235,-5.7379,-5.7235,-5.6946,-5.6801,-5.651,-5.651,-5.6656,-5.651,-5.651,-5.6656,-5.6801,-5.7091,-5.7091,-5.7784,-5.8329,-5.7641,-5.7358,-5.6778,-5.5932,-5.6224,-5.6234,-5.5507,-5.6085,-5.6559,-5.6328,-5.6202,-5.5778,-5.4628,-5.0281,-4.6262,-4.3193,-3.6732,-3.238,-3.0489,-2.8499,-2.7575,-2.7883,-2.8604,-2.8804,-2.8511,-2.9299,-2.9406,0.0,0.0,0.0,0.0,0.0,0.0,0.0,0.0,0.0,0.0,0.0,0.0,0.0,0.0,0.0,0.0,0.0,0.0,0.0,0.0,0.0,-4.8573,-4.87,-4.7935,-4.5755,-4.58,-4.5962,-4.6268,-4.5201,-4.5469,-4.7545,-4.6617,-4.6073,-4.6326,-4.6347,-4.6347,-4.6347,-4.6347,-4.6347,-4.6347,-4.6347,-4.6347,-4.6347,-4.6347,-4.6347,-4.6347,-4.6347,-4.6347,-4.6347,-4.6509,-4.6509,-4.6649,-4.8367,-5.0053,-5.1708,-5.2601,-5.4083,-5.5465,-5.5465,-5.5465,-5.5685,-5.6479,-5.7091,-5.7523,-5.7784,-5.8212,-5.8355,-5.807,-5.7927,-5.7784,-5.7523,-5.7523,-5.7379,-5.7523,-5.7235,-5.6946,-5.7379,-5.7091,-5.6946,-5.7379,-5.7379,-5.7523,-5.7667,-5.9008,-5.9681,-5.8329,-5.8186,-5.7862,-5.7228,-5.7332,-5.7174,-5.6636,-5.7475,-5.7837,-5.7406,-5.7111,-5.6437,-5.5284,-5.0506,-4.6608,-4.3959,-3.7047,-3.2431,-3.0536,-2.8726,-2.7883,-2.819,-2.9058,-2.9325,-2.9058,-2.9646,-2.9766,0.0,0.0,0.0,0.0,0.0,0.0,0.0,0.0,0.0,0.0,0.0,0.0,0.0,0.0,0.0,0.0,0.0,0.0,-4.6049,-4.7278,-4.8436,-4.9818,-4.9377,-4.8352,-4.7008,-4.6366,-4.5384,-4.4327,-4.5745,-4.6412,-4.5733,-4.7197,-4.7645,-4.6347,-4.6347,-4.6347,-4.6347,-4.6347,-4.6347,-4.6347,-4.6347,-4.6347,-4.6347,-4.6347,-4.6347,-4.6347,-4.6347,-4.6347,-4.6347,-4.7752,-4.8208,-4.8367,-5.0053,-5.1754,-5.3251,-5.3456,-5.4647,-5.6043,-5.6043,-5.6479,-5.6938,-5.6895,-5.7523,-5.8239,-5.7927,-5.8212,-5.8523,-5.8381,-5.807,-5.7927,-5.8239,-5.807,-5.7927,-5.8239,-5.781,-5.7235,-5.7379,-5.7379,-5.7235,-5.7379,-5.7667,-5.8186,-5.9262,-6.0096,-6.0345,-6.0096,-6.0096,-5.9488,-5.7888,-5.7707,-5.759,-5.72,-5.8648,-5.9302,-5.8716,-5.8536,-5.7971,-5.6785,-5.1336,-4.7447,-4.5495,-3.7921,-3.2821,-3.0898,-2.9052,-2.8203,-2.8511,-2.9165,-2.9325,-2.9058,-2.9646,-2.9766,0.0,0.0,0.0,0.0,0.0,0.0,0.0,0.0,0.0,0.0,0.0,0.0,0.0,0.0,0.0,0.0,0.0,-4.3173,-4.5295,-4.6801,-4.8411,-5.0343,-5.0605,-5.0161,-4.9105,-4.8777,-4.7949,-4.6211,-4.7619,-4.8155,-4.7378,-4.8077,-4.8107,-4.7592,-4.6602,-4.6037,-4.6037,-4.5809,-4.5705,-4.5685,-4.5478,-4.5478,-4.5705,-4.614,-4.6347,-4.6347,-4.6347,-4.6223,-4.6197,-4.7963,-4.8689,-4.8806,-5.1355,-5.2973,-5.3726,-5.467,-5.5435,-5.6219,-5.6365,-5.6801,-5.7091,-5.7235,-5.7784,-5.8212,-5.8212,-5.8355,-5.8523,-5.8523,-5.8381,-5.8212,-5.8523,-5.8355,-5.8355,-5.9315,-5.8612,-5.7927,-5.8727,-5.8186,-5.807,-5.9681,-5.9542,-5.9681,-6.1165,-6.1571,-6.184,-6.2613,-6.2081,-6.1029,-5.9402,-5.9149,-5.9149,-5.9008,-5.982,-6.0375,-6.045,-5.9448,-5.8476,-5.7553,-5.1722,-4.7758,-4.6459,-3.9473,-3.4539,-3.2398,-3.0572,-2.9418,-2.9032,-2.9472,-2.9606,-2.9472,-2.978,-2.9833,0.0,0.0,0.0,0.0,0.0,0.0,0.0,0.0,0.0,0.0,0.0,0.0,0.0,0.0,0.0,0.0,0.0,-4.276,-4.4501,-4.6319,-4.8411,-5.0605,-5.1609,-5.1854,-5.0925,-5.1255,-5.0712,-4.8673,-4.9572,-4.9893,-4.9319,-4.8691,-4.8366,-4.8558,-4.6596,-4.5478,-4.5561,-4.5188,-4.5002,-4.4981,-4.4608,-4.4629,-4.5022,-4.6066,-4.6462,-4.6524,-4.6441,-4.6351,-4.6511,-4.8649,-4.9229,-4.9205,-5.2759,-5.4199,-5.4348,-5.5754,-5.6219,-5.6219,-5.6656,-5.6801,-5.6946,-5.7641,-5.7927,-5.807,-5.8355,-5.8523,-5.8523,-5.8523,-5.8523,-5.8523,-5.8523,-5.8523,-5.892,-6.0234,-5.9402,-5.8868,-6.062,-5.982,-5.9542,-6.2242,-6.1975,-6.1678,-6.2906,-6.33,-6.3822,-6.4752,-6.3952,-6.2641,-6.1165,-6.1029,-6.1029,-6.1029,-6.1165,-6.1536,-6.1892,-6.0318,-5.8953,-5.8113,-5.2032,-4.8156,-4.7271,-4.1421,-3.6971,-3.4323,-3.2324,-3.0623,-2.9486,-2.978,-2.9913,-2.9913,-2.9913,-2.9913,0.0,0.0,0.0,0.0,0.0,0.0,0.0,0.0,0.0,0.0,0.0,0.0,0.0,0.0,0.0,0.0,-4.034,-4.201,-4.4732,-4.5727,-4.7303,-5.0474,-5.1252,-5.1266,-5.0875,-5.0911,-4.9883,-4.7512,-5.0317,-5.077,-4.7648,-4.8691,-4.8815,-4.7553,-4.5469,-4.467,-4.5084,-4.5022,-4.5002,-4.5002,-4.494,-4.494,-4.5002,-4.6471,-4.735,-4.7718,-4.7307,-4.7816,-4.9314,-5.1475,-5.2261,-5.2535,-5.4918,-5.5901,-5.5901,-5.6072,-5.6219,-5.6219,-5.6656,-5.7091,-5.7379,-5.7784,-5.807,-5.8381,-5.8523,-5.8523,-5.8523,-5.8523,-5.8523,-5.8523,-5.8523,-5.8523,-5.892,-6.0234,-6.0345,-6.062,-6.2242,-6.2375,-6.2242,-6.2773,-6.3562,-6.4368,-6.4624,-6.5668,-6.6073,-6.5007,-6.4752,-6.4081,-6.2641,-6.2508,-6.2508,-6.2508,-6.3562,-6.3878,-6.2822,-6.1458,-6.0158,-5.9011,-5.2664,-4.9004,-4.8868,-4.3435,-3.9071,-3.6147,-3.3104,-3.1023,-2.9486,-2.978,-2.9913,-2.9913,-2.9913,-2.9913,0.0,0.0,0.0,0.0,0.0,0.0,0.0,0.0,0.0,0.0,0.0,0.0,0.0,0.0,0.0,-3.9144,-3.9702,-4.1071,-4.4004,-4.5146,-4.6981,-5.0408,-5.182,-5.2646,-5.2731,-5.2953,-5.2254,-5.0055,-5.261,-5.2907,-5.0312,-5.0601,-5.0115,-4.8575,-4.6093,-4.4504,-4.3822,-4.3822,-4.4133,-4.4613,-4.5897,-4.6321,-4.5932,-4.6913,-4.7454,-4.7684,-4.8361,-4.8847,-4.9388,-5.1858,-5.2764,-5.2718,-5.5551,-5.651,-5.646,-5.6421,-5.6319,-5.6463,-5.6892,-5.7035,-5.7371,-5.7966,-5.8381,-5.8523,-5.8523,-5.8523,-5.8523,-5.8523,-5.8523,-5.8523,-5.8523,-5.8523,-5.9035,-6.1301,-6.184,-6.2508,-6.4624,-6.3952,-6.3037,-6.3822,-6.5134,-6.6073,-6.6073,-6.66,-6.6723,-6.6198,-6.6073,-6.5543,-6.411,-6.3665,-6.3579,-6.3923,-6.3861,-6.3852,-6.4062,-6.2492,-6.0727,-5.8738,-5.3374,-4.9401,-4.7643,-4.3269,-3.9681,-3.717,-3.4532,-3.1988,-2.9726,-2.986,-2.9913,-2.9913,-2.9913,-2.9913,0.0,0.0,0.0,0.0,0.0,0.0,0.0,0.0,0.0,0.0,0.0,0.0,0.0,0.0,-3.8854,-3.8854,-3.9226,-4.0319,-4.2815,-4.4434,-4.6429,-4.9544,-5.1691,-5.3114,-5.3922,-5.4524,-5.4195,-5.2479,-5.4193,-5.4449,-5.2569,-5.1754,-5.0576,-4.9101,-4.6145,-4.4009,-4.258,-4.296,-4.3845,-4.4904,-4.657,-4.7115,-4.6652,-4.77,-4.8125,-4.8037,-4.9319,-4.9893,-5.0073,-5.2453,-5.3254,-5.313,-5.5886,-5.6844,-5.6666,-5.652,-5.6406,-5.6277,-5.6726,-5.697,-5.7292,-5.8016,-5.8392,-5.8523,-5.8523,-5.8523,-5.8523,-5.8523,-5.8523,-5.8523,-5.8523,-5.8779,-5.9707,-6.2242,-6.3037,-6.3952,-6.6476,-6.5416,-6.4239,-6.5261,-6.6322,-6.6999,-6.6999,-6.6999,-6.6999,-6.6999,-6.6999,-6.66,-6.5543,-6.4978,-6.489,-6.5358,-6.4539,-6.4293,-6.5173,-6.3378,-6.12,-5.8597,-5.3787,-4.9791,-4.677,-4.2916,-3.991,-3.7845,-3.594,-3.3769,-3.1315,-3.1315,-3.1315,-3.1315,-3.1315,-3.1137,0.0,0.0,0.0,0.0,0.0,0.0,0.0,0.0,0.0,0.0,0.0,0.0,0.0,-3.8543,-3.8854,-3.8854,-3.9226,-4.0067,-4.1655,-4.3212,-4.5255,-4.7617,-4.9926,-5.1817,-5.3321,-5.3922,-5.3782,-5.2891,-5.4267,-5.4293,-5.2466,-5.0787,-4.9206,-4.7516,-4.4905,-4.284,-4.1628,-4.3456,-4.5069,-4.6489,-4.6652,-4.6652,-4.6652,-4.8731,-4.9715,-4.9695,-5.029,-5.1376,-5.2754,-5.439,-5.4961,-5.5062,-5.6801,-5.7046,-5.6534,-5.6508,-5.6175,-5.5714,-5.6132,-5.6633,-5.7214,-5.7546,-5.8078,-5.8523,-5.8523,-5.8523,-5.8523,-5.8523,-5.8523,-5.8523,-5.8523,-5.9429,-6.0893,-6.2375,-6.3822,-6.5134,-6.6723,-6.6846,-6.6846,-6.6876,-6.6999,-6.6999,-6.6999,-6.6999,-6.6999,-6.6999,-6.6999,-6.6999,-6.6846,-6.6816,-6.6816,-6.6846,-6.6786,-6.6518,-6.6011,-6.4053,-6.1833,-5.9341,-5.4024,-4.9829,-4.7121,-4.3106,-4.0046,-3.824,-3.7414,-3.6323,-3.5146,-3.5146,-3.5146,-3.5146,-3.5146,-3.4447,-3.2559,0.0,0.0,0.0,0.0,0.0,0.0,0.0,0.0,0.0,0.0,0.0,-3.8191,-3.8316,-3.8419,-3.8419,-3.8564,-3.9185,-4.0584,-4.2804,-4.5078,-4.7182,-5.0028,-5.2258,-5.3425,-5.3974,-5.4181,-5.4325,-5.4805,-5.4831,-5.4106,-5.2532,-5.0902,-4.895,-4.7447,-4.6118,-4.4973,-4.6427,-4.7483,-4.7916,-4.9116,-4.9217,-4.8585,-5.0395,-5.1061,-5.0789,-5.1654,-5.2352,-5.3005,-5.4505,-5.5101,-5.5203,-5.7061,-5.7449,-5.6881,-5.6685,-5.6306,-5.5865,-5.6392,-5.679,-5.7103,-5.7974,-5.834,-5.8523,-5.8523,-5.8523,-5.8523,-5.8523,-5.8523,-5.8638,-5.9568,-6.0234,-6.1165,-6.3562,-6.5582,-6.707,-6.7473,-6.7298,-6.6999,-6.6999,-6.6322,-6.5668,-6.5668,-6.5668,-6.5668,-6.5668,-6.6446,-6.6999,-6.6999,-6.661,-6.652,-6.6939,-6.6221,-6.5802,-6.5981,-6.4606,-6.2166,-5.8805,-5.4681,-5.0645,-4.684,-4.2958,-4.0695,-4.0095,-3.925,-3.7686,-3.5494,-3.5494,-3.5494,-3.5494,-3.5826,-3.5636,-3.2875,0.0,0.0,0.0,0.0,0.0,0.0,0.0,0.0,0.0,0.0,0.0,-3.815,-3.8316,-3.8398,-3.8398,-3.8274,-3.8737,-3.996,-4.2523,-4.4911,-4.6621,-4.9812,-5.2232,-5.3061,-5.3713,-5.4157,-5.4524,-5.4707,-5.4811,-5.4811,-5.3426,-5.1536,-4.8973,-4.7971,-4.7389,-4.7194,-4.8209,-4.8837,-4.9257,-5.0362,-5.0449,-4.9769,-5.1147,-5.1624,-5.1348,-5.2452,-5.2929,-5.3005,-5.4645,-5.5242,-5.5484,-5.7345,-5.7603,-5.7042,-5.6816,-5.6301,-5.5726,-5.6301,-5.6641,-5.6954,-5.7921,-5.8366,-5.8523,-5.8523,-5.8779,-5.9175,-5.8638,-5.8779,-5.9429,-6.0345,-6.1438,-6.2921,-6.5327,-6.7152,-6.8315,-6.8315,-6.7777,-6.7328,-6.7328,-6.6066,-6.488,-6.488,-6.4496,-6.4368,-6.488,-6.5668,-6.6476,-6.6999,-6.661,-6.652,-6.6939,-6.6191,-6.5862,-6.6311,-6.5114,-6.2645,-5.8899,-5.5348,-5.1321,-4.684,-4.3255,-4.1396,-4.1317,-4.0465,-3.9182,-3.7397,-3.7397,-3.7397,-3.7397,-3.7895,-3.7878,0.0,0.0,0.0,0.0,0.0,0.0,0.0,0.0,0.0,0.0,0.0,-3.7612,-3.8088,-3.8543,-3.8854,-3.8874,-3.8502,-3.8688,-4.0034,-4.2367,-4.4417,-4.5657,-4.9303,-5.1813,-5.2052,-5.3035,-5.3607,-5.3452,-5.3922,-5.421,-5.421,-5.3086,-5.0867,-4.7383,-4.6271,-4.6405,-4.7641,-4.8133,-4.9207,-5.0563,-5.0232,-5.0129,-5.0155,-5.0902,-5.1272,-5.1348,-5.2452,-5.2929,-5.303,-5.4923,-5.5662,-5.5905,-5.777,-5.7791,-5.6798,-5.6798,-5.6066,-5.5177,-5.5726,-5.6327,-5.6902,-5.7503,-5.8052,-5.8523,-5.8523,-5.9568,-6.0372,-5.9035,-5.9568,-6.062,-6.0784,-6.3356,-6.6353,-6.7737,-6.8525,-6.9034,-6.9034,-6.8495,-6.8016,-6.8016,-6.6294,-6.4938,-6.4909,-6.372,-6.3197,-6.4624,-6.4752,-6.5416,-6.6723,-6.6999,-6.6999,-6.6999,-6.6999,-6.6999,-6.6999,-6.5772,-6.3322,-5.9521,-5.5915,-5.188,-4.7191,-4.3997,-4.211,-4.1882,-4.1058,-4.0824,-4.1229,-4.106,-4.106,-4.106,-4.1546,-4.1173,-3.3129,0.0,0.0,0.0,0.0,0.0,0.0,0.0,0.0,0.0,0.0,-3.6846,-3.7984,-3.8543,-3.8957,-3.9288,-3.9247,-3.9413,-4.0137,-4.2963,-4.5206,-4.5988,-4.9414,-5.1834,-5.1813,-5.3005,-5.3631,0.0,-5.4391,-5.4654,-5.4236,-5.2694,-5.0981,-4.9168,-4.8876,-4.8829,-4.9225,-4.9541,-4.9973,-5.0374,-5.0409,-5.0487,-5.0512,-5.1271,-5.1646,-5.1722,-5.2563,-5.313,-5.3532,-5.5076,-5.5662,-5.5879,-5.7328,-5.7451,-5.6745,-5.6327,-5.57,-5.5255,-5.6223,-5.6667,-5.6981,-5.7948,-5.8392,-5.8638,-5.9707,-6.0234,-6.0756,-6.1436,-6.184,-6.2592,-6.4102,-6.595,-6.7701,-6.8459,-6.9213,-6.9722,-6.9722,-6.9572,-6.9273,-6.8824,-6.652,-6.449,-6.4141,-6.2748,-6.1822,-6.1761,-6.2773,-6.3822,-6.529,-6.5543,-6.5919,-6.6846,-6.6999,-6.6999,-6.6999,-6.5772,-6.3322,-5.9521,-5.691,-5.327,-4.8529,-4.6346,-4.4972,-4.4406,-4.4199,-4.3854,-4.3048,-4.1714,-4.121,-4.1546,-4.2383,-4.203,0.0,0.0,0.0,0.0,0.0,0.0,-3.6375,-3.5748,-3.529,0.0,-3.647,-3.6183,-3.7384,-3.8129,-3.8709,-3.9185,-3.9578,-4.0116,-4.0965,-4.3757,-4.5966,-4.6541,-5.0035,-5.2177,-5.1829,-5.2818,-5.3447,-5.3346,-5.4129,-5.4471,-5.3896,-5.2433,-5.1073,-4.9923,-4.9897,-4.9793,-4.9557,-5.0245,-5.0539,-5.0539,-5.071,-5.0867,-5.0893,-5.1663,-5.2042,-5.2093,-5.286,-5.3507,-5.4037,-5.5153,-5.5791,-5.6162,-5.699,-5.7242,-5.7085,-5.651,-5.6092,-5.5935,-5.685,-5.7163,-5.732,-5.8209,-5.8523,-5.8779,-6.0234,-6.1029,-6.1706,-6.2508,-6.3367,-6.4438,-6.5592,-6.7511,-6.9303,-6.9692,-7.053,-7.1128,-7.0829,-7.0769,-7.05,-6.9602,-6.7262,-6.5345,-6.4718,-6.2862,-6.1602,-6.1519,-6.1706,-6.2375,-6.3822,-6.4496,-6.5261,-6.6073,-6.66,-6.6999,-6.6999,-6.5772,-6.3322,-5.9521,-5.7437,-5.4209,-4.9325,-4.7759,-4.6832,-4.6266,-4.6079,-4.5633,-4.5271,-4.3487,-4.2531,-4.2383,-4.2902,-4.2716,0.0,0.0,0.0,0.0,0.0,0.0,-3.7765,-3.6597,-3.5478,-3.7077,-3.6295,-3.5602,-3.675,-3.7582,-3.8333,-3.8615,-3.9708,-4.0755,-4.1979,-4.4529,-4.6588,-4.7367,-5.0683,-5.2639,-5.1848,-5.2654,-5.313,-5.2827,-5.3583,-5.387,-5.3321,-5.2223,-5.1047,-4.9845,-4.9871,-4.9584,-4.8982,-5.0106,-5.0681,-5.0707,-5.096,-5.112,-5.1146,-5.2052,-5.2305,-5.2382,-5.3266,-5.3833,-5.4581,-5.519,-5.5842,-5.638,-5.6782,-5.719,-5.7503,-5.7007,-5.6798,-5.6902,-5.7451,-5.766,-5.7765,-5.834,-5.8523,-5.8779,-6.0234,-6.1571,-6.2906,-6.3169,-6.467,-6.6125,-6.6183,-6.8525,-7.0919,-7.0979,-7.1996,-7.2744,-7.2146,-7.1996,-7.1637,-7.044,-6.8543,-6.6796,-6.6157,-6.3813,-6.2206,-6.2837,-6.1734,-6.1436,-6.2906,-6.4081,-6.5007,-6.5134,-6.6198,-6.6999,-6.6999,-6.5772,-6.3352,-5.9606,-5.8005,-5.4971,-5.0156,-4.8873,-4.8211,-4.7922,-4.7114,-4.7027,-4.7963,-4.6202,-4.4618,-4.3711,-4.3711,-4.3896,0.0,0.0,0.0,0.0,0.0,0.0,-3.5544,-3.5112,-3.5199,0.0,-3.5019,-3.4745,-3.7406,-3.8177,-3.8239,-3.8097,-3.9996,-4.1602,-4.1793,-4.4595,-4.6957,-4.7555,-5.0707,-5.2653,-5.2135,-5.3106,-5.3587,-5.3156,-5.3348,-5.3295,-5.2694,-5.1988,-5.0864,-4.9296,-4.9662,-4.9401,-4.8381,-4.9505,-5.008,-5.008,-5.11,-5.1471,-5.1523,-5.2285,-5.2698,-5.275,-5.351,-5.4449,-5.5344,-5.4911,-5.5194,-5.5893,-5.7068,-5.7268,-5.6954,-5.685,-5.6798,-5.6902,-5.7451,-5.766,-5.7765,-5.834,-5.8523,-5.8779,-6.0234,-6.1571,-6.33,-6.5543,-6.6797,-6.7701,-6.8266,-6.9714,-7.1038,-7.1577,-7.2325,-7.2864,-7.2744,-7.2714,-7.2475,-7.1667,-6.9869,-6.8102,-6.7596,-6.5582,-6.3935,-6.356,-6.2816,-6.2906,-6.4368,-6.4752,-6.529,-6.6476,-6.6846,-6.6999,-6.6999,-6.5772,-6.3558,-6.0228,-5.9514,-5.7131,-5.2354,-5.2067,-5.1624,-5.1013,-4.9962,-4.9741,-5.0498,-4.8439,-4.7326,-4.7166,-4.7507,-4.8018,0.0,0.0,0.0,-3.6006,0.0,0.0,0.0,-3.5445,-3.4993,-3.6747,-3.5455,-3.4642,-3.6929,-3.7424,-3.7658,-3.8274,-3.9757,-4.0973,-4.1651,-4.4456,-4.7075,-4.8568,-5.0905,-5.2528,-5.2528,-5.3436,-5.3901,-5.3708,-5.3557,-5.3138,-5.2537,-5.1675,-5.0812,-4.9949,-4.9636,-4.9348,-4.9035,-4.961,-5.0054,-5.0342,-5.1204,-5.1753,-5.2067,-5.2827,-5.3244,-5.3557,-5.4015,-5.4731,-5.5503,-5.5047,-5.5151,-5.5581,-5.6529,-5.6981,-5.7242,-5.7242,-5.7425,-5.7686,-5.7974,-5.8078,-5.8131,-5.8418,-5.8523,-5.8779,-6.0234,-6.2081,-6.4368,-6.6446,-6.7717,-6.8555,-6.8914,-7.044,-7.1996,-7.2325,-7.3163,-7.3791,-7.3462,-7.3402,-7.3103,-7.2086,-7.105,-6.9958,-6.9014,-6.707,-6.5479,-6.4822,-6.3697,-6.3037,-6.3692,-6.4496,-6.5134,-6.5948,-6.66,-6.6999,-6.6999,-6.5772,-6.3858,-6.1299,-6.037,-5.8236,-5.4338,-5.4334,-5.4475,-5.4563,-5.4503,-5.4496,-5.4238,-5.3246,-5.1376,-4.8808,-4.9126,-4.957,0.0,0.0,0.0,0.0,0.0,-3.74,0.0,0.0,0.0,-3.7282,-3.6042,0.0,0.0,0.0,0.0,0.0,0.0,0.0,0.0,-4.397,0.0,-4.8636,-5.0358,-5.1674,-5.2362,-5.3196,-5.3918,-5.4576,-5.376,-5.3028,-5.2511,-5.1518,-5.089,-5.0786,-4.9793,-4.9453,-4.9897,-4.9897,-5.0185,-5.0812,-5.1335,-5.191,-5.2511,-5.3112,-5.3687,-5.4236,-5.4545,-5.4982,-5.5501,-5.5397,-5.5423,-5.5553,-5.6034,-5.6745,-5.7529,-5.7739,-5.8131,-5.8523,-5.8523,-5.8523,-5.8523,-5.8523,-5.8523,-5.8779,-6.051,-6.2613,-6.4909,-6.6748,-6.8076,-6.9034,-6.9153,-7.1038,-7.3027,-7.2924,-7.3911,-7.4856,-7.421,-7.4091,-7.3702,-7.2355,-7.2086,-7.1667,-7.038,-6.8525,-6.7013,-6.6645,-6.4857,-6.3562,-6.3562,-6.4624,-6.529,-6.529,-6.6322,-6.6999,-6.6999,-6.5772,-6.4337,-6.2686,-6.1001,-5.9036,-5.6551,-5.6687,-5.6994,-5.7274,-5.8548,-5.8574,-5.77,-5.7575,-5.5154,-5.0746,-5.0746,-5.1036,0.0,0.0,0.0,0.0,-3.8617,0.0,-3.6358,0.0,-3.6593,-3.5943,0.0,0.0,0.0,0.0,0.0,0.0,0.0,0.0,-4.1571,-4.24,-4.3497,-4.5254,-4.7597,-4.9492,-5.033,-5.1936,-5.3771,-5.5807,-5.3793,-5.2524,-5.2433,-5.1858,-5.1282,-5.0812,-5.0159,-4.9819,-4.9897,-4.9897,-5.0185,-5.0812,-5.1335,-5.191,-5.2511,-5.3112,-5.3687,-5.4236,-5.4837,-5.5412,-5.5747,-5.5386,-5.5465,-5.6013,-5.7059,-5.7242,-5.7033,-5.8052,-5.8444,-5.8523,-5.8523,-5.8523,-5.8523,-5.8523,-5.8523,-5.9061,-6.1706,-6.2773,-6.3675,-6.7034,-6.8405,-6.9123,-6.9722,-7.1628,-7.3262,-7.2894,-7.4181,-7.5278,-7.4916,-7.4779,-7.436,-7.3043,-7.2804,-7.2385,-7.1038,-6.9654,-6.8691,-6.8631,-6.7403,-6.6476,-6.6476,-6.6723,-6.6723,-6.6723,-6.6846,-6.6999,-6.6999,-6.5772,-6.4603,-6.3815,-6.1883,-6.0504,-5.9967,-5.9594,-5.8692,-5.7299,-5.8548,-5.902,-5.8846,-5.8334,-5.695,-5.4825,-5.4825,-5.4955,0.0,0.0,0.0,0.0,0.0,0.0,-3.7312,0.0,-3.6282,0.0,0.0,0.0,0.0,0.0,0.0,0.0,-3.8891,0.0,0.0,0.0,-4.2263,-4.5572,0.0,0.0,-5.1336,-5.2604,-5.3506,-5.4053,-5.3064,-5.2138,-5.1616,-5.157,-5.1492,-5.1256,-5.1387,-5.159,-5.1937,-5.2398,-5.2888,-5.3517,-5.3267,-5.3512,-5.4073,-5.3971,-5.4184,-5.4733,-5.4994,-5.5229,-5.5412,-5.5203,-5.5412,-5.5987,-5.6824,-5.7007,-5.6954,-5.8104,-5.8523,-5.8523,-5.8523,-5.8523,-5.8523,-5.8523,-5.8523,-5.9061,-6.1975,-6.2773,-6.3573,-6.6997,-6.8465,-6.9243,-7.0547,-7.2089,-7.3515,-7.404,-7.4751,-7.5414,-7.5278,-7.5006,-7.4599,-7.3672,-7.3492,-7.3193,-7.2235,-7.0679,-6.9453,-6.9064,-6.8166,-6.7418,-6.7029,-6.6999,-6.6999,-6.6999,-6.6999,-6.6999,-6.6999,-6.6131,-6.5471,-6.5221,-6.3093,-6.1623,-6.0917,-6.104,-6.0996,-6.0691,-6.1606,-6.1595,-6.0545,-6.0623,-5.9527,-5.7474,-5.6742,-5.6464,-4.1448,0.0,0.0,0.0,0.0,0.0,0.0,0.0,0.0,-3.7779,-3.7521,0.0,0.0,0.0,0.0,0.0,0.0,-3.8941,0.0,-3.9753,0.0,0.0,0.0,0.0,0.0,-5.2939,-5.2992,-5.3226,-5.2163,-5.1296,-5.0959,-5.0883,-5.1249,-5.2068,-5.246,-5.3006,-5.3964,-5.4302,-5.4765,-5.5412,-5.5077,-5.5074,-5.5176,-5.4906,-5.4892,-5.5099,-5.5099,-5.5099,-5.5099,-5.5099,-5.568,-5.6609,-5.7082,-5.7671,-5.8183,-5.8412,-5.8523,-5.8523,-5.8523,-5.8523,-5.8523,-5.8523,-5.8779,-5.9568,-6.1975,-6.3037,-6.3993,-6.736,-6.8615,-6.943,-7.1006,-7.256,-7.3809,-7.4588,-7.5213,-7.5685,-7.5414,-7.5142,-7.4826,-7.4031,-7.3881,-7.3702,-7.3043,-7.1427,-7.0021,-6.9363,-6.8525,-6.7747,-6.7089,-6.6999,-6.6999,-6.6999,-6.6999,-6.7059,-6.7238,-6.649,-6.595,-6.5733,-6.4138,-6.2701,-6.1741,-6.2273,-6.2712,-6.3111,-6.3873,-6.3576,-6.2086,-6.2512,-6.158,-5.9437,-5.8402,-5.764,0.0,0.0,0.0,-4.1406,0.0,0.0,0.0,0.0,-3.8768,-3.8818,-3.9626,-4.0108,0.0,0.0,0.0,0.0,0.0,0.0,0.0,0.0,-3.8941,-4.0185,0.0,0.0,0.0,-5.2376,-5.248,-5.4967,-5.1335,-4.9768,-5.1377,-5.0023,-5.0499,-5.3335,-5.2913,-5.348,-5.5267,-5.4765,-5.4765,-5.5412,-5.603,-5.5899,-5.5176,-5.5871,-5.5751,-5.5099,-5.5099,-5.5099,-5.5099,-5.5099,-5.6319,-5.8015,-5.8612,-5.9979,-6.1482,-5.9355,-5.8523,-5.8523,-5.8523,-5.8523,-5.8523,-5.8523,-5.9429,-6.0756,-6.2375,-6.3692,-6.5426,-6.8177,-6.8974,-6.943,-7.0946,-7.269,-7.395,-7.4011,-7.5277,-7.6221,-7.555,-7.5414,-7.5098,-7.4166,-7.3881,-7.3702,-7.3043,-7.1787,-7.0679,-7.0051,-6.8824,-6.7747,-6.7089,-6.6999,-6.6999,-6.6999,-6.6999,-6.7238,-6.7897,-6.6759,-6.5763,-6.4949,-6.4671,-6.4138,-6.3252,-6.3177,-6.3085,-6.3111,-6.3873,-6.4012,-6.3271,-6.3298,-6.2399,-6.0658,-6.0031,-5.8782,0.0,0.0,-4.5043,-4.2628,0.0,0.0,0.0,0.0,-3.9728,-3.9448,-4.0414,-4.1208,-4.0741,0.0,0.0,0.0,0.0,0.0,0.0,0.0,-3.8713,-4.1169,0.0,0.0,0.0,-5.1305,-5.1523,-5.2078,-5.0745,-5.0124,-5.0851,-5.1563,-5.2388,-5.343,-5.4458,-5.5566,-5.6622,-5.6828,-5.7189,-5.7833,-5.809,-5.8083,-5.7837,-5.8032,-5.7514,-5.6471,-5.6471,-5.5973,-5.5258,-5.6505,-5.7647,-5.8744,-6.0242,-6.151,-6.2333,-6.1623,-6.1328,-6.1328,-6.1328,-6.0647,-6.0096,-6.1057,-6.1706,-6.2375,-6.3692,-6.4785,-6.6078,-6.8326,-6.9303,-7.0149,-7.2539,-7.3586,-7.4293,-7.5732,-7.6283,-7.6488,-7.6221,-7.5685,-7.5354,-7.5007,-7.4676,-7.448,-7.424,-7.3462,-7.2355,-7.0829,-6.9842,-6.8914,-6.7777,-6.7627,-6.7627,-6.7627,-6.7627,-6.7897,-6.8585,-6.7837,-6.6915,-6.6099,-6.6009,-6.5695,-6.5056,-6.4764,-6.4663,-6.495,-6.4573,-6.4012,-6.3415,-6.3822,-6.3208,-6.1952,-6.171,-6.0352,-4.4377,-4.5826,0.0,-4.4705,-4.4758,0.0,-4.18,0.0,-4.1228,-4.0772,-4.1827,-4.2605,-4.2112,0.0,0.0,0.0,0.0,0.0,0.0,-3.7738,0.0,-4.1707,0.0,0.0,-4.971,-5.0355,-5.059,-5.0778,-4.9679,-4.935,-5.0124,-5.122,-5.2403,-5.3638,-5.518,-5.6595,-5.7886,-5.7981,-5.856,-5.9458,-5.9723,-5.9625,-5.951,-5.9715,-5.9064,-5.7834,-5.7834,-5.7322,-5.6628,-5.8236,-5.946,-6.0459,-6.211,-6.3251,-6.421,-6.3169,-6.2773,-6.2773,-6.2773,-6.2242,-6.1571,-6.2508,-6.3169,-6.3692,-6.4624,-6.5728,-6.7128,-6.9078,-6.9812,-7.0539,-7.3144,-7.395,-7.4424,-7.5832,-7.6384,-7.662,-7.6488,-7.6088,-7.555,-7.5414,-7.5142,-7.4869,-7.4869,-7.433,-7.3373,-7.1846,-7.0859,-6.9901,-6.8824,-6.8495,-6.8345,-6.8345,-6.8345,-6.8525,-6.8974,-6.8794,-6.8355,-6.7607,-6.7392,-6.7128,-6.6835,-6.6534,-6.6398,-6.6561,-6.5601,-6.4779,-6.4039,-6.4229,-6.3577,-6.2221,-6.2655,-6.1613]}]]